<?xml version="1.0" encoding="UTF-8" standalone="no" ?>
<gpx xmlns="http://www.topografix.com/GPX/1/1" xmlns:xsi="http://www.w3.org/2001/XMLSchema-instance" xsi:schemaLocation="http://www.topografix.com/GPX/1/1 http://www.topografix.com/GPX/1/1/gpx.xsd" version="1.1" creator="VisuGPX - https://www.visugpx.com">
  <metadata>
    <name>Sortie AMFB 13-03-2014</name>
    <desc><![CDATA[Sortie VTT bien péchue]]></desc>
  </metadata>
  <trk>
    <name><![CDATA[Sortie AMFB 13-03-2014_1]]></name>
    <trkseg>
      <trkpt lat="45.36473" lon="4.13576">
        <ele>731.3</ele>
        <time>2014-04-13T05:41:07Z</time>
      </trkpt>
      <trkpt lat="45.36473" lon="4.13576">
        <ele>733.8</ele>
        <time>2014-04-13T05:44:48Z</time>
      </trkpt>
      <trkpt lat="45.36483" lon="4.13598">
        <ele>731</ele>
        <time>2014-04-13T05:44:52Z</time>
      </trkpt>
      <trkpt lat="45.365" lon="4.13645">
        <ele>731.9</ele>
        <time>2014-04-13T05:45:01Z</time>
      </trkpt>
      <trkpt lat="45.36498" lon="4.13683">
        <ele>732.7</ele>
        <time>2014-04-13T05:45:07Z</time>
      </trkpt>
      <trkpt lat="45.36472" lon="4.13732">
        <ele>734.4</ele>
        <time>2014-04-13T05:45:15Z</time>
      </trkpt>
      <trkpt lat="45.36438" lon="4.13779">
        <ele>742.4</ele>
        <time>2014-04-13T05:45:23Z</time>
      </trkpt>
      <trkpt lat="45.36422" lon="4.13815">
        <ele>729.1</ele>
        <time>2014-04-13T05:45:31Z</time>
      </trkpt>
      <trkpt lat="45.36408" lon="4.13843">
        <ele>732.3</ele>
        <time>2014-04-13T05:45:39Z</time>
      </trkpt>
      <trkpt lat="45.36389" lon="4.13871">
        <ele>738.7</ele>
        <time>2014-04-13T05:45:47Z</time>
      </trkpt>
      <trkpt lat="45.36371" lon="4.13894">
        <ele>741.9</ele>
        <time>2014-04-13T05:45:55Z</time>
      </trkpt>
      <trkpt lat="45.36359" lon="4.13912">
        <ele>744</ele>
        <time>2014-04-13T05:46:01Z</time>
      </trkpt>
      <trkpt lat="45.36344" lon="4.13932">
        <ele>743.5</ele>
        <time>2014-04-13T05:46:09Z</time>
      </trkpt>
      <trkpt lat="45.36327" lon="4.13949">
        <ele>739.7</ele>
        <time>2014-04-13T05:46:17Z</time>
      </trkpt>
      <trkpt lat="45.36303" lon="4.13971">
        <ele>734.2</ele>
        <time>2014-04-13T05:46:24Z</time>
      </trkpt>
      <trkpt lat="45.36275" lon="4.13986">
        <ele>731.6</ele>
        <time>2014-04-13T05:46:29Z</time>
      </trkpt>
      <trkpt lat="45.36247" lon="4.14003">
        <ele>729.8</ele>
        <time>2014-04-13T05:46:34Z</time>
      </trkpt>
      <trkpt lat="45.36222" lon="4.14017">
        <ele>730.2</ele>
        <time>2014-04-13T05:46:39Z</time>
      </trkpt>
      <trkpt lat="45.362" lon="4.14032">
        <ele>730.8</ele>
        <time>2014-04-13T05:46:45Z</time>
      </trkpt>
      <trkpt lat="45.36174" lon="4.14059">
        <ele>731.9</ele>
        <time>2014-04-13T05:46:52Z</time>
      </trkpt>
      <trkpt lat="45.36151" lon="4.14078">
        <ele>733</ele>
        <time>2014-04-13T05:46:58Z</time>
      </trkpt>
      <trkpt lat="45.3613" lon="4.14127">
        <ele>729.6</ele>
        <time>2014-04-13T05:47:05Z</time>
      </trkpt>
      <trkpt lat="45.3613" lon="4.14193">
        <ele>724.9</ele>
        <time>2014-04-13T05:47:11Z</time>
      </trkpt>
      <trkpt lat="45.36123" lon="4.14258">
        <ele>722.3</ele>
        <time>2014-04-13T05:47:17Z</time>
      </trkpt>
      <trkpt lat="45.36134" lon="4.14322">
        <ele>720.9</ele>
        <time>2014-04-13T05:47:23Z</time>
      </trkpt>
      <trkpt lat="45.36139" lon="4.14399">
        <ele>718</ele>
        <time>2014-04-13T05:47:31Z</time>
      </trkpt>
      <trkpt lat="45.3613" lon="4.14491">
        <ele>711.7</ele>
        <time>2014-04-13T05:47:39Z</time>
      </trkpt>
      <trkpt lat="45.36138" lon="4.14574">
        <ele>705.8</ele>
        <time>2014-04-13T05:47:45Z</time>
      </trkpt>
      <trkpt lat="45.36134" lon="4.14648">
        <ele>704</ele>
        <time>2014-04-13T05:47:51Z</time>
      </trkpt>
      <trkpt lat="45.36138" lon="4.14713">
        <ele>701.5</ele>
        <time>2014-04-13T05:47:57Z</time>
      </trkpt>
      <trkpt lat="45.36115" lon="4.14772">
        <ele>698.3</ele>
        <time>2014-04-13T05:48:03Z</time>
      </trkpt>
      <trkpt lat="45.36075" lon="4.14791">
        <ele>697.2</ele>
        <time>2014-04-13T05:48:09Z</time>
      </trkpt>
      <trkpt lat="45.36039" lon="4.14815">
        <ele>696.5</ele>
        <time>2014-04-13T05:48:15Z</time>
      </trkpt>
      <trkpt lat="45.36026" lon="4.14872">
        <ele>693.6</ele>
        <time>2014-04-13T05:48:21Z</time>
      </trkpt>
      <trkpt lat="45.36005" lon="4.1493">
        <ele>692.1</ele>
        <time>2014-04-13T05:48:27Z</time>
      </trkpt>
      <trkpt lat="45.35981" lon="4.14978">
        <ele>690.9</ele>
        <time>2014-04-13T05:48:33Z</time>
      </trkpt>
      <trkpt lat="45.3597" lon="4.14996">
        <ele>689.4</ele>
        <time>2014-04-13T05:48:37Z</time>
      </trkpt>
      <trkpt lat="45.3597" lon="4.14996">
        <ele>671.4</ele>
        <time>2014-04-13T05:48:43Z</time>
      </trkpt>
      <trkpt lat="45.3597" lon="4.14996">
        <ele>671.4</ele>
        <time>2014-04-13T05:48:53Z</time>
      </trkpt>
      <trkpt lat="45.35994" lon="4.14963">
        <ele>683.8</ele>
        <time>2014-04-13T05:48:53Z</time>
      </trkpt>
      <trkpt lat="45.36008" lon="4.14968">
        <ele>682</ele>
        <time>2014-04-13T05:49:01Z</time>
      </trkpt>
      <trkpt lat="45.36037" lon="4.14991">
        <ele>687.5</ele>
        <time>2014-04-13T05:49:11Z</time>
      </trkpt>
      <trkpt lat="45.36055" lon="4.15">
        <ele>687.2</ele>
        <time>2014-04-13T05:49:17Z</time>
      </trkpt>
      <trkpt lat="45.36063" lon="4.15018">
        <ele>683.4</ele>
        <time>2014-04-13T05:49:23Z</time>
      </trkpt>
      <trkpt lat="45.36076" lon="4.15037">
        <ele>673.6</ele>
        <time>2014-04-13T05:49:30Z</time>
      </trkpt>
      <trkpt lat="45.36082" lon="4.15067">
        <ele>666.5</ele>
        <time>2014-04-13T05:49:39Z</time>
      </trkpt>
      <trkpt lat="45.36096" lon="4.15097">
        <ele>659.1</ele>
        <time>2014-04-13T05:49:47Z</time>
      </trkpt>
      <trkpt lat="45.361" lon="4.15121">
        <ele>653.1</ele>
        <time>2014-04-13T05:49:54Z</time>
      </trkpt>
      <trkpt lat="45.36097" lon="4.15146">
        <ele>645.8</ele>
        <time>2014-04-13T05:50:01Z</time>
      </trkpt>
      <trkpt lat="45.36097" lon="4.15174">
        <ele>640.5</ele>
        <time>2014-04-13T05:50:11Z</time>
      </trkpt>
      <trkpt lat="45.36103" lon="4.15207">
        <ele>642.1</ele>
        <time>2014-04-13T05:50:25Z</time>
      </trkpt>
      <trkpt lat="45.36104" lon="4.15244">
        <ele>631.9</ele>
        <time>2014-04-13T05:50:37Z</time>
      </trkpt>
      <trkpt lat="45.36119" lon="4.15285">
        <ele>623.3</ele>
        <time>2014-04-13T05:50:47Z</time>
      </trkpt>
      <trkpt lat="45.36141" lon="4.15312">
        <ele>615.9</ele>
        <time>2014-04-13T05:50:53Z</time>
      </trkpt>
      <trkpt lat="45.3616" lon="4.1533">
        <ele>611</ele>
        <time>2014-04-13T05:50:59Z</time>
      </trkpt>
      <trkpt lat="45.36192" lon="4.15355">
        <ele>604</ele>
        <time>2014-04-13T05:51:07Z</time>
      </trkpt>
      <trkpt lat="45.36229" lon="4.15389">
        <ele>597.5</ele>
        <time>2014-04-13T05:51:15Z</time>
      </trkpt>
      <trkpt lat="45.36264" lon="4.15409">
        <ele>590.9</ele>
        <time>2014-04-13T05:51:21Z</time>
      </trkpt>
      <trkpt lat="45.36297" lon="4.15425">
        <ele>584.8</ele>
        <time>2014-04-13T05:51:27Z</time>
      </trkpt>
      <trkpt lat="45.3633" lon="4.15456">
        <ele>576.5</ele>
        <time>2014-04-13T05:51:33Z</time>
      </trkpt>
      <trkpt lat="45.36345" lon="4.15479">
        <ele>568.5</ele>
        <time>2014-04-13T05:51:41Z</time>
      </trkpt>
      <trkpt lat="45.36363" lon="4.15477">
        <ele>559.1</ele>
        <time>2014-04-13T05:51:53Z</time>
      </trkpt>
      <trkpt lat="45.36409" lon="4.15462">
        <ele>552.2</ele>
        <time>2014-04-13T05:52:05Z</time>
      </trkpt>
      <trkpt lat="45.36417" lon="4.15465">
        <ele>550.8</ele>
        <time>2014-04-13T05:52:09Z</time>
      </trkpt>
      <trkpt lat="45.36417" lon="4.15465">
        <ele>536</ele>
        <time>2014-04-13T05:52:15Z</time>
      </trkpt>
      <trkpt lat="45.36417" lon="4.15465">
        <ele>536</ele>
        <time>2014-04-13T05:52:21Z</time>
      </trkpt>
      <trkpt lat="45.36424" lon="4.15488">
        <ele>550.2</ele>
        <time>2014-04-13T05:52:21Z</time>
      </trkpt>
      <trkpt lat="45.36445" lon="4.1549">
        <ele>547.1</ele>
        <time>2014-04-13T05:52:30Z</time>
      </trkpt>
      <trkpt lat="45.36452" lon="4.15493">
        <ele>546.6</ele>
        <time>2014-04-13T05:52:36Z</time>
      </trkpt>
      <trkpt lat="45.36452" lon="4.15493">
        <ele>542.8</ele>
        <time>2014-04-13T05:52:43Z</time>
      </trkpt>
      <trkpt lat="45.36452" lon="4.15493">
        <ele>542.8</ele>
        <time>2014-04-13T05:53:15Z</time>
      </trkpt>
      <trkpt lat="45.36467" lon="4.15505">
        <ele>545.8</ele>
        <time>2014-04-13T05:53:15Z</time>
      </trkpt>
      <trkpt lat="45.36452" lon="4.15542">
        <ele>551.1</ele>
        <time>2014-04-13T05:53:30Z</time>
      </trkpt>
      <trkpt lat="45.36436" lon="4.15547">
        <ele>554.5</ele>
        <time>2014-04-13T05:53:39Z</time>
      </trkpt>
      <trkpt lat="45.36418" lon="4.15559">
        <ele>558</ele>
        <time>2014-04-13T05:53:49Z</time>
      </trkpt>
      <trkpt lat="45.36403" lon="4.15572">
        <ele>564.1</ele>
        <time>2014-04-13T05:53:59Z</time>
      </trkpt>
      <trkpt lat="45.36394" lon="4.1559">
        <ele>567.7</ele>
        <time>2014-04-13T05:54:07Z</time>
      </trkpt>
      <trkpt lat="45.36394" lon="4.1559">
        <ele>567.7</ele>
        <time>2014-04-13T05:54:15Z</time>
      </trkpt>
      <trkpt lat="45.36394" lon="4.1559">
        <ele>553.2</ele>
        <time>2014-04-13T05:54:15Z</time>
      </trkpt>
      <trkpt lat="45.36394" lon="4.1559">
        <ele>553.2</ele>
        <time>2014-04-13T05:54:27Z</time>
      </trkpt>
      <trkpt lat="45.36384" lon="4.15624">
        <ele>569.8</ele>
        <time>2014-04-13T05:54:27Z</time>
      </trkpt>
      <trkpt lat="45.3638" lon="4.15641">
        <ele>571.9</ele>
        <time>2014-04-13T05:54:33Z</time>
      </trkpt>
      <trkpt lat="45.36368" lon="4.1566">
        <ele>574.5</ele>
        <time>2014-04-13T05:54:41Z</time>
      </trkpt>
      <trkpt lat="45.36355" lon="4.15676">
        <ele>575.8</ele>
        <time>2014-04-13T05:54:49Z</time>
      </trkpt>
      <trkpt lat="45.36344" lon="4.15699">
        <ele>579.4</ele>
        <time>2014-04-13T05:54:59Z</time>
      </trkpt>
      <trkpt lat="45.36343" lon="4.15732">
        <ele>584.4</ele>
        <time>2014-04-13T05:55:11Z</time>
      </trkpt>
      <trkpt lat="45.36341" lon="4.15765">
        <ele>588.7</ele>
        <time>2014-04-13T05:55:23Z</time>
      </trkpt>
      <trkpt lat="45.36344" lon="4.15784">
        <ele>591.3</ele>
        <time>2014-04-13T05:55:31Z</time>
      </trkpt>
      <trkpt lat="45.36344" lon="4.15792">
        <ele>592.7</ele>
        <time>2014-04-13T05:55:35Z</time>
      </trkpt>
      <trkpt lat="45.36344" lon="4.15792">
        <ele>567.1</ele>
        <time>2014-04-13T05:55:45Z</time>
      </trkpt>
      <trkpt lat="45.36344" lon="4.15792">
        <ele>567.1</ele>
        <time>2014-04-13T05:56:05Z</time>
      </trkpt>
      <trkpt lat="45.36356" lon="4.15754">
        <ele>602.3</ele>
        <time>2014-04-13T05:56:05Z</time>
      </trkpt>
      <trkpt lat="45.3636" lon="4.15727">
        <ele>606.7</ele>
        <time>2014-04-13T05:56:17Z</time>
      </trkpt>
      <trkpt lat="45.3637" lon="4.15707">
        <ele>610.2</ele>
        <time>2014-04-13T05:56:29Z</time>
      </trkpt>
      <trkpt lat="45.36389" lon="4.15695">
        <ele>614.9</ele>
        <time>2014-04-13T05:56:41Z</time>
      </trkpt>
      <trkpt lat="45.36401" lon="4.15679">
        <ele>617.8</ele>
        <time>2014-04-13T05:56:51Z</time>
      </trkpt>
      <trkpt lat="45.3642" lon="4.15661">
        <ele>624</ele>
        <time>2014-04-13T05:57:03Z</time>
      </trkpt>
      <trkpt lat="45.36435" lon="4.15654">
        <ele>627.9</ele>
        <time>2014-04-13T05:57:11Z</time>
      </trkpt>
      <trkpt lat="45.36448" lon="4.15648">
        <ele>630.2</ele>
        <time>2014-04-13T05:57:19Z</time>
      </trkpt>
      <trkpt lat="45.36469" lon="4.15638">
        <ele>630.6</ele>
        <time>2014-04-13T05:57:31Z</time>
      </trkpt>
      <trkpt lat="45.36494" lon="4.15636">
        <ele>634.1</ele>
        <time>2014-04-13T05:57:45Z</time>
      </trkpt>
      <trkpt lat="45.36506" lon="4.15635">
        <ele>633.6</ele>
        <time>2014-04-13T05:57:55Z</time>
      </trkpt>
      <trkpt lat="45.36534" lon="4.15622">
        <ele>635.3</ele>
        <time>2014-04-13T05:58:13Z</time>
      </trkpt>
      <trkpt lat="45.36563" lon="4.15612">
        <ele>638.8</ele>
        <time>2014-04-13T05:58:29Z</time>
      </trkpt>
      <trkpt lat="45.36574" lon="4.15607">
        <ele>640.8</ele>
        <time>2014-04-13T05:58:36Z</time>
      </trkpt>
      <trkpt lat="45.36588" lon="4.15608">
        <ele>642.6</ele>
        <time>2014-04-13T05:58:45Z</time>
      </trkpt>
      <trkpt lat="45.36602" lon="4.15605">
        <ele>644.2</ele>
        <time>2014-04-13T05:58:53Z</time>
      </trkpt>
      <trkpt lat="45.36622" lon="4.15607">
        <ele>642.6</ele>
        <time>2014-04-13T05:59:01Z</time>
      </trkpt>
      <trkpt lat="45.36638" lon="4.15612">
        <ele>641.7</ele>
        <time>2014-04-13T05:59:09Z</time>
      </trkpt>
      <trkpt lat="45.36659" lon="4.15617">
        <ele>642</ele>
        <time>2014-04-13T05:59:21Z</time>
      </trkpt>
      <trkpt lat="45.36676" lon="4.15625">
        <ele>640.4</ele>
        <time>2014-04-13T05:59:31Z</time>
      </trkpt>
      <trkpt lat="45.36695" lon="4.15636">
        <ele>641.4</ele>
        <time>2014-04-13T05:59:43Z</time>
      </trkpt>
      <trkpt lat="45.36711" lon="4.15652">
        <ele>640.3</ele>
        <time>2014-04-13T05:59:53Z</time>
      </trkpt>
      <trkpt lat="45.36731" lon="4.15671">
        <ele>639.6</ele>
        <time>2014-04-13T06:00:07Z</time>
      </trkpt>
      <trkpt lat="45.36749" lon="4.15696">
        <ele>640.9</ele>
        <time>2014-04-13T06:00:21Z</time>
      </trkpt>
      <trkpt lat="45.36768" lon="4.1571">
        <ele>644.1</ele>
        <time>2014-04-13T06:00:33Z</time>
      </trkpt>
      <trkpt lat="45.36781" lon="4.15725">
        <ele>646.2</ele>
        <time>2014-04-13T06:00:43Z</time>
      </trkpt>
      <trkpt lat="45.36801" lon="4.15743">
        <ele>648.6</ele>
        <time>2014-04-13T06:00:57Z</time>
      </trkpt>
      <trkpt lat="45.36818" lon="4.15753">
        <ele>651.3</ele>
        <time>2014-04-13T06:01:07Z</time>
      </trkpt>
      <trkpt lat="45.36838" lon="4.15766">
        <ele>654.2</ele>
        <time>2014-04-13T06:01:19Z</time>
      </trkpt>
      <trkpt lat="45.36855" lon="4.15779">
        <ele>657</ele>
        <time>2014-04-13T06:01:31Z</time>
      </trkpt>
      <trkpt lat="45.36873" lon="4.15783">
        <ele>661.2</ele>
        <time>2014-04-13T06:01:43Z</time>
      </trkpt>
      <trkpt lat="45.36898" lon="4.15793">
        <ele>664.5</ele>
        <time>2014-04-13T06:01:57Z</time>
      </trkpt>
      <trkpt lat="45.36916" lon="4.15801">
        <ele>666.3</ele>
        <time>2014-04-13T06:02:07Z</time>
      </trkpt>
      <trkpt lat="45.36933" lon="4.15804">
        <ele>667.7</ele>
        <time>2014-04-13T06:02:17Z</time>
      </trkpt>
      <trkpt lat="45.36942" lon="4.15807">
        <ele>669.4</ele>
        <time>2014-04-13T06:02:23Z</time>
      </trkpt>
      <trkpt lat="45.36946" lon="4.15814">
        <ele>670.7</ele>
        <time>2014-04-13T06:02:27Z</time>
      </trkpt>
      <trkpt lat="45.36946" lon="4.15814">
        <ele>653.6</ele>
        <time>2014-04-13T06:02:33Z</time>
      </trkpt>
      <trkpt lat="45.36946" lon="4.15814">
        <ele>653.6</ele>
        <time>2014-04-13T06:02:41Z</time>
      </trkpt>
      <trkpt lat="45.36928" lon="4.15826">
        <ele>676.7</ele>
        <time>2014-04-13T06:02:41Z</time>
      </trkpt>
      <trkpt lat="45.36909" lon="4.15837">
        <ele>682.9</ele>
        <time>2014-04-13T06:02:55Z</time>
      </trkpt>
      <trkpt lat="45.36889" lon="4.15847">
        <ele>689</ele>
        <time>2014-04-13T06:03:09Z</time>
      </trkpt>
      <trkpt lat="45.36872" lon="4.15854">
        <ele>692.5</ele>
        <time>2014-04-13T06:03:21Z</time>
      </trkpt>
      <trkpt lat="45.36856" lon="4.15858">
        <ele>696.9</ele>
        <time>2014-04-13T06:03:31Z</time>
      </trkpt>
      <trkpt lat="45.3684" lon="4.15863">
        <ele>701.3</ele>
        <time>2014-04-13T06:03:41Z</time>
      </trkpt>
      <trkpt lat="45.3683" lon="4.15877">
        <ele>704</ele>
        <time>2014-04-13T06:03:49Z</time>
      </trkpt>
      <trkpt lat="45.36822" lon="4.15909">
        <ele>709.5</ele>
        <time>2014-04-13T06:04:04Z</time>
      </trkpt>
      <trkpt lat="45.36828" lon="4.1594">
        <ele>714.1</ele>
        <time>2014-04-13T06:04:15Z</time>
      </trkpt>
      <trkpt lat="45.36843" lon="4.15953">
        <ele>718</ele>
        <time>2014-04-13T06:04:26Z</time>
      </trkpt>
      <trkpt lat="45.36869" lon="4.15969">
        <ele>722.1</ele>
        <time>2014-04-13T06:04:41Z</time>
      </trkpt>
      <trkpt lat="45.36885" lon="4.15981">
        <ele>722.6</ele>
        <time>2014-04-13T06:04:49Z</time>
      </trkpt>
      <trkpt lat="45.36905" lon="4.1599">
        <ele>720.2</ele>
        <time>2014-04-13T06:05:00Z</time>
      </trkpt>
      <trkpt lat="45.3693" lon="4.16">
        <ele>716.4</ele>
        <time>2014-04-13T06:05:13Z</time>
      </trkpt>
      <trkpt lat="45.36954" lon="4.16013">
        <ele>713.2</ele>
        <time>2014-04-13T06:05:25Z</time>
      </trkpt>
      <trkpt lat="45.36966" lon="4.16031">
        <ele>710.9</ele>
        <time>2014-04-13T06:05:35Z</time>
      </trkpt>
      <trkpt lat="45.36975" lon="4.16046">
        <ele>709.8</ele>
        <time>2014-04-13T06:05:43Z</time>
      </trkpt>
      <trkpt lat="45.36991" lon="4.16055">
        <ele>709</ele>
        <time>2014-04-13T06:05:53Z</time>
      </trkpt>
      <trkpt lat="45.37005" lon="4.16048">
        <ele>707.9</ele>
        <time>2014-04-13T06:06:01Z</time>
      </trkpt>
      <trkpt lat="45.37023" lon="4.16036">
        <ele>707.2</ele>
        <time>2014-04-13T06:06:11Z</time>
      </trkpt>
      <trkpt lat="45.37036" lon="4.16029">
        <ele>707.1</ele>
        <time>2014-04-13T06:06:18Z</time>
      </trkpt>
      <trkpt lat="45.37054" lon="4.16017">
        <ele>707.8</ele>
        <time>2014-04-13T06:06:27Z</time>
      </trkpt>
      <trkpt lat="45.37076" lon="4.16006">
        <ele>709.7</ele>
        <time>2014-04-13T06:06:37Z</time>
      </trkpt>
      <trkpt lat="45.37097" lon="4.15991">
        <ele>711.9</ele>
        <time>2014-04-13T06:06:47Z</time>
      </trkpt>
      <trkpt lat="45.37108" lon="4.15986">
        <ele>713.3</ele>
        <time>2014-04-13T06:06:52Z</time>
      </trkpt>
      <trkpt lat="45.37131" lon="4.15983">
        <ele>716.7</ele>
        <time>2014-04-13T06:07:03Z</time>
      </trkpt>
      <trkpt lat="45.37151" lon="4.15982">
        <ele>719</ele>
        <time>2014-04-13T06:07:13Z</time>
      </trkpt>
      <trkpt lat="45.37172" lon="4.15979">
        <ele>718.8</ele>
        <time>2014-04-13T06:07:23Z</time>
      </trkpt>
      <trkpt lat="45.37186" lon="4.15976">
        <ele>719.4</ele>
        <time>2014-04-13T06:07:29Z</time>
      </trkpt>
      <trkpt lat="45.37205" lon="4.15975">
        <ele>719.6</ele>
        <time>2014-04-13T06:07:37Z</time>
      </trkpt>
      <trkpt lat="45.37228" lon="4.15975">
        <ele>723.4</ele>
        <time>2014-04-13T06:07:47Z</time>
      </trkpt>
      <trkpt lat="45.37248" lon="4.15974">
        <ele>726.1</ele>
        <time>2014-04-13T06:07:55Z</time>
      </trkpt>
      <trkpt lat="45.37269" lon="4.1598">
        <ele>728.3</ele>
        <time>2014-04-13T06:08:03Z</time>
      </trkpt>
      <trkpt lat="45.37261" lon="4.16005">
        <ele>728.1</ele>
        <time>2014-04-13T06:08:09Z</time>
      </trkpt>
      <trkpt lat="45.3725" lon="4.16034">
        <ele>728.9</ele>
        <time>2014-04-13T06:08:15Z</time>
      </trkpt>
      <trkpt lat="45.3724" lon="4.16065">
        <ele>729</ele>
        <time>2014-04-13T06:08:21Z</time>
      </trkpt>
      <trkpt lat="45.37229" lon="4.16094">
        <ele>729.2</ele>
        <time>2014-04-13T06:08:27Z</time>
      </trkpt>
      <trkpt lat="45.37222" lon="4.16125">
        <ele>730.9</ele>
        <time>2014-04-13T06:08:33Z</time>
      </trkpt>
      <trkpt lat="45.37213" lon="4.16163">
        <ele>733.1</ele>
        <time>2014-04-13T06:08:40Z</time>
      </trkpt>
      <trkpt lat="45.37205" lon="4.1619">
        <ele>735.1</ele>
        <time>2014-04-13T06:08:45Z</time>
      </trkpt>
      <trkpt lat="45.37189" lon="4.1623">
        <ele>737.7</ele>
        <time>2014-04-13T06:08:53Z</time>
      </trkpt>
      <trkpt lat="45.37171" lon="4.16273">
        <ele>738.3</ele>
        <time>2014-04-13T06:09:01Z</time>
      </trkpt>
      <trkpt lat="45.3716" lon="4.16313">
        <ele>737.4</ele>
        <time>2014-04-13T06:09:07Z</time>
      </trkpt>
      <trkpt lat="45.37143" lon="4.16391">
        <ele>737</ele>
        <time>2014-04-13T06:09:15Z</time>
      </trkpt>
      <trkpt lat="45.37131" lon="4.16453">
        <ele>735.1</ele>
        <time>2014-04-13T06:09:21Z</time>
      </trkpt>
      <trkpt lat="45.37126" lon="4.16515">
        <ele>732.7</ele>
        <time>2014-04-13T06:09:27Z</time>
      </trkpt>
      <trkpt lat="45.37098" lon="4.1657">
        <ele>728.5</ele>
        <time>2014-04-13T06:09:33Z</time>
      </trkpt>
      <trkpt lat="45.37043" lon="4.1663">
        <ele>724.5</ele>
        <time>2014-04-13T06:09:41Z</time>
      </trkpt>
      <trkpt lat="45.37012" lon="4.1669">
        <ele>722</ele>
        <time>2014-04-13T06:09:47Z</time>
      </trkpt>
      <trkpt lat="45.36991" lon="4.16774">
        <ele>720.2</ele>
        <time>2014-04-13T06:09:55Z</time>
      </trkpt>
      <trkpt lat="45.37005" lon="4.16829">
        <ele>719</ele>
        <time>2014-04-13T06:10:01Z</time>
      </trkpt>
      <trkpt lat="45.37026" lon="4.16872">
        <ele>718.3</ele>
        <time>2014-04-13T06:10:07Z</time>
      </trkpt>
      <trkpt lat="45.37046" lon="4.16915">
        <ele>716.1</ele>
        <time>2014-04-13T06:10:13Z</time>
      </trkpt>
      <trkpt lat="45.37056" lon="4.16958">
        <ele>714.4</ele>
        <time>2014-04-13T06:10:19Z</time>
      </trkpt>
      <trkpt lat="45.37029" lon="4.17024">
        <ele>714.2</ele>
        <time>2014-04-13T06:10:27Z</time>
      </trkpt>
      <trkpt lat="45.37008" lon="4.17061">
        <ele>714.1</ele>
        <time>2014-04-13T06:10:33Z</time>
      </trkpt>
      <trkpt lat="45.37027" lon="4.17139">
        <ele>712.1</ele>
        <time>2014-04-13T06:10:41Z</time>
      </trkpt>
      <trkpt lat="45.37037" lon="4.17199">
        <ele>710.9</ele>
        <time>2014-04-13T06:10:47Z</time>
      </trkpt>
      <trkpt lat="45.37051" lon="4.17256">
        <ele>710.1</ele>
        <time>2014-04-13T06:10:54Z</time>
      </trkpt>
      <trkpt lat="45.37051" lon="4.17309">
        <ele>708.8</ele>
        <time>2014-04-13T06:11:01Z</time>
      </trkpt>
      <trkpt lat="45.37042" lon="4.17363">
        <ele>707.2</ele>
        <time>2014-04-13T06:11:07Z</time>
      </trkpt>
      <trkpt lat="45.37029" lon="4.1742">
        <ele>702.8</ele>
        <time>2014-04-13T06:11:13Z</time>
      </trkpt>
      <trkpt lat="45.37045" lon="4.17473">
        <ele>695.4</ele>
        <time>2014-04-13T06:11:19Z</time>
      </trkpt>
      <trkpt lat="45.3702" lon="4.17485">
        <ele>691.8</ele>
        <time>2014-04-13T06:11:25Z</time>
      </trkpt>
      <trkpt lat="45.37011" lon="4.17527">
        <ele>687.2</ele>
        <time>2014-04-13T06:11:31Z</time>
      </trkpt>
      <trkpt lat="45.36999" lon="4.17615">
        <ele>680.6</ele>
        <time>2014-04-13T06:11:39Z</time>
      </trkpt>
      <trkpt lat="45.36986" lon="4.17709">
        <ele>673</ele>
        <time>2014-04-13T06:11:47Z</time>
      </trkpt>
      <trkpt lat="45.36976" lon="4.1779">
        <ele>665.8</ele>
        <time>2014-04-13T06:11:53Z</time>
      </trkpt>
      <trkpt lat="45.36971" lon="4.17867">
        <ele>658.4</ele>
        <time>2014-04-13T06:11:59Z</time>
      </trkpt>
      <trkpt lat="45.36955" lon="4.17936">
        <ele>650.4</ele>
        <time>2014-04-13T06:12:05Z</time>
      </trkpt>
      <trkpt lat="45.36924" lon="4.17998">
        <ele>641.5</ele>
        <time>2014-04-13T06:12:11Z</time>
      </trkpt>
      <trkpt lat="45.36914" lon="4.18056">
        <ele>633.9</ele>
        <time>2014-04-13T06:12:17Z</time>
      </trkpt>
      <trkpt lat="45.36946" lon="4.18094">
        <ele>627.4</ele>
        <time>2014-04-13T06:12:23Z</time>
      </trkpt>
      <trkpt lat="45.36954" lon="4.18149">
        <ele>618.2</ele>
        <time>2014-04-13T06:12:31Z</time>
      </trkpt>
      <trkpt lat="45.36911" lon="4.1822">
        <ele>608.9</ele>
        <time>2014-04-13T06:12:39Z</time>
      </trkpt>
      <trkpt lat="45.36871" lon="4.18253">
        <ele>601.5</ele>
        <time>2014-04-13T06:12:45Z</time>
      </trkpt>
      <trkpt lat="45.36828" lon="4.18269">
        <ele>589.9</ele>
        <time>2014-04-13T06:12:53Z</time>
      </trkpt>
      <trkpt lat="45.36828" lon="4.18269">
        <ele>589.9</ele>
        <time>2014-04-13T06:12:59Z</time>
      </trkpt>
      <trkpt lat="45.36828" lon="4.18269">
        <ele>564.1</ele>
        <time>2014-04-13T06:13:00Z</time>
      </trkpt>
      <trkpt lat="45.36828" lon="4.18269">
        <ele>564.1</ele>
        <time>2014-04-13T06:13:11Z</time>
      </trkpt>
      <trkpt lat="45.36855" lon="4.18282">
        <ele>576.2</ele>
        <time>2014-04-13T06:13:11Z</time>
      </trkpt>
      <trkpt lat="45.3688" lon="4.18292">
        <ele>575.9</ele>
        <time>2014-04-13T06:13:17Z</time>
      </trkpt>
      <trkpt lat="45.36915" lon="4.18293">
        <ele>574.2</ele>
        <time>2014-04-13T06:13:23Z</time>
      </trkpt>
      <trkpt lat="45.36955" lon="4.18279">
        <ele>571</ele>
        <time>2014-04-13T06:13:29Z</time>
      </trkpt>
      <trkpt lat="45.36991" lon="4.18269">
        <ele>570.3</ele>
        <time>2014-04-13T06:13:35Z</time>
      </trkpt>
      <trkpt lat="45.37038" lon="4.18247">
        <ele>569</ele>
        <time>2014-04-13T06:13:43Z</time>
      </trkpt>
      <trkpt lat="45.37062" lon="4.18198">
        <ele>563.9</ele>
        <time>2014-04-13T06:13:49Z</time>
      </trkpt>
      <trkpt lat="45.37074" lon="4.1815">
        <ele>560</ele>
        <time>2014-04-13T06:13:57Z</time>
      </trkpt>
      <trkpt lat="45.37078" lon="4.18136">
        <ele>557.7</ele>
        <time>2014-04-13T06:14:03Z</time>
      </trkpt>
      <trkpt lat="45.37098" lon="4.18172">
        <ele>552.3</ele>
        <time>2014-04-13T06:14:15Z</time>
      </trkpt>
      <trkpt lat="45.37117" lon="4.18199">
        <ele>547.2</ele>
        <time>2014-04-13T06:14:21Z</time>
      </trkpt>
      <trkpt lat="45.3714" lon="4.18215">
        <ele>540.1</ele>
        <time>2014-04-13T06:14:27Z</time>
      </trkpt>
      <trkpt lat="45.37159" lon="4.18231">
        <ele>531.2</ele>
        <time>2014-04-13T06:14:35Z</time>
      </trkpt>
      <trkpt lat="45.37145" lon="4.18277">
        <ele>524.2</ele>
        <time>2014-04-13T06:14:45Z</time>
      </trkpt>
      <trkpt lat="45.37106" lon="4.18325">
        <ele>515.9</ele>
        <time>2014-04-13T06:14:53Z</time>
      </trkpt>
      <trkpt lat="45.37068" lon="4.18353">
        <ele>509.4</ele>
        <time>2014-04-13T06:15:01Z</time>
      </trkpt>
      <trkpt lat="45.37068" lon="4.18353">
        <ele>509.4</ele>
        <time>2014-04-13T06:15:07Z</time>
      </trkpt>
      <trkpt lat="45.37068" lon="4.18353">
        <ele>498.2</ele>
        <time>2014-04-13T06:15:07Z</time>
      </trkpt>
      <trkpt lat="45.37068" lon="4.18353">
        <ele>498.2</ele>
        <time>2014-04-13T06:15:19Z</time>
      </trkpt>
      <trkpt lat="45.37043" lon="4.1837">
        <ele>504.6</ele>
        <time>2014-04-13T06:15:19Z</time>
      </trkpt>
      <trkpt lat="45.37037" lon="4.18386">
        <ele>504.6</ele>
        <time>2014-04-13T06:15:27Z</time>
      </trkpt>
      <trkpt lat="45.36981" lon="4.18442">
        <ele>505.3</ele>
        <time>2014-04-13T06:15:45Z</time>
      </trkpt>
      <trkpt lat="45.36966" lon="4.18477">
        <ele>507.9</ele>
        <time>2014-04-13T06:15:51Z</time>
      </trkpt>
      <trkpt lat="45.36954" lon="4.18509">
        <ele>511</ele>
        <time>2014-04-13T06:15:57Z</time>
      </trkpt>
      <trkpt lat="45.36937" lon="4.18544">
        <ele>514</ele>
        <time>2014-04-13T06:16:03Z</time>
      </trkpt>
      <trkpt lat="45.36906" lon="4.18579">
        <ele>517.6</ele>
        <time>2014-04-13T06:16:11Z</time>
      </trkpt>
      <trkpt lat="45.36874" lon="4.18594">
        <ele>520.1</ele>
        <time>2014-04-13T06:16:17Z</time>
      </trkpt>
      <trkpt lat="45.36844" lon="4.1861">
        <ele>523.6</ele>
        <time>2014-04-13T06:16:23Z</time>
      </trkpt>
      <trkpt lat="45.36815" lon="4.18623">
        <ele>526.9</ele>
        <time>2014-04-13T06:16:30Z</time>
      </trkpt>
      <trkpt lat="45.36799" lon="4.18627">
        <ele>529.5</ele>
        <time>2014-04-13T06:16:35Z</time>
      </trkpt>
      <trkpt lat="45.36777" lon="4.18635">
        <ele>532.7</ele>
        <time>2014-04-13T06:16:42Z</time>
      </trkpt>
      <trkpt lat="45.36758" lon="4.18644">
        <ele>536.9</ele>
        <time>2014-04-13T06:16:49Z</time>
      </trkpt>
      <trkpt lat="45.36732" lon="4.18663">
        <ele>542.9</ele>
        <time>2014-04-13T06:16:59Z</time>
      </trkpt>
      <trkpt lat="45.36714" lon="4.18691">
        <ele>541.5</ele>
        <time>2014-04-13T06:17:07Z</time>
      </trkpt>
      <trkpt lat="45.36701" lon="4.18733">
        <ele>535.5</ele>
        <time>2014-04-13T06:17:13Z</time>
      </trkpt>
      <trkpt lat="45.36736" lon="4.18869">
        <ele>521.7</ele>
        <time>2014-04-13T06:17:23Z</time>
      </trkpt>
      <trkpt lat="45.36727" lon="4.18948">
        <ele>516</ele>
        <time>2014-04-13T06:17:28Z</time>
      </trkpt>
      <trkpt lat="45.367" lon="4.18995">
        <ele>510.6</ele>
        <time>2014-04-13T06:17:33Z</time>
      </trkpt>
      <trkpt lat="45.36659" lon="4.19029">
        <ele>499.1</ele>
        <time>2014-04-13T06:17:41Z</time>
      </trkpt>
      <trkpt lat="45.36685" lon="4.1905">
        <ele>490.1</ele>
        <time>2014-04-13T06:17:47Z</time>
      </trkpt>
      <trkpt lat="45.36703" lon="4.19069">
        <ele>481.2</ele>
        <time>2014-04-13T06:17:53Z</time>
      </trkpt>
      <trkpt lat="45.36703" lon="4.19108">
        <ele>473.9</ele>
        <time>2014-04-13T06:17:59Z</time>
      </trkpt>
      <trkpt lat="45.36704" lon="4.19177">
        <ele>464.9</ele>
        <time>2014-04-13T06:18:05Z</time>
      </trkpt>
      <trkpt lat="45.36701" lon="4.19218">
        <ele>459.7</ele>
        <time>2014-04-13T06:18:11Z</time>
      </trkpt>
      <trkpt lat="45.36706" lon="4.19239">
        <ele>456.8</ele>
        <time>2014-04-13T06:18:19Z</time>
      </trkpt>
      <trkpt lat="45.367" lon="4.19332">
        <ele>448.2</ele>
        <time>2014-04-13T06:18:33Z</time>
      </trkpt>
      <trkpt lat="45.36739" lon="4.19349">
        <ele>446.4</ele>
        <time>2014-04-13T06:18:43Z</time>
      </trkpt>
      <trkpt lat="45.36773" lon="4.19357">
        <ele>446.9</ele>
        <time>2014-04-13T06:18:49Z</time>
      </trkpt>
      <trkpt lat="45.36806" lon="4.19366">
        <ele>448.4</ele>
        <time>2014-04-13T06:18:55Z</time>
      </trkpt>
      <trkpt lat="45.36852" lon="4.1938">
        <ele>449.7</ele>
        <time>2014-04-13T06:19:03Z</time>
      </trkpt>
      <trkpt lat="45.36885" lon="4.19394">
        <ele>452</ele>
        <time>2014-04-13T06:19:09Z</time>
      </trkpt>
      <trkpt lat="45.36911" lon="4.19423">
        <ele>452.8</ele>
        <time>2014-04-13T06:19:15Z</time>
      </trkpt>
      <trkpt lat="45.36917" lon="4.19463">
        <ele>452.7</ele>
        <time>2014-04-13T06:19:21Z</time>
      </trkpt>
      <trkpt lat="45.36925" lon="4.19515">
        <ele>449.7</ele>
        <time>2014-04-13T06:19:27Z</time>
      </trkpt>
      <trkpt lat="45.36933" lon="4.19567">
        <ele>448.3</ele>
        <time>2014-04-13T06:19:33Z</time>
      </trkpt>
      <trkpt lat="45.3694" lon="4.19617">
        <ele>448.2</ele>
        <time>2014-04-13T06:19:39Z</time>
      </trkpt>
      <trkpt lat="45.36948" lon="4.19667">
        <ele>445.9</ele>
        <time>2014-04-13T06:19:45Z</time>
      </trkpt>
      <trkpt lat="45.36955" lon="4.19718">
        <ele>444</ele>
        <time>2014-04-13T06:19:51Z</time>
      </trkpt>
      <trkpt lat="45.3696" lon="4.19763">
        <ele>444.6</ele>
        <time>2014-04-13T06:19:57Z</time>
      </trkpt>
      <trkpt lat="45.36964" lon="4.19793">
        <ele>444.2</ele>
        <time>2014-04-13T06:20:02Z</time>
      </trkpt>
      <trkpt lat="45.36949" lon="4.19802">
        <ele>444.8</ele>
        <time>2014-04-13T06:20:09Z</time>
      </trkpt>
      <trkpt lat="45.36936" lon="4.1981">
        <ele>446.3</ele>
        <time>2014-04-13T06:20:15Z</time>
      </trkpt>
      <trkpt lat="45.36932" lon="4.19831">
        <ele>447.9</ele>
        <time>2014-04-13T06:20:22Z</time>
      </trkpt>
      <trkpt lat="45.36932" lon="4.19831">
        <ele>447.9</ele>
        <time>2014-04-13T06:20:31Z</time>
      </trkpt>
      <trkpt lat="45.36932" lon="4.19831">
        <ele>439.6</ele>
        <time>2014-04-13T06:20:31Z</time>
      </trkpt>
      <trkpt lat="45.36932" lon="4.19831">
        <ele>439.6</ele>
        <time>2014-04-13T06:20:35Z</time>
      </trkpt>
      <trkpt lat="45.36951" lon="4.19814">
        <ele>455.3</ele>
        <time>2014-04-13T06:20:35Z</time>
      </trkpt>
      <trkpt lat="45.36965" lon="4.19821">
        <ele>458.6</ele>
        <time>2014-04-13T06:20:41Z</time>
      </trkpt>
      <trkpt lat="45.36967" lon="4.1984">
        <ele>459.8</ele>
        <time>2014-04-13T06:20:47Z</time>
      </trkpt>
      <trkpt lat="45.36983" lon="4.19859">
        <ele>460</ele>
        <time>2014-04-13T06:20:55Z</time>
      </trkpt>
      <trkpt lat="45.3698" lon="4.1988">
        <ele>462.2</ele>
        <time>2014-04-13T06:21:03Z</time>
      </trkpt>
      <trkpt lat="45.3698" lon="4.1988">
        <ele>462.2</ele>
        <time>2014-04-13T06:21:11Z</time>
      </trkpt>
      <trkpt lat="45.3698" lon="4.1988">
        <ele>441</ele>
        <time>2014-04-13T06:21:11Z</time>
      </trkpt>
      <trkpt lat="45.3698" lon="4.1988">
        <ele>441</ele>
        <time>2014-04-13T06:39:33Z</time>
      </trkpt>
      <trkpt lat="45.36973" lon="4.19846">
        <ele>452.9</ele>
        <time>2014-04-13T06:39:33Z</time>
      </trkpt>
      <trkpt lat="45.36972" lon="4.19818">
        <ele>451.5</ele>
        <time>2014-04-13T06:39:41Z</time>
      </trkpt>
      <trkpt lat="45.36957" lon="4.19818">
        <ele>451</ele>
        <time>2014-04-13T06:39:47Z</time>
      </trkpt>
      <trkpt lat="45.36936" lon="4.19834">
        <ele>449.6</ele>
        <time>2014-04-13T06:39:57Z</time>
      </trkpt>
      <trkpt lat="45.36963" lon="4.19802">
        <ele>450.4</ele>
        <time>2014-04-13T06:40:07Z</time>
      </trkpt>
      <trkpt lat="45.36963" lon="4.19772">
        <ele>446.2</ele>
        <time>2014-04-13T06:40:13Z</time>
      </trkpt>
      <trkpt lat="45.36958" lon="4.19729">
        <ele>444.3</ele>
        <time>2014-04-13T06:40:21Z</time>
      </trkpt>
      <trkpt lat="45.36952" lon="4.19683">
        <ele>442.6</ele>
        <time>2014-04-13T06:40:29Z</time>
      </trkpt>
      <trkpt lat="45.36948" lon="4.19651">
        <ele>440.9</ele>
        <time>2014-04-13T06:40:35Z</time>
      </trkpt>
      <trkpt lat="45.36944" lon="4.19622">
        <ele>440.7</ele>
        <time>2014-04-13T06:40:41Z</time>
      </trkpt>
      <trkpt lat="45.3694" lon="4.19592">
        <ele>440.7</ele>
        <time>2014-04-13T06:40:47Z</time>
      </trkpt>
      <trkpt lat="45.36935" lon="4.19556">
        <ele>439.1</ele>
        <time>2014-04-13T06:40:53Z</time>
      </trkpt>
      <trkpt lat="45.36931" lon="4.1952">
        <ele>438.5</ele>
        <time>2014-04-13T06:40:59Z</time>
      </trkpt>
      <trkpt lat="45.36927" lon="4.19487">
        <ele>437.7</ele>
        <time>2014-04-13T06:41:05Z</time>
      </trkpt>
      <trkpt lat="45.36922" lon="4.19456">
        <ele>437.4</ele>
        <time>2014-04-13T06:41:11Z</time>
      </trkpt>
      <trkpt lat="45.36925" lon="4.19415">
        <ele>438.6</ele>
        <time>2014-04-13T06:41:19Z</time>
      </trkpt>
      <trkpt lat="45.3694" lon="4.19394">
        <ele>442.8</ele>
        <time>2014-04-13T06:41:29Z</time>
      </trkpt>
      <trkpt lat="45.36962" lon="4.19396">
        <ele>447.2</ele>
        <time>2014-04-13T06:41:39Z</time>
      </trkpt>
      <trkpt lat="45.36974" lon="4.19404">
        <ele>448.6</ele>
        <time>2014-04-13T06:41:45Z</time>
      </trkpt>
      <trkpt lat="45.37007" lon="4.19407">
        <ele>450.5</ele>
        <time>2014-04-13T06:41:59Z</time>
      </trkpt>
      <trkpt lat="45.36998" lon="4.1939">
        <ele>448.5</ele>
        <time>2014-04-13T06:42:06Z</time>
      </trkpt>
      <trkpt lat="45.36976" lon="4.19358">
        <ele>446.5</ele>
        <time>2014-04-13T06:42:15Z</time>
      </trkpt>
      <trkpt lat="45.36963" lon="4.19344">
        <ele>447.6</ele>
        <time>2014-04-13T06:42:21Z</time>
      </trkpt>
      <trkpt lat="45.3695" lon="4.19332">
        <ele>448.2</ele>
        <time>2014-04-13T06:42:27Z</time>
      </trkpt>
      <trkpt lat="45.36937" lon="4.19321">
        <ele>448.5</ele>
        <time>2014-04-13T06:42:33Z</time>
      </trkpt>
      <trkpt lat="45.36923" lon="4.19311">
        <ele>449.3</ele>
        <time>2014-04-13T06:42:39Z</time>
      </trkpt>
      <trkpt lat="45.36907" lon="4.19303">
        <ele>448</ele>
        <time>2014-04-13T06:42:45Z</time>
      </trkpt>
      <trkpt lat="45.36892" lon="4.19296">
        <ele>448.6</ele>
        <time>2014-04-13T06:42:51Z</time>
      </trkpt>
      <trkpt lat="45.36883" lon="4.19285">
        <ele>449</ele>
        <time>2014-04-13T06:42:57Z</time>
      </trkpt>
      <trkpt lat="45.36884" lon="4.19263">
        <ele>450.8</ele>
        <time>2014-04-13T06:43:07Z</time>
      </trkpt>
      <trkpt lat="45.36885" lon="4.19239">
        <ele>454.4</ele>
        <time>2014-04-13T06:43:19Z</time>
      </trkpt>
      <trkpt lat="45.36886" lon="4.19207">
        <ele>458.3</ele>
        <time>2014-04-13T06:43:35Z</time>
      </trkpt>
      <trkpt lat="45.36885" lon="4.19186">
        <ele>461.8</ele>
        <time>2014-04-13T06:43:45Z</time>
      </trkpt>
      <trkpt lat="45.36876" lon="4.19165">
        <ele>465.4</ele>
        <time>2014-04-13T06:43:57Z</time>
      </trkpt>
      <trkpt lat="45.36865" lon="4.19152">
        <ele>468.1</ele>
        <time>2014-04-13T06:44:07Z</time>
      </trkpt>
      <trkpt lat="45.36849" lon="4.19131">
        <ele>471.8</ele>
        <time>2014-04-13T06:44:23Z</time>
      </trkpt>
      <trkpt lat="45.36835" lon="4.19117">
        <ele>475</ele>
        <time>2014-04-13T06:44:35Z</time>
      </trkpt>
      <trkpt lat="45.3682" lon="4.19107">
        <ele>477.5</ele>
        <time>2014-04-13T06:44:45Z</time>
      </trkpt>
      <trkpt lat="45.36802" lon="4.19096">
        <ele>479.9</ele>
        <time>2014-04-13T06:44:57Z</time>
      </trkpt>
      <trkpt lat="45.36786" lon="4.19082">
        <ele>480.7</ele>
        <time>2014-04-13T06:45:09Z</time>
      </trkpt>
      <trkpt lat="45.36776" lon="4.19071">
        <ele>481.3</ele>
        <time>2014-04-13T06:45:17Z</time>
      </trkpt>
      <trkpt lat="45.36761" lon="4.19048">
        <ele>484.5</ele>
        <time>2014-04-13T06:45:31Z</time>
      </trkpt>
      <trkpt lat="45.36751" lon="4.19027">
        <ele>487</ele>
        <time>2014-04-13T06:45:42Z</time>
      </trkpt>
      <trkpt lat="45.36745" lon="4.19002">
        <ele>488.3</ele>
        <time>2014-04-13T06:45:53Z</time>
      </trkpt>
      <trkpt lat="45.36747" lon="4.18974">
        <ele>488.9</ele>
        <time>2014-04-13T06:46:05Z</time>
      </trkpt>
      <trkpt lat="45.36742" lon="4.18948">
        <ele>490</ele>
        <time>2014-04-13T06:46:15Z</time>
      </trkpt>
      <trkpt lat="45.36745" lon="4.18916">
        <ele>491.9</ele>
        <time>2014-04-13T06:46:27Z</time>
      </trkpt>
      <trkpt lat="45.36746" lon="4.18883">
        <ele>494.2</ele>
        <time>2014-04-13T06:46:39Z</time>
      </trkpt>
      <trkpt lat="45.36746" lon="4.18859">
        <ele>496.5</ele>
        <time>2014-04-13T06:46:49Z</time>
      </trkpt>
      <trkpt lat="45.36738" lon="4.18825">
        <ele>498.4</ele>
        <time>2014-04-13T06:47:03Z</time>
      </trkpt>
      <trkpt lat="45.36729" lon="4.18807">
        <ele>499.6</ele>
        <time>2014-04-13T06:47:13Z</time>
      </trkpt>
      <trkpt lat="45.36717" lon="4.18787">
        <ele>502</ele>
        <time>2014-04-13T06:47:25Z</time>
      </trkpt>
      <trkpt lat="45.36706" lon="4.18764">
        <ele>504.5</ele>
        <time>2014-04-13T06:47:37Z</time>
      </trkpt>
      <trkpt lat="45.36714" lon="4.18735">
        <ele>507.9</ele>
        <time>2014-04-13T06:47:51Z</time>
      </trkpt>
      <trkpt lat="45.3672" lon="4.1872">
        <ele>510.2</ele>
        <time>2014-04-13T06:47:59Z</time>
      </trkpt>
      <trkpt lat="45.36726" lon="4.18702">
        <ele>513.2</ele>
        <time>2014-04-13T06:48:09Z</time>
      </trkpt>
      <trkpt lat="45.36744" lon="4.18694">
        <ele>517.4</ele>
        <time>2014-04-13T06:48:23Z</time>
      </trkpt>
      <trkpt lat="45.36759" lon="4.18695">
        <ele>520.6</ele>
        <time>2014-04-13T06:48:35Z</time>
      </trkpt>
      <trkpt lat="45.36784" lon="4.18694">
        <ele>524</ele>
        <time>2014-04-13T06:48:51Z</time>
      </trkpt>
      <trkpt lat="45.36807" lon="4.187">
        <ele>526.1</ele>
        <time>2014-04-13T06:49:05Z</time>
      </trkpt>
      <trkpt lat="45.36828" lon="4.18703">
        <ele>531.4</ele>
        <time>2014-04-13T06:49:21Z</time>
      </trkpt>
      <trkpt lat="45.36851" lon="4.18706">
        <ele>535.2</ele>
        <time>2014-04-13T06:49:37Z</time>
      </trkpt>
      <trkpt lat="45.36878" lon="4.1871">
        <ele>538.5</ele>
        <time>2014-04-13T06:49:55Z</time>
      </trkpt>
      <trkpt lat="45.36901" lon="4.18723">
        <ele>542.5</ele>
        <time>2014-04-13T06:50:11Z</time>
      </trkpt>
      <trkpt lat="45.36916" lon="4.18735">
        <ele>544.3</ele>
        <time>2014-04-13T06:50:22Z</time>
      </trkpt>
      <trkpt lat="45.3693" lon="4.18747">
        <ele>547.2</ele>
        <time>2014-04-13T06:50:33Z</time>
      </trkpt>
      <trkpt lat="45.36946" lon="4.18753">
        <ele>549.1</ele>
        <time>2014-04-13T06:50:43Z</time>
      </trkpt>
      <trkpt lat="45.36967" lon="4.18767">
        <ele>553.2</ele>
        <time>2014-04-13T06:51:01Z</time>
      </trkpt>
      <trkpt lat="45.3698" lon="4.18784">
        <ele>555.9</ele>
        <time>2014-04-13T06:51:13Z</time>
      </trkpt>
      <trkpt lat="45.36993" lon="4.18799">
        <ele>559.2</ele>
        <time>2014-04-13T06:51:25Z</time>
      </trkpt>
      <trkpt lat="45.37015" lon="4.18815">
        <ele>562.9</ele>
        <time>2014-04-13T06:51:41Z</time>
      </trkpt>
      <trkpt lat="45.37033" lon="4.1882">
        <ele>567</ele>
        <time>2014-04-13T06:51:55Z</time>
      </trkpt>
      <trkpt lat="45.37059" lon="4.18824">
        <ele>569.7</ele>
        <time>2014-04-13T06:52:11Z</time>
      </trkpt>
      <trkpt lat="45.3707" lon="4.18827">
        <ele>573.2</ele>
        <time>2014-04-13T06:52:19Z</time>
      </trkpt>
      <trkpt lat="45.3709" lon="4.18837">
        <ele>577.2</ele>
        <time>2014-04-13T06:52:33Z</time>
      </trkpt>
      <trkpt lat="45.3711" lon="4.18847">
        <ele>581.4</ele>
        <time>2014-04-13T06:52:47Z</time>
      </trkpt>
      <trkpt lat="45.37127" lon="4.18857">
        <ele>585.1</ele>
        <time>2014-04-13T06:52:59Z</time>
      </trkpt>
      <trkpt lat="45.37137" lon="4.18872">
        <ele>588.8</ele>
        <time>2014-04-13T06:53:09Z</time>
      </trkpt>
      <trkpt lat="45.37144" lon="4.18888">
        <ele>591.3</ele>
        <time>2014-04-13T06:53:17Z</time>
      </trkpt>
      <trkpt lat="45.37153" lon="4.18911">
        <ele>593.8</ele>
        <time>2014-04-13T06:53:27Z</time>
      </trkpt>
      <trkpt lat="45.37163" lon="4.18944">
        <ele>595.4</ele>
        <time>2014-04-13T06:53:37Z</time>
      </trkpt>
      <trkpt lat="45.37182" lon="4.18978">
        <ele>594.9</ele>
        <time>2014-04-13T06:53:45Z</time>
      </trkpt>
      <trkpt lat="45.37206" lon="4.18996">
        <ele>594.6</ele>
        <time>2014-04-13T06:53:51Z</time>
      </trkpt>
      <trkpt lat="45.37233" lon="4.19005">
        <ele>596.3</ele>
        <time>2014-04-13T06:53:59Z</time>
      </trkpt>
      <trkpt lat="45.37247" lon="4.19019">
        <ele>597.6</ele>
        <time>2014-04-13T06:54:05Z</time>
      </trkpt>
      <trkpt lat="45.37263" lon="4.1903">
        <ele>598</ele>
        <time>2014-04-13T06:54:11Z</time>
      </trkpt>
      <trkpt lat="45.37279" lon="4.19044">
        <ele>598.2</ele>
        <time>2014-04-13T06:54:17Z</time>
      </trkpt>
      <trkpt lat="45.37295" lon="4.19058">
        <ele>598.7</ele>
        <time>2014-04-13T06:54:23Z</time>
      </trkpt>
      <trkpt lat="45.37306" lon="4.19077">
        <ele>600.9</ele>
        <time>2014-04-13T06:54:29Z</time>
      </trkpt>
      <trkpt lat="45.37316" lon="4.19095">
        <ele>601.5</ele>
        <time>2014-04-13T06:54:35Z</time>
      </trkpt>
      <trkpt lat="45.37327" lon="4.19112">
        <ele>602.7</ele>
        <time>2014-04-13T06:54:41Z</time>
      </trkpt>
      <trkpt lat="45.37343" lon="4.19124">
        <ele>603.4</ele>
        <time>2014-04-13T06:54:49Z</time>
      </trkpt>
      <trkpt lat="45.37364" lon="4.19133">
        <ele>605.8</ele>
        <time>2014-04-13T06:55:01Z</time>
      </trkpt>
      <trkpt lat="45.3739" lon="4.19143">
        <ele>612.2</ele>
        <time>2014-04-13T06:55:17Z</time>
      </trkpt>
      <trkpt lat="45.37404" lon="4.19147">
        <ele>615.5</ele>
        <time>2014-04-13T06:55:25Z</time>
      </trkpt>
      <trkpt lat="45.37434" lon="4.19165">
        <ele>620.7</ele>
        <time>2014-04-13T06:55:39Z</time>
      </trkpt>
      <trkpt lat="45.37451" lon="4.19186">
        <ele>621</ele>
        <time>2014-04-13T06:55:49Z</time>
      </trkpt>
      <trkpt lat="45.37464" lon="4.19215">
        <ele>621.7</ele>
        <time>2014-04-13T06:55:59Z</time>
      </trkpt>
      <trkpt lat="45.37475" lon="4.19235">
        <ele>620.6</ele>
        <time>2014-04-13T06:56:05Z</time>
      </trkpt>
      <trkpt lat="45.37492" lon="4.19257">
        <ele>618.6</ele>
        <time>2014-04-13T06:56:11Z</time>
      </trkpt>
      <trkpt lat="45.37517" lon="4.19278">
        <ele>617.4</ele>
        <time>2014-04-13T06:56:21Z</time>
      </trkpt>
      <trkpt lat="45.37532" lon="4.19273">
        <ele>620.3</ele>
        <time>2014-04-13T06:56:29Z</time>
      </trkpt>
      <trkpt lat="45.37549" lon="4.1927">
        <ele>624.5</ele>
        <time>2014-04-13T06:56:39Z</time>
      </trkpt>
      <trkpt lat="45.37572" lon="4.19275">
        <ele>630</ele>
        <time>2014-04-13T06:56:51Z</time>
      </trkpt>
      <trkpt lat="45.37596" lon="4.19279">
        <ele>634.8</ele>
        <time>2014-04-13T06:57:03Z</time>
      </trkpt>
      <trkpt lat="45.37624" lon="4.19268">
        <ele>636.9</ele>
        <time>2014-04-13T06:57:12Z</time>
      </trkpt>
      <trkpt lat="45.37654" lon="4.19255">
        <ele>638.5</ele>
        <time>2014-04-13T06:57:17Z</time>
      </trkpt>
      <trkpt lat="45.37694" lon="4.19234">
        <ele>641.5</ele>
        <time>2014-04-13T06:57:23Z</time>
      </trkpt>
      <trkpt lat="45.37705" lon="4.19218">
        <ele>645.4</ele>
        <time>2014-04-13T06:57:31Z</time>
      </trkpt>
      <trkpt lat="45.37716" lon="4.19189">
        <ele>648.9</ele>
        <time>2014-04-13T06:57:43Z</time>
      </trkpt>
      <trkpt lat="45.3773" lon="4.19161">
        <ele>647.5</ele>
        <time>2014-04-13T06:57:57Z</time>
      </trkpt>
      <trkpt lat="45.3773" lon="4.19161">
        <ele>647.5</ele>
        <time>2014-04-13T06:58:07Z</time>
      </trkpt>
      <trkpt lat="45.3773" lon="4.19161">
        <ele>616.4</ele>
        <time>2014-04-13T06:58:08Z</time>
      </trkpt>
      <trkpt lat="45.3773" lon="4.19161">
        <ele>616.4</ele>
        <time>2014-04-13T07:03:12Z</time>
      </trkpt>
      <trkpt lat="45.37724" lon="4.19088">
        <ele>645.5</ele>
        <time>2014-04-13T07:03:12Z</time>
      </trkpt>
      <trkpt lat="45.37743" lon="4.19087">
        <ele>645.1</ele>
        <time>2014-04-13T07:03:17Z</time>
      </trkpt>
      <trkpt lat="45.37783" lon="4.1911">
        <ele>644</ele>
        <time>2014-04-13T07:03:23Z</time>
      </trkpt>
      <trkpt lat="45.37809" lon="4.19128">
        <ele>642.5</ele>
        <time>2014-04-13T07:03:28Z</time>
      </trkpt>
      <trkpt lat="45.37783" lon="4.19137">
        <ele>640.4</ele>
        <time>2014-04-13T07:03:39Z</time>
      </trkpt>
      <trkpt lat="45.37811" lon="4.19155">
        <ele>639.3</ele>
        <time>2014-04-13T07:03:47Z</time>
      </trkpt>
      <trkpt lat="45.37845" lon="4.19153">
        <ele>637.8</ele>
        <time>2014-04-13T07:03:55Z</time>
      </trkpt>
      <trkpt lat="45.3787" lon="4.19134">
        <ele>637.3</ele>
        <time>2014-04-13T07:04:01Z</time>
      </trkpt>
      <trkpt lat="45.37891" lon="4.19129">
        <ele>637.3</ele>
        <time>2014-04-13T07:04:07Z</time>
      </trkpt>
      <trkpt lat="45.37892" lon="4.19151">
        <ele>633.2</ele>
        <time>2014-04-13T07:04:19Z</time>
      </trkpt>
      <trkpt lat="45.37883" lon="4.19183">
        <ele>632.1</ele>
        <time>2014-04-13T07:04:33Z</time>
      </trkpt>
      <trkpt lat="45.37893" lon="4.19212">
        <ele>632.5</ele>
        <time>2014-04-13T07:04:41Z</time>
      </trkpt>
      <trkpt lat="45.379" lon="4.19229">
        <ele>633.3</ele>
        <time>2014-04-13T07:04:47Z</time>
      </trkpt>
      <trkpt lat="45.379" lon="4.19246">
        <ele>633.5</ele>
        <time>2014-04-13T07:04:55Z</time>
      </trkpt>
      <trkpt lat="45.37887" lon="4.19262">
        <ele>633.7</ele>
        <time>2014-04-13T07:05:07Z</time>
      </trkpt>
      <trkpt lat="45.37878" lon="4.19285">
        <ele>631.5</ele>
        <time>2014-04-13T07:05:21Z</time>
      </trkpt>
      <trkpt lat="45.37872" lon="4.19292">
        <ele>632.9</ele>
        <time>2014-04-13T07:05:29Z</time>
      </trkpt>
      <trkpt lat="45.37857" lon="4.19315">
        <ele>633.8</ele>
        <time>2014-04-13T07:05:41Z</time>
      </trkpt>
      <trkpt lat="45.37833" lon="4.19343">
        <ele>627.7</ele>
        <time>2014-04-13T07:05:49Z</time>
      </trkpt>
      <trkpt lat="45.37833" lon="4.19343">
        <ele>587.2</ele>
        <time>2014-04-13T07:05:57Z</time>
      </trkpt>
      <trkpt lat="45.37833" lon="4.19343">
        <ele>587.2</ele>
        <time>2014-04-13T07:06:19Z</time>
      </trkpt>
      <trkpt lat="45.3786" lon="4.19338">
        <ele>631.4</ele>
        <time>2014-04-13T07:06:19Z</time>
      </trkpt>
      <trkpt lat="45.37866" lon="4.19334">
        <ele>633.4</ele>
        <time>2014-04-13T07:06:25Z</time>
      </trkpt>
      <trkpt lat="45.37866" lon="4.19334">
        <ele>598.8</ele>
        <time>2014-04-13T07:06:33Z</time>
      </trkpt>
      <trkpt lat="45.37866" lon="4.19334">
        <ele>598.8</ele>
        <time>2014-04-13T07:07:05Z</time>
      </trkpt>
      <trkpt lat="45.37896" lon="4.19333">
        <ele>625.7</ele>
        <time>2014-04-13T07:07:05Z</time>
      </trkpt>
      <trkpt lat="45.37916" lon="4.1934">
        <ele>628.1</ele>
        <time>2014-04-13T07:07:19Z</time>
      </trkpt>
      <trkpt lat="45.37932" lon="4.19344">
        <ele>632.1</ele>
        <time>2014-04-13T07:07:33Z</time>
      </trkpt>
      <trkpt lat="45.37954" lon="4.19353">
        <ele>635.7</ele>
        <time>2014-04-13T07:07:49Z</time>
      </trkpt>
      <trkpt lat="45.37951" lon="4.19374">
        <ele>639.1</ele>
        <time>2014-04-13T07:08:09Z</time>
      </trkpt>
      <trkpt lat="45.37946" lon="4.19389">
        <ele>641.1</ele>
        <time>2014-04-13T07:08:19Z</time>
      </trkpt>
      <trkpt lat="45.37946" lon="4.19389">
        <ele>632</ele>
        <time>2014-04-13T07:08:29Z</time>
      </trkpt>
      <trkpt lat="45.37946" lon="4.19389">
        <ele>632</ele>
        <time>2014-04-13T07:08:39Z</time>
      </trkpt>
      <trkpt lat="45.37938" lon="4.1941">
        <ele>640.9</ele>
        <time>2014-04-13T07:08:39Z</time>
      </trkpt>
      <trkpt lat="45.37947" lon="4.19434">
        <ele>641.4</ele>
        <time>2014-04-13T07:08:51Z</time>
      </trkpt>
      <trkpt lat="45.37969" lon="4.19425">
        <ele>644.2</ele>
        <time>2014-04-13T07:09:09Z</time>
      </trkpt>
      <trkpt lat="45.37986" lon="4.19423">
        <ele>647</ele>
        <time>2014-04-13T07:09:23Z</time>
      </trkpt>
      <trkpt lat="45.38002" lon="4.19429">
        <ele>650.3</ele>
        <time>2014-04-13T07:09:36Z</time>
      </trkpt>
      <trkpt lat="45.38017" lon="4.19424">
        <ele>654.8</ele>
        <time>2014-04-13T07:09:49Z</time>
      </trkpt>
      <trkpt lat="45.38039" lon="4.19428">
        <ele>660.6</ele>
        <time>2014-04-13T07:10:03Z</time>
      </trkpt>
      <trkpt lat="45.38051" lon="4.19431">
        <ele>662.7</ele>
        <time>2014-04-13T07:10:11Z</time>
      </trkpt>
      <trkpt lat="45.38063" lon="4.19445">
        <ele>663.5</ele>
        <time>2014-04-13T07:10:23Z</time>
      </trkpt>
      <trkpt lat="45.3807" lon="4.19469">
        <ele>664.4</ele>
        <time>2014-04-13T07:10:37Z</time>
      </trkpt>
      <trkpt lat="45.38076" lon="4.19477">
        <ele>664.4</ele>
        <time>2014-04-13T07:10:47Z</time>
      </trkpt>
      <trkpt lat="45.38076" lon="4.19477">
        <ele>656.6</ele>
        <time>2014-04-13T07:10:55Z</time>
      </trkpt>
      <trkpt lat="45.38076" lon="4.19477">
        <ele>656.6</ele>
        <time>2014-04-13T07:17:33Z</time>
      </trkpt>
      <trkpt lat="45.38097" lon="4.19458">
        <ele>661.9</ele>
        <time>2014-04-13T07:17:33Z</time>
      </trkpt>
      <trkpt lat="45.38116" lon="4.19422">
        <ele>663.7</ele>
        <time>2014-04-13T07:17:47Z</time>
      </trkpt>
      <trkpt lat="45.38125" lon="4.19405">
        <ele>665.6</ele>
        <time>2014-04-13T07:17:53Z</time>
      </trkpt>
      <trkpt lat="45.38131" lon="4.19387">
        <ele>666.8</ele>
        <time>2014-04-13T07:17:59Z</time>
      </trkpt>
      <trkpt lat="45.38138" lon="4.19371">
        <ele>669.3</ele>
        <time>2014-04-13T07:18:05Z</time>
      </trkpt>
      <trkpt lat="45.3815" lon="4.19344">
        <ele>673.2</ele>
        <time>2014-04-13T07:18:15Z</time>
      </trkpt>
      <trkpt lat="45.38165" lon="4.19316">
        <ele>677.3</ele>
        <time>2014-04-13T07:18:25Z</time>
      </trkpt>
      <trkpt lat="45.38179" lon="4.19287">
        <ele>680.4</ele>
        <time>2014-04-13T07:18:33Z</time>
      </trkpt>
      <trkpt lat="45.3819" lon="4.19255">
        <ele>684</ele>
        <time>2014-04-13T07:18:41Z</time>
      </trkpt>
      <trkpt lat="45.38196" lon="4.19231">
        <ele>686</ele>
        <time>2014-04-13T07:18:47Z</time>
      </trkpt>
      <trkpt lat="45.38204" lon="4.19205">
        <ele>689.4</ele>
        <time>2014-04-13T07:18:55Z</time>
      </trkpt>
      <trkpt lat="45.38207" lon="4.19185">
        <ele>692.7</ele>
        <time>2014-04-13T07:19:04Z</time>
      </trkpt>
      <trkpt lat="45.38209" lon="4.19163">
        <ele>697.8</ele>
        <time>2014-04-13T07:19:15Z</time>
      </trkpt>
      <trkpt lat="45.38208" lon="4.19136">
        <ele>701.3</ele>
        <time>2014-04-13T07:19:27Z</time>
      </trkpt>
      <trkpt lat="45.38204" lon="4.19107">
        <ele>707.2</ele>
        <time>2014-04-13T07:19:39Z</time>
      </trkpt>
      <trkpt lat="45.38209" lon="4.19081">
        <ele>712.4</ele>
        <time>2014-04-13T07:19:51Z</time>
      </trkpt>
      <trkpt lat="45.3822" lon="4.19062">
        <ele>719.6</ele>
        <time>2014-04-13T07:20:05Z</time>
      </trkpt>
      <trkpt lat="45.38239" lon="4.19041">
        <ele>722.1</ele>
        <time>2014-04-13T07:20:15Z</time>
      </trkpt>
      <trkpt lat="45.38261" lon="4.19026">
        <ele>720.4</ele>
        <time>2014-04-13T07:20:25Z</time>
      </trkpt>
      <trkpt lat="45.38292" lon="4.19012">
        <ele>716.7</ele>
        <time>2014-04-13T07:20:33Z</time>
      </trkpt>
      <trkpt lat="45.38312" lon="4.18999">
        <ele>712.7</ele>
        <time>2014-04-13T07:20:39Z</time>
      </trkpt>
      <trkpt lat="45.38326" lon="4.18982">
        <ele>708.8</ele>
        <time>2014-04-13T07:20:45Z</time>
      </trkpt>
      <trkpt lat="45.3834" lon="4.18967">
        <ele>706.3</ele>
        <time>2014-04-13T07:20:51Z</time>
      </trkpt>
      <trkpt lat="45.38362" lon="4.18946">
        <ele>706.5</ele>
        <time>2014-04-13T07:21:01Z</time>
      </trkpt>
      <trkpt lat="45.38374" lon="4.18929">
        <ele>707.6</ele>
        <time>2014-04-13T07:21:09Z</time>
      </trkpt>
      <trkpt lat="45.38381" lon="4.18896">
        <ele>710.5</ele>
        <time>2014-04-13T07:21:21Z</time>
      </trkpt>
      <trkpt lat="45.38388" lon="4.18864">
        <ele>713.5</ele>
        <time>2014-04-13T07:21:33Z</time>
      </trkpt>
      <trkpt lat="45.38391" lon="4.18839">
        <ele>715.4</ele>
        <time>2014-04-13T07:21:43Z</time>
      </trkpt>
      <trkpt lat="45.384" lon="4.18813">
        <ele>718</ele>
        <time>2014-04-13T07:21:55Z</time>
      </trkpt>
      <trkpt lat="45.38412" lon="4.18789">
        <ele>722</ele>
        <time>2014-04-13T07:22:07Z</time>
      </trkpt>
      <trkpt lat="45.38421" lon="4.18769">
        <ele>724</ele>
        <time>2014-04-13T07:22:19Z</time>
      </trkpt>
      <trkpt lat="45.38438" lon="4.18745">
        <ele>727.5</ele>
        <time>2014-04-13T07:22:35Z</time>
      </trkpt>
      <trkpt lat="45.38452" lon="4.18732">
        <ele>729.7</ele>
        <time>2014-04-13T07:22:45Z</time>
      </trkpt>
      <trkpt lat="45.38461" lon="4.18724">
        <ele>732.2</ele>
        <time>2014-04-13T07:22:53Z</time>
      </trkpt>
      <trkpt lat="45.38477" lon="4.18709">
        <ele>737</ele>
        <time>2014-04-13T07:23:05Z</time>
      </trkpt>
      <trkpt lat="45.3849" lon="4.18688">
        <ele>738.8</ele>
        <time>2014-04-13T07:23:17Z</time>
      </trkpt>
      <trkpt lat="45.38508" lon="4.1869">
        <ele>741</ele>
        <time>2014-04-13T07:23:27Z</time>
      </trkpt>
      <trkpt lat="45.38527" lon="4.18687">
        <ele>746.2</ele>
        <time>2014-04-13T07:23:39Z</time>
      </trkpt>
      <trkpt lat="45.38541" lon="4.18672">
        <ele>753.3</ele>
        <time>2014-04-13T07:23:51Z</time>
      </trkpt>
      <trkpt lat="45.38557" lon="4.18652">
        <ele>758.9</ele>
        <time>2014-04-13T07:24:03Z</time>
      </trkpt>
      <trkpt lat="45.38571" lon="4.1863">
        <ele>763.3</ele>
        <time>2014-04-13T07:24:13Z</time>
      </trkpt>
      <trkpt lat="45.38586" lon="4.18612">
        <ele>769.1</ele>
        <time>2014-04-13T07:24:25Z</time>
      </trkpt>
      <trkpt lat="45.38602" lon="4.18579">
        <ele>777</ele>
        <time>2014-04-13T07:24:39Z</time>
      </trkpt>
      <trkpt lat="45.38605" lon="4.18552">
        <ele>779.1</ele>
        <time>2014-04-13T07:24:49Z</time>
      </trkpt>
      <trkpt lat="45.38614" lon="4.18522">
        <ele>778.1</ele>
        <time>2014-04-13T07:25:01Z</time>
      </trkpt>
      <trkpt lat="45.38629" lon="4.18499">
        <ele>777.5</ele>
        <time>2014-04-13T07:25:13Z</time>
      </trkpt>
      <trkpt lat="45.38649" lon="4.18484">
        <ele>776</ele>
        <time>2014-04-13T07:25:24Z</time>
      </trkpt>
      <trkpt lat="45.38659" lon="4.18472">
        <ele>774.6</ele>
        <time>2014-04-13T07:25:31Z</time>
      </trkpt>
      <trkpt lat="45.38677" lon="4.18461">
        <ele>773.4</ele>
        <time>2014-04-13T07:25:41Z</time>
      </trkpt>
      <trkpt lat="45.38695" lon="4.18449">
        <ele>773</ele>
        <time>2014-04-13T07:25:51Z</time>
      </trkpt>
      <trkpt lat="45.38712" lon="4.18435">
        <ele>773.3</ele>
        <time>2014-04-13T07:26:01Z</time>
      </trkpt>
      <trkpt lat="45.38729" lon="4.18415">
        <ele>774.3</ele>
        <time>2014-04-13T07:26:11Z</time>
      </trkpt>
      <trkpt lat="45.38736" lon="4.18396">
        <ele>774</ele>
        <time>2014-04-13T07:26:19Z</time>
      </trkpt>
      <trkpt lat="45.38739" lon="4.18381">
        <ele>775.6</ele>
        <time>2014-04-13T07:26:25Z</time>
      </trkpt>
      <trkpt lat="45.38739" lon="4.18381">
        <ele>770.7</ele>
        <time>2014-04-13T07:26:35Z</time>
      </trkpt>
      <trkpt lat="45.38739" lon="4.18381">
        <ele>770.7</ele>
        <time>2014-04-13T07:31:15Z</time>
      </trkpt>
      <trkpt lat="45.3873" lon="4.18359">
        <ele>774.4</ele>
        <time>2014-04-13T07:31:15Z</time>
      </trkpt>
      <trkpt lat="45.38724" lon="4.18345">
        <ele>774.8</ele>
        <time>2014-04-13T07:31:21Z</time>
      </trkpt>
      <trkpt lat="45.38715" lon="4.18328">
        <ele>775.9</ele>
        <time>2014-04-13T07:31:30Z</time>
      </trkpt>
      <trkpt lat="45.38701" lon="4.18306">
        <ele>778.1</ele>
        <time>2014-04-13T07:31:43Z</time>
      </trkpt>
      <trkpt lat="45.38686" lon="4.18286">
        <ele>779.7</ele>
        <time>2014-04-13T07:31:55Z</time>
      </trkpt>
      <trkpt lat="45.3867" lon="4.18267">
        <ele>782.8</ele>
        <time>2014-04-13T07:32:07Z</time>
      </trkpt>
      <trkpt lat="45.38653" lon="4.1825">
        <ele>784.7</ele>
        <time>2014-04-13T07:32:17Z</time>
      </trkpt>
      <trkpt lat="45.38642" lon="4.18237">
        <ele>785.3</ele>
        <time>2014-04-13T07:32:23Z</time>
      </trkpt>
      <trkpt lat="45.3863" lon="4.18225">
        <ele>785.5</ele>
        <time>2014-04-13T07:32:29Z</time>
      </trkpt>
      <trkpt lat="45.38607" lon="4.18201">
        <ele>786.9</ele>
        <time>2014-04-13T07:32:39Z</time>
      </trkpt>
      <trkpt lat="45.38585" lon="4.18173">
        <ele>787.8</ele>
        <time>2014-04-13T07:32:47Z</time>
      </trkpt>
      <trkpt lat="45.3857" lon="4.18152">
        <ele>787.5</ele>
        <time>2014-04-13T07:32:53Z</time>
      </trkpt>
      <trkpt lat="45.38561" lon="4.18139">
        <ele>786.9</ele>
        <time>2014-04-13T07:32:59Z</time>
      </trkpt>
      <trkpt lat="45.38562" lon="4.18123">
        <ele>786.6</ele>
        <time>2014-04-13T07:33:07Z</time>
      </trkpt>
      <trkpt lat="45.38586" lon="4.18112">
        <ele>788.2</ele>
        <time>2014-04-13T07:33:21Z</time>
      </trkpt>
      <trkpt lat="45.38609" lon="4.18105">
        <ele>790.6</ele>
        <time>2014-04-13T07:33:35Z</time>
      </trkpt>
      <trkpt lat="45.38629" lon="4.18099">
        <ele>793.8</ele>
        <time>2014-04-13T07:33:47Z</time>
      </trkpt>
      <trkpt lat="45.38646" lon="4.18095">
        <ele>796.5</ele>
        <time>2014-04-13T07:33:57Z</time>
      </trkpt>
      <trkpt lat="45.3867" lon="4.18089">
        <ele>801</ele>
        <time>2014-04-13T07:34:11Z</time>
      </trkpt>
      <trkpt lat="45.38693" lon="4.18073">
        <ele>804.8</ele>
        <time>2014-04-13T07:34:25Z</time>
      </trkpt>
      <trkpt lat="45.38708" lon="4.18036">
        <ele>806.5</ele>
        <time>2014-04-13T07:34:39Z</time>
      </trkpt>
      <trkpt lat="45.38724" lon="4.18007">
        <ele>807.6</ele>
        <time>2014-04-13T07:34:49Z</time>
      </trkpt>
      <trkpt lat="45.38734" lon="4.17991">
        <ele>808</ele>
        <time>2014-04-13T07:34:55Z</time>
      </trkpt>
      <trkpt lat="45.3875" lon="4.17972">
        <ele>809</ele>
        <time>2014-04-13T07:35:03Z</time>
      </trkpt>
      <trkpt lat="45.38766" lon="4.17954">
        <ele>808.5</ele>
        <time>2014-04-13T07:35:11Z</time>
      </trkpt>
      <trkpt lat="45.38781" lon="4.17937">
        <ele>809.4</ele>
        <time>2014-04-13T07:35:19Z</time>
      </trkpt>
      <trkpt lat="45.3879" lon="4.1791">
        <ele>811.8</ele>
        <time>2014-04-13T07:35:29Z</time>
      </trkpt>
      <trkpt lat="45.38795" lon="4.17891">
        <ele>814.4</ele>
        <time>2014-04-13T07:35:36Z</time>
      </trkpt>
      <trkpt lat="45.38802" lon="4.17868">
        <ele>816.3</ele>
        <time>2014-04-13T07:35:45Z</time>
      </trkpt>
      <trkpt lat="45.38806" lon="4.17853">
        <ele>816.5</ele>
        <time>2014-04-13T07:35:51Z</time>
      </trkpt>
      <trkpt lat="45.3881" lon="4.17833">
        <ele>818</ele>
        <time>2014-04-13T07:35:59Z</time>
      </trkpt>
      <trkpt lat="45.38822" lon="4.17811">
        <ele>820.1</ele>
        <time>2014-04-13T07:36:11Z</time>
      </trkpt>
      <trkpt lat="45.38845" lon="4.1778">
        <ele>817.6</ele>
        <time>2014-04-13T07:36:22Z</time>
      </trkpt>
      <trkpt lat="45.38867" lon="4.17761">
        <ele>817.3</ele>
        <time>2014-04-13T07:36:27Z</time>
      </trkpt>
      <trkpt lat="45.3888" lon="4.17734">
        <ele>817.1</ele>
        <time>2014-04-13T07:36:33Z</time>
      </trkpt>
      <trkpt lat="45.38888" lon="4.17701">
        <ele>817.2</ele>
        <time>2014-04-13T07:36:39Z</time>
      </trkpt>
      <trkpt lat="45.38902" lon="4.17672">
        <ele>816.5</ele>
        <time>2014-04-13T07:36:45Z</time>
      </trkpt>
      <trkpt lat="45.3893" lon="4.1766">
        <ele>816.4</ele>
        <time>2014-04-13T07:36:53Z</time>
      </trkpt>
      <trkpt lat="45.38949" lon="4.17651">
        <ele>817.4</ele>
        <time>2014-04-13T07:36:59Z</time>
      </trkpt>
      <trkpt lat="45.38965" lon="4.17647">
        <ele>818.4</ele>
        <time>2014-04-13T07:37:05Z</time>
      </trkpt>
      <trkpt lat="45.38974" lon="4.17614">
        <ele>820.7</ele>
        <time>2014-04-13T07:37:15Z</time>
      </trkpt>
      <trkpt lat="45.38956" lon="4.17595">
        <ele>822.1</ele>
        <time>2014-04-13T07:37:23Z</time>
      </trkpt>
      <trkpt lat="45.38943" lon="4.17564">
        <ele>821.9</ele>
        <time>2014-04-13T07:37:31Z</time>
      </trkpt>
      <trkpt lat="45.38929" lon="4.17537">
        <ele>822.5</ele>
        <time>2014-04-13T07:37:39Z</time>
      </trkpt>
      <trkpt lat="45.38893" lon="4.17524">
        <ele>821.5</ele>
        <time>2014-04-13T07:37:46Z</time>
      </trkpt>
      <trkpt lat="45.38837" lon="4.17479">
        <ele>817.4</ele>
        <time>2014-04-13T07:37:54Z</time>
      </trkpt>
      <trkpt lat="45.38802" lon="4.17446">
        <ele>811.8</ele>
        <time>2014-04-13T07:37:59Z</time>
      </trkpt>
      <trkpt lat="45.38793" lon="4.17387">
        <ele>806.8</ele>
        <time>2014-04-13T07:38:04Z</time>
      </trkpt>
      <trkpt lat="45.38785" lon="4.17341">
        <ele>803.3</ele>
        <time>2014-04-13T07:38:09Z</time>
      </trkpt>
      <trkpt lat="45.38745" lon="4.17326">
        <ele>796.7</ele>
        <time>2014-04-13T07:38:15Z</time>
      </trkpt>
      <trkpt lat="45.38712" lon="4.17296">
        <ele>790.1</ele>
        <time>2014-04-13T07:38:21Z</time>
      </trkpt>
      <trkpt lat="45.38712" lon="4.17236">
        <ele>784</ele>
        <time>2014-04-13T07:38:27Z</time>
      </trkpt>
      <trkpt lat="45.38696" lon="4.17138">
        <ele>776.5</ele>
        <time>2014-04-13T07:38:34Z</time>
      </trkpt>
      <trkpt lat="45.38697" lon="4.17031">
        <ele>769</ele>
        <time>2014-04-13T07:38:41Z</time>
      </trkpt>
      <trkpt lat="45.38673" lon="4.1695">
        <ele>762.4</ele>
        <time>2014-04-13T07:38:47Z</time>
      </trkpt>
      <trkpt lat="45.38622" lon="4.16878">
        <ele>755.1</ele>
        <time>2014-04-13T07:38:54Z</time>
      </trkpt>
      <trkpt lat="45.386" lon="4.16834">
        <ele>751.4</ele>
        <time>2014-04-13T07:38:59Z</time>
      </trkpt>
      <trkpt lat="45.38587" lon="4.16776">
        <ele>748.6</ele>
        <time>2014-04-13T07:39:04Z</time>
      </trkpt>
      <trkpt lat="45.38559" lon="4.16714">
        <ele>746</ele>
        <time>2014-04-13T07:39:11Z</time>
      </trkpt>
      <trkpt lat="45.38535" lon="4.16651">
        <ele>743.8</ele>
        <time>2014-04-13T07:39:17Z</time>
      </trkpt>
      <trkpt lat="45.38521" lon="4.16579">
        <ele>740.3</ele>
        <time>2014-04-13T07:39:23Z</time>
      </trkpt>
      <trkpt lat="45.3847" lon="4.16572">
        <ele>736.6</ele>
        <time>2014-04-13T07:39:31Z</time>
      </trkpt>
      <trkpt lat="45.38444" lon="4.16585">
        <ele>734.1</ele>
        <time>2014-04-13T07:39:37Z</time>
      </trkpt>
      <trkpt lat="45.38427" lon="4.16588">
        <ele>732.1</ele>
        <time>2014-04-13T07:39:44Z</time>
      </trkpt>
      <trkpt lat="45.38411" lon="4.16568">
        <ele>731.3</ele>
        <time>2014-04-13T07:39:53Z</time>
      </trkpt>
      <trkpt lat="45.38391" lon="4.16553">
        <ele>732.6</ele>
        <time>2014-04-13T07:40:01Z</time>
      </trkpt>
      <trkpt lat="45.38381" lon="4.16551">
        <ele>735.6</ele>
        <time>2014-04-13T07:40:09Z</time>
      </trkpt>
      <trkpt lat="45.38361" lon="4.16526">
        <ele>744.2</ele>
        <time>2014-04-13T07:40:29Z</time>
      </trkpt>
      <trkpt lat="45.38355" lon="4.16507">
        <ele>749.4</ele>
        <time>2014-04-13T07:40:41Z</time>
      </trkpt>
      <trkpt lat="45.38342" lon="4.16488">
        <ele>757.9</ele>
        <time>2014-04-13T07:40:59Z</time>
      </trkpt>
      <trkpt lat="45.38325" lon="4.16467">
        <ele>764.8</ele>
        <time>2014-04-13T07:41:15Z</time>
      </trkpt>
      <trkpt lat="45.38313" lon="4.16449">
        <ele>770.4</ele>
        <time>2014-04-13T07:41:27Z</time>
      </trkpt>
      <trkpt lat="45.38298" lon="4.16436">
        <ele>777.8</ele>
        <time>2014-04-13T07:41:41Z</time>
      </trkpt>
      <trkpt lat="45.38275" lon="4.16435">
        <ele>784.4</ele>
        <time>2014-04-13T07:41:57Z</time>
      </trkpt>
      <trkpt lat="45.38248" lon="4.16443">
        <ele>789.6</ele>
        <time>2014-04-13T07:42:11Z</time>
      </trkpt>
      <trkpt lat="45.38229" lon="4.16453">
        <ele>792.4</ele>
        <time>2014-04-13T07:42:21Z</time>
      </trkpt>
      <trkpt lat="45.38216" lon="4.16457">
        <ele>792.6</ele>
        <time>2014-04-13T07:42:27Z</time>
      </trkpt>
      <trkpt lat="45.38201" lon="4.16444">
        <ele>791.6</ele>
        <time>2014-04-13T07:42:37Z</time>
      </trkpt>
      <trkpt lat="45.3819" lon="4.16416">
        <ele>789.3</ele>
        <time>2014-04-13T07:42:47Z</time>
      </trkpt>
      <trkpt lat="45.38183" lon="4.16395">
        <ele>788.8</ele>
        <time>2014-04-13T07:42:53Z</time>
      </trkpt>
      <trkpt lat="45.38177" lon="4.16373">
        <ele>788.2</ele>
        <time>2014-04-13T07:42:59Z</time>
      </trkpt>
      <trkpt lat="45.38173" lon="4.16351">
        <ele>788.2</ele>
        <time>2014-04-13T07:43:05Z</time>
      </trkpt>
      <trkpt lat="45.38167" lon="4.16321">
        <ele>787.6</ele>
        <time>2014-04-13T07:43:13Z</time>
      </trkpt>
      <trkpt lat="45.38164" lon="4.16299">
        <ele>787.2</ele>
        <time>2014-04-13T07:43:19Z</time>
      </trkpt>
      <trkpt lat="45.38158" lon="4.16272">
        <ele>788.8</ele>
        <time>2014-04-13T07:43:27Z</time>
      </trkpt>
      <trkpt lat="45.38149" lon="4.16242">
        <ele>791.7</ele>
        <time>2014-04-13T07:43:36Z</time>
      </trkpt>
      <trkpt lat="45.38138" lon="4.16213">
        <ele>792.7</ele>
        <time>2014-04-13T07:43:45Z</time>
      </trkpt>
      <trkpt lat="45.38124" lon="4.16189">
        <ele>792.7</ele>
        <time>2014-04-13T07:43:53Z</time>
      </trkpt>
      <trkpt lat="45.38114" lon="4.16176">
        <ele>792.2</ele>
        <time>2014-04-13T07:43:59Z</time>
      </trkpt>
      <trkpt lat="45.38108" lon="4.16164">
        <ele>792.6</ele>
        <time>2014-04-13T07:44:04Z</time>
      </trkpt>
      <trkpt lat="45.381" lon="4.16163">
        <ele>792.8</ele>
        <time>2014-04-13T07:44:11Z</time>
      </trkpt>
      <trkpt lat="45.381" lon="4.16163">
        <ele>792.8</ele>
        <time>2014-04-13T07:44:19Z</time>
      </trkpt>
      <trkpt lat="45.381" lon="4.16163">
        <ele>792.2</ele>
        <time>2014-04-13T07:44:19Z</time>
      </trkpt>
      <trkpt lat="45.381" lon="4.16163">
        <ele>792.2</ele>
        <time>2014-04-13T07:47:49Z</time>
      </trkpt>
      <trkpt lat="45.38093" lon="4.16242">
        <ele>792.2</ele>
        <time>2014-04-13T07:47:49Z</time>
      </trkpt>
      <trkpt lat="45.38076" lon="4.1635">
        <ele>784.1</ele>
        <time>2014-04-13T07:47:57Z</time>
      </trkpt>
      <trkpt lat="45.38059" lon="4.16432">
        <ele>776.2</ele>
        <time>2014-04-13T07:48:03Z</time>
      </trkpt>
      <trkpt lat="45.38011" lon="4.16546">
        <ele>762.7</ele>
        <time>2014-04-13T07:48:13Z</time>
      </trkpt>
      <trkpt lat="45.37969" lon="4.16635">
        <ele>752.4</ele>
        <time>2014-04-13T07:48:21Z</time>
      </trkpt>
      <trkpt lat="45.37924" lon="4.16679">
        <ele>746.6</ele>
        <time>2014-04-13T07:48:27Z</time>
      </trkpt>
      <trkpt lat="45.37875" lon="4.16707">
        <ele>740.6</ele>
        <time>2014-04-13T07:48:33Z</time>
      </trkpt>
      <trkpt lat="45.3783" lon="4.16729">
        <ele>733.6</ele>
        <time>2014-04-13T07:48:39Z</time>
      </trkpt>
      <trkpt lat="45.37792" lon="4.16772">
        <ele>725.4</ele>
        <time>2014-04-13T07:48:45Z</time>
      </trkpt>
      <trkpt lat="45.37778" lon="4.16818">
        <ele>716.7</ele>
        <time>2014-04-13T07:48:51Z</time>
      </trkpt>
      <trkpt lat="45.3778" lon="4.16854">
        <ele>708.7</ele>
        <time>2014-04-13T07:48:57Z</time>
      </trkpt>
      <trkpt lat="45.37778" lon="4.16897">
        <ele>700.3</ele>
        <time>2014-04-13T07:49:05Z</time>
      </trkpt>
      <trkpt lat="45.37751" lon="4.16917">
        <ele>693.4</ele>
        <time>2014-04-13T07:49:13Z</time>
      </trkpt>
      <trkpt lat="45.37717" lon="4.16915">
        <ele>689.2</ele>
        <time>2014-04-13T07:49:19Z</time>
      </trkpt>
      <trkpt lat="45.37689" lon="4.16912">
        <ele>684.4</ele>
        <time>2014-04-13T07:49:25Z</time>
      </trkpt>
      <trkpt lat="45.37685" lon="4.16938">
        <ele>679.5</ele>
        <time>2014-04-13T07:49:31Z</time>
      </trkpt>
      <trkpt lat="45.37717" lon="4.16996">
        <ele>672.1</ele>
        <time>2014-04-13T07:49:41Z</time>
      </trkpt>
      <trkpt lat="45.37722" lon="4.17038">
        <ele>668.1</ele>
        <time>2014-04-13T07:49:47Z</time>
      </trkpt>
      <trkpt lat="45.37692" lon="4.17053">
        <ele>664.1</ele>
        <time>2014-04-13T07:49:53Z</time>
      </trkpt>
      <trkpt lat="45.37664" lon="4.17051">
        <ele>659</ele>
        <time>2014-04-13T07:49:59Z</time>
      </trkpt>
      <trkpt lat="45.37637" lon="4.1706">
        <ele>649.5</ele>
        <time>2014-04-13T07:50:11Z</time>
      </trkpt>
      <trkpt lat="45.37623" lon="4.17087">
        <ele>645.6</ele>
        <time>2014-04-13T07:50:17Z</time>
      </trkpt>
      <trkpt lat="45.37628" lon="4.17107">
        <ele>642.5</ele>
        <time>2014-04-13T07:50:23Z</time>
      </trkpt>
      <trkpt lat="45.37645" lon="4.17155">
        <ele>635.9</ele>
        <time>2014-04-13T07:50:33Z</time>
      </trkpt>
      <trkpt lat="45.37668" lon="4.17183">
        <ele>630.8</ele>
        <time>2014-04-13T07:50:39Z</time>
      </trkpt>
      <trkpt lat="45.37689" lon="4.17203">
        <ele>626.6</ele>
        <time>2014-04-13T07:50:45Z</time>
      </trkpt>
      <trkpt lat="45.37711" lon="4.1722">
        <ele>621.6</ele>
        <time>2014-04-13T07:50:51Z</time>
      </trkpt>
      <trkpt lat="45.37733" lon="4.1723">
        <ele>616.8</ele>
        <time>2014-04-13T07:50:57Z</time>
      </trkpt>
      <trkpt lat="45.37753" lon="4.17242">
        <ele>611</ele>
        <time>2014-04-13T07:51:03Z</time>
      </trkpt>
      <trkpt lat="45.37752" lon="4.17251">
        <ele>604</ele>
        <time>2014-04-13T07:51:11Z</time>
      </trkpt>
      <trkpt lat="45.37752" lon="4.17251">
        <ele>578.7</ele>
        <time>2014-04-13T07:51:19Z</time>
      </trkpt>
      <trkpt lat="45.37752" lon="4.17251">
        <ele>578.7</ele>
        <time>2014-04-13T07:53:53Z</time>
      </trkpt>
      <trkpt lat="45.37737" lon="4.17264">
        <ele>601.2</ele>
        <time>2014-04-13T07:53:53Z</time>
      </trkpt>
      <trkpt lat="45.37704" lon="4.17273">
        <ele>600</ele>
        <time>2014-04-13T07:53:59Z</time>
      </trkpt>
      <trkpt lat="45.3768" lon="4.17277">
        <ele>598.7</ele>
        <time>2014-04-13T07:54:05Z</time>
      </trkpt>
      <trkpt lat="45.37667" lon="4.17278">
        <ele>598</ele>
        <time>2014-04-13T07:54:11Z</time>
      </trkpt>
      <trkpt lat="45.37656" lon="4.17282">
        <ele>597.3</ele>
        <time>2014-04-13T07:54:17Z</time>
      </trkpt>
      <trkpt lat="45.37632" lon="4.17266">
        <ele>596.9</ele>
        <time>2014-04-13T07:54:25Z</time>
      </trkpt>
      <trkpt lat="45.37614" lon="4.17257">
        <ele>597.2</ele>
        <time>2014-04-13T07:54:31Z</time>
      </trkpt>
      <trkpt lat="45.37589" lon="4.17249">
        <ele>596.6</ele>
        <time>2014-04-13T07:54:41Z</time>
      </trkpt>
      <trkpt lat="45.37576" lon="4.17244">
        <ele>596.8</ele>
        <time>2014-04-13T07:54:47Z</time>
      </trkpt>
      <trkpt lat="45.37544" lon="4.17247">
        <ele>597.2</ele>
        <time>2014-04-13T07:54:55Z</time>
      </trkpt>
      <trkpt lat="45.37527" lon="4.17271">
        <ele>596.3</ele>
        <time>2014-04-13T07:55:03Z</time>
      </trkpt>
      <trkpt lat="45.37511" lon="4.1729">
        <ele>594.3</ele>
        <time>2014-04-13T07:55:13Z</time>
      </trkpt>
      <trkpt lat="45.3746" lon="4.17322">
        <ele>591.9</ele>
        <time>2014-04-13T07:55:25Z</time>
      </trkpt>
      <trkpt lat="45.37438" lon="4.17349">
        <ele>589.6</ele>
        <time>2014-04-13T07:55:31Z</time>
      </trkpt>
      <trkpt lat="45.37412" lon="4.17374">
        <ele>585.7</ele>
        <time>2014-04-13T07:55:37Z</time>
      </trkpt>
      <trkpt lat="45.37395" lon="4.17396">
        <ele>580.7</ele>
        <time>2014-04-13T07:55:45Z</time>
      </trkpt>
      <trkpt lat="45.37377" lon="4.17419">
        <ele>573.8</ele>
        <time>2014-04-13T07:55:57Z</time>
      </trkpt>
      <trkpt lat="45.37359" lon="4.17438">
        <ele>570.4</ele>
        <time>2014-04-13T07:56:05Z</time>
      </trkpt>
      <trkpt lat="45.37347" lon="4.17463">
        <ele>568.8</ele>
        <time>2014-04-13T07:56:13Z</time>
      </trkpt>
      <trkpt lat="45.37326" lon="4.17522">
        <ele>566.6</ele>
        <time>2014-04-13T07:56:21Z</time>
      </trkpt>
      <trkpt lat="45.37303" lon="4.17549">
        <ele>562</ele>
        <time>2014-04-13T07:56:29Z</time>
      </trkpt>
      <trkpt lat="45.37289" lon="4.17569">
        <ele>560.2</ele>
        <time>2014-04-13T07:56:39Z</time>
      </trkpt>
      <trkpt lat="45.37288" lon="4.17598">
        <ele>558.9</ele>
        <time>2014-04-13T07:56:45Z</time>
      </trkpt>
      <trkpt lat="45.37283" lon="4.17629">
        <ele>556.2</ele>
        <time>2014-04-13T07:56:51Z</time>
      </trkpt>
      <trkpt lat="45.37277" lon="4.17646">
        <ele>554.3</ele>
        <time>2014-04-13T07:56:59Z</time>
      </trkpt>
      <trkpt lat="45.37282" lon="4.17677">
        <ele>552.7</ele>
        <time>2014-04-13T07:57:07Z</time>
      </trkpt>
      <trkpt lat="45.3729" lon="4.17692">
        <ele>550.4</ele>
        <time>2014-04-13T07:57:13Z</time>
      </trkpt>
      <trkpt lat="45.37292" lon="4.177">
        <ele>549.7</ele>
        <time>2014-04-13T07:57:17Z</time>
      </trkpt>
      <trkpt lat="45.37292" lon="4.177">
        <ele>528.7</ele>
        <time>2014-04-13T07:57:25Z</time>
      </trkpt>
      <trkpt lat="45.37292" lon="4.177">
        <ele>528.7</ele>
        <time>2014-04-13T07:58:15Z</time>
      </trkpt>
      <trkpt lat="45.37279" lon="4.17727">
        <ele>548.2</ele>
        <time>2014-04-13T07:58:15Z</time>
      </trkpt>
      <trkpt lat="45.37278" lon="4.17779">
        <ele>549.1</ele>
        <time>2014-04-13T07:58:23Z</time>
      </trkpt>
      <trkpt lat="45.37274" lon="4.1782">
        <ele>548.9</ele>
        <time>2014-04-13T07:58:29Z</time>
      </trkpt>
      <trkpt lat="45.37264" lon="4.17872">
        <ele>546.5</ele>
        <time>2014-04-13T07:58:35Z</time>
      </trkpt>
      <trkpt lat="45.37246" lon="4.17921">
        <ele>544.3</ele>
        <time>2014-04-13T07:58:41Z</time>
      </trkpt>
      <trkpt lat="45.37234" lon="4.1795">
        <ele>540.5</ele>
        <time>2014-04-13T07:58:47Z</time>
      </trkpt>
      <trkpt lat="45.37226" lon="4.17968">
        <ele>536.4</ele>
        <time>2014-04-13T07:58:53Z</time>
      </trkpt>
      <trkpt lat="45.37216" lon="4.17986">
        <ele>532.1</ele>
        <time>2014-04-13T07:58:59Z</time>
      </trkpt>
      <trkpt lat="45.3721" lon="4.18009">
        <ele>529.5</ele>
        <time>2014-04-13T07:59:07Z</time>
      </trkpt>
      <trkpt lat="45.37209" lon="4.18018">
        <ele>528.5</ele>
        <time>2014-04-13T07:59:11Z</time>
      </trkpt>
      <trkpt lat="45.37209" lon="4.18018">
        <ele>514.7</ele>
        <time>2014-04-13T07:59:17Z</time>
      </trkpt>
      <trkpt lat="45.37209" lon="4.18018">
        <ele>514.7</ele>
        <time>2014-04-13T08:00:23Z</time>
      </trkpt>
      <trkpt lat="45.37214" lon="4.18053">
        <ele>524.8</ele>
        <time>2014-04-13T08:00:23Z</time>
      </trkpt>
      <trkpt lat="45.37212" lon="4.18082">
        <ele>524.7</ele>
        <time>2014-04-13T08:00:29Z</time>
      </trkpt>
      <trkpt lat="45.37203" lon="4.1812">
        <ele>525.9</ele>
        <time>2014-04-13T08:00:35Z</time>
      </trkpt>
      <trkpt lat="45.3719" lon="4.18153">
        <ele>523.5</ele>
        <time>2014-04-13T08:00:41Z</time>
      </trkpt>
      <trkpt lat="45.37177" lon="4.18185">
        <ele>522.7</ele>
        <time>2014-04-13T08:00:47Z</time>
      </trkpt>
      <trkpt lat="45.37162" lon="4.18221">
        <ele>522.7</ele>
        <time>2014-04-13T08:00:53Z</time>
      </trkpt>
      <trkpt lat="45.3715" lon="4.1826">
        <ele>521.5</ele>
        <time>2014-04-13T08:00:59Z</time>
      </trkpt>
      <trkpt lat="45.37128" lon="4.18306">
        <ele>518</ele>
        <time>2014-04-13T08:01:05Z</time>
      </trkpt>
      <trkpt lat="45.37094" lon="4.1834">
        <ele>513</ele>
        <time>2014-04-13T08:01:11Z</time>
      </trkpt>
      <trkpt lat="45.37053" lon="4.18367">
        <ele>507.8</ele>
        <time>2014-04-13T08:01:21Z</time>
      </trkpt>
      <trkpt lat="45.37049" lon="4.18369">
        <ele>507.3</ele>
        <time>2014-04-13T08:01:23Z</time>
      </trkpt>
      <trkpt lat="45.37049" lon="4.18369">
        <ele>496</ele>
        <time>2014-04-13T08:01:31Z</time>
      </trkpt>
      <trkpt lat="45.37049" lon="4.18369">
        <ele>496</ele>
        <time>2014-04-13T08:01:41Z</time>
      </trkpt>
      <trkpt lat="45.37049" lon="4.18379">
        <ele>504</ele>
        <time>2014-04-13T08:01:41Z</time>
      </trkpt>
      <trkpt lat="45.37026" lon="4.18368">
        <ele>503.2</ele>
        <time>2014-04-13T08:02:02Z</time>
      </trkpt>
      <trkpt lat="45.3701" lon="4.18365">
        <ele>505.1</ele>
        <time>2014-04-13T08:02:15Z</time>
      </trkpt>
      <trkpt lat="45.36988" lon="4.18368">
        <ele>509</ele>
        <time>2014-04-13T08:02:31Z</time>
      </trkpt>
      <trkpt lat="45.36974" lon="4.18374">
        <ele>510.8</ele>
        <time>2014-04-13T08:02:41Z</time>
      </trkpt>
      <trkpt lat="45.36963" lon="4.1838">
        <ele>512</ele>
        <time>2014-04-13T08:02:51Z</time>
      </trkpt>
      <trkpt lat="45.36937" lon="4.18393">
        <ele>515.2</ele>
        <time>2014-04-13T08:03:06Z</time>
      </trkpt>
      <trkpt lat="45.36922" lon="4.18401">
        <ele>519</ele>
        <time>2014-04-13T08:03:21Z</time>
      </trkpt>
      <trkpt lat="45.36905" lon="4.184">
        <ele>524.3</ele>
        <time>2014-04-13T08:03:35Z</time>
      </trkpt>
      <trkpt lat="45.36885" lon="4.18395">
        <ele>529.1</ele>
        <time>2014-04-13T08:03:49Z</time>
      </trkpt>
      <trkpt lat="45.36856" lon="4.18403">
        <ele>532.1</ele>
        <time>2014-04-13T08:04:05Z</time>
      </trkpt>
      <trkpt lat="45.36839" lon="4.18413">
        <ele>534.6</ele>
        <time>2014-04-13T08:04:19Z</time>
      </trkpt>
      <trkpt lat="45.3683" lon="4.18435">
        <ele>536.9</ele>
        <time>2014-04-13T08:04:31Z</time>
      </trkpt>
      <trkpt lat="45.36807" lon="4.18464">
        <ele>537.9</ele>
        <time>2014-04-13T08:04:41Z</time>
      </trkpt>
      <trkpt lat="45.36791" lon="4.18474">
        <ele>538.4</ele>
        <time>2014-04-13T08:04:47Z</time>
      </trkpt>
      <trkpt lat="45.36779" lon="4.18482">
        <ele>538.8</ele>
        <time>2014-04-13T08:04:53Z</time>
      </trkpt>
      <trkpt lat="45.36764" lon="4.18489">
        <ele>538.3</ele>
        <time>2014-04-13T08:04:59Z</time>
      </trkpt>
      <trkpt lat="45.36749" lon="4.18497">
        <ele>538.3</ele>
        <time>2014-04-13T08:05:05Z</time>
      </trkpt>
      <trkpt lat="45.36739" lon="4.185">
        <ele>538.7</ele>
        <time>2014-04-13T08:05:09Z</time>
      </trkpt>
      <trkpt lat="45.36739" lon="4.185">
        <ele>521.5</ele>
        <time>2014-04-13T08:05:15Z</time>
      </trkpt>
      <trkpt lat="45.36739" lon="4.185">
        <ele>521.5</ele>
        <time>2014-04-13T08:05:39Z</time>
      </trkpt>
      <trkpt lat="45.36761" lon="4.18479">
        <ele>547.3</ele>
        <time>2014-04-13T08:05:39Z</time>
      </trkpt>
      <trkpt lat="45.36779" lon="4.1846">
        <ele>553.2</ele>
        <time>2014-04-13T08:05:57Z</time>
      </trkpt>
      <trkpt lat="45.36795" lon="4.18422">
        <ele>556.4</ele>
        <time>2014-04-13T08:06:15Z</time>
      </trkpt>
      <trkpt lat="45.36794" lon="4.18398">
        <ele>560.2</ele>
        <time>2014-04-13T08:06:29Z</time>
      </trkpt>
      <trkpt lat="45.36796" lon="4.18369">
        <ele>564.4</ele>
        <time>2014-04-13T08:06:43Z</time>
      </trkpt>
      <trkpt lat="45.36797" lon="4.18343">
        <ele>567.9</ele>
        <time>2014-04-13T08:06:57Z</time>
      </trkpt>
      <trkpt lat="45.36795" lon="4.18314">
        <ele>571.3</ele>
        <time>2014-04-13T08:07:11Z</time>
      </trkpt>
      <trkpt lat="45.36802" lon="4.18304">
        <ele>574.1</ele>
        <time>2014-04-13T08:07:21Z</time>
      </trkpt>
      <trkpt lat="45.36819" lon="4.18293">
        <ele>578.2</ele>
        <time>2014-04-13T08:07:37Z</time>
      </trkpt>
      <trkpt lat="45.36837" lon="4.18284">
        <ele>584.8</ele>
        <time>2014-04-13T08:07:51Z</time>
      </trkpt>
      <trkpt lat="45.36847" lon="4.1828">
        <ele>588.7</ele>
        <time>2014-04-13T08:07:59Z</time>
      </trkpt>
      <trkpt lat="45.36867" lon="4.18277">
        <ele>593.3</ele>
        <time>2014-04-13T08:08:13Z</time>
      </trkpt>
      <trkpt lat="45.36884" lon="4.1827">
        <ele>596.3</ele>
        <time>2014-04-13T08:08:25Z</time>
      </trkpt>
      <trkpt lat="45.36906" lon="4.1825">
        <ele>600.4</ele>
        <time>2014-04-13T08:08:43Z</time>
      </trkpt>
      <trkpt lat="45.36923" lon="4.18235">
        <ele>603.4</ele>
        <time>2014-04-13T08:08:57Z</time>
      </trkpt>
      <trkpt lat="45.36935" lon="4.18218">
        <ele>606.8</ele>
        <time>2014-04-13T08:09:07Z</time>
      </trkpt>
      <trkpt lat="45.36949" lon="4.18188">
        <ele>610.9</ele>
        <time>2014-04-13T08:09:21Z</time>
      </trkpt>
      <trkpt lat="45.36956" lon="4.18169">
        <ele>613</ele>
        <time>2014-04-13T08:09:31Z</time>
      </trkpt>
      <trkpt lat="45.36961" lon="4.18142">
        <ele>616.2</ele>
        <time>2014-04-13T08:09:45Z</time>
      </trkpt>
      <trkpt lat="45.3696" lon="4.18124">
        <ele>616.8</ele>
        <time>2014-04-13T08:09:53Z</time>
      </trkpt>
      <trkpt lat="45.36952" lon="4.181">
        <ele>617.4</ele>
        <time>2014-04-13T08:10:07Z</time>
      </trkpt>
      <trkpt lat="45.36933" lon="4.18073">
        <ele>619.7</ele>
        <time>2014-04-13T08:10:21Z</time>
      </trkpt>
      <trkpt lat="45.36924" lon="4.18044">
        <ele>622.4</ele>
        <time>2014-04-13T08:10:35Z</time>
      </trkpt>
      <trkpt lat="45.36925" lon="4.18018">
        <ele>623.3</ele>
        <time>2014-04-13T08:10:47Z</time>
      </trkpt>
      <trkpt lat="45.36937" lon="4.17995">
        <ele>624.3</ele>
        <time>2014-04-13T08:10:57Z</time>
      </trkpt>
      <trkpt lat="45.3695" lon="4.17968">
        <ele>624.8</ele>
        <time>2014-04-13T08:11:09Z</time>
      </trkpt>
      <trkpt lat="45.36961" lon="4.17934">
        <ele>623.9</ele>
        <time>2014-04-13T08:11:23Z</time>
      </trkpt>
      <trkpt lat="45.36971" lon="4.17912">
        <ele>623.2</ele>
        <time>2014-04-13T08:11:33Z</time>
      </trkpt>
      <trkpt lat="45.36973" lon="4.17881">
        <ele>624.8</ele>
        <time>2014-04-13T08:11:45Z</time>
      </trkpt>
      <trkpt lat="45.36975" lon="4.17844">
        <ele>626.8</ele>
        <time>2014-04-13T08:11:59Z</time>
      </trkpt>
      <trkpt lat="45.36981" lon="4.17813">
        <ele>630</ele>
        <time>2014-04-13T08:12:11Z</time>
      </trkpt>
      <trkpt lat="45.36984" lon="4.17786">
        <ele>632.3</ele>
        <time>2014-04-13T08:12:21Z</time>
      </trkpt>
      <trkpt lat="45.36988" lon="4.17754">
        <ele>634.7</ele>
        <time>2014-04-13T08:12:33Z</time>
      </trkpt>
      <trkpt lat="45.36989" lon="4.17727">
        <ele>636.2</ele>
        <time>2014-04-13T08:12:43Z</time>
      </trkpt>
      <trkpt lat="45.36994" lon="4.17698">
        <ele>637.5</ele>
        <time>2014-04-13T08:12:53Z</time>
      </trkpt>
      <trkpt lat="45.36997" lon="4.17681">
        <ele>638.7</ele>
        <time>2014-04-13T08:13:01Z</time>
      </trkpt>
      <trkpt lat="45.36998" lon="4.17656">
        <ele>641</ele>
        <time>2014-04-13T08:13:13Z</time>
      </trkpt>
      <trkpt lat="45.37005" lon="4.1763">
        <ele>644.6</ele>
        <time>2014-04-13T08:13:27Z</time>
      </trkpt>
      <trkpt lat="45.3701" lon="4.1761">
        <ele>646.8</ele>
        <time>2014-04-13T08:13:37Z</time>
      </trkpt>
      <trkpt lat="45.37012" lon="4.17582">
        <ele>649.9</ele>
        <time>2014-04-13T08:13:51Z</time>
      </trkpt>
      <trkpt lat="45.37017" lon="4.17548">
        <ele>655.4</ele>
        <time>2014-04-13T08:14:11Z</time>
      </trkpt>
      <trkpt lat="45.37016" lon="4.17518">
        <ele>661.8</ele>
        <time>2014-04-13T08:14:27Z</time>
      </trkpt>
      <trkpt lat="45.37029" lon="4.17498">
        <ele>667.3</ele>
        <time>2014-04-13T08:14:43Z</time>
      </trkpt>
      <trkpt lat="45.37043" lon="4.17488">
        <ele>672.5</ele>
        <time>2014-04-13T08:14:57Z</time>
      </trkpt>
      <trkpt lat="45.37036" lon="4.17459">
        <ele>675.5</ele>
        <time>2014-04-13T08:15:13Z</time>
      </trkpt>
      <trkpt lat="45.37033" lon="4.17436">
        <ele>679.1</ele>
        <time>2014-04-13T08:15:27Z</time>
      </trkpt>
      <trkpt lat="45.37039" lon="4.17408">
        <ele>683</ele>
        <time>2014-04-13T08:15:42Z</time>
      </trkpt>
      <trkpt lat="45.37043" lon="4.17379">
        <ele>685.1</ele>
        <time>2014-04-13T08:15:55Z</time>
      </trkpt>
      <trkpt lat="45.37046" lon="4.17355">
        <ele>688.9</ele>
        <time>2014-04-13T08:16:07Z</time>
      </trkpt>
      <trkpt lat="45.37049" lon="4.17329">
        <ele>692.5</ele>
        <time>2014-04-13T08:16:19Z</time>
      </trkpt>
      <trkpt lat="45.37049" lon="4.17329">
        <ele>692.5</ele>
        <time>2014-04-13T08:16:27Z</time>
      </trkpt>
      <trkpt lat="45.37049" lon="4.17329">
        <ele>684.6</ele>
        <time>2014-04-13T08:16:27Z</time>
      </trkpt>
      <trkpt lat="45.37049" lon="4.17329">
        <ele>684.6</ele>
        <time>2014-04-13T08:27:59Z</time>
      </trkpt>
      <trkpt lat="45.37052" lon="4.17289">
        <ele>689.4</ele>
        <time>2014-04-13T08:27:59Z</time>
      </trkpt>
      <trkpt lat="45.37053" lon="4.17255">
        <ele>688.9</ele>
        <time>2014-04-13T08:28:09Z</time>
      </trkpt>
      <trkpt lat="45.3705" lon="4.17197">
        <ele>688.3</ele>
        <time>2014-04-13T08:28:19Z</time>
      </trkpt>
      <trkpt lat="45.37044" lon="4.1715">
        <ele>688.3</ele>
        <time>2014-04-13T08:28:27Z</time>
      </trkpt>
      <trkpt lat="45.37042" lon="4.17127">
        <ele>689.9</ele>
        <time>2014-04-13T08:28:33Z</time>
      </trkpt>
      <trkpt lat="45.3704" lon="4.17109">
        <ele>691.6</ele>
        <time>2014-04-13T08:28:39Z</time>
      </trkpt>
      <trkpt lat="45.37027" lon="4.17083">
        <ele>696</ele>
        <time>2014-04-13T08:28:49Z</time>
      </trkpt>
      <trkpt lat="45.37024" lon="4.17053">
        <ele>698</ele>
        <time>2014-04-13T08:28:59Z</time>
      </trkpt>
      <trkpt lat="45.37039" lon="4.17035">
        <ele>697.8</ele>
        <time>2014-04-13T08:29:07Z</time>
      </trkpt>
      <trkpt lat="45.3705" lon="4.17001">
        <ele>699.3</ele>
        <time>2014-04-13T08:29:17Z</time>
      </trkpt>
      <trkpt lat="45.37056" lon="4.16966">
        <ele>699</ele>
        <time>2014-04-13T08:29:25Z</time>
      </trkpt>
      <trkpt lat="45.37057" lon="4.16943">
        <ele>699.1</ele>
        <time>2014-04-13T08:29:31Z</time>
      </trkpt>
      <trkpt lat="45.37044" lon="4.16907">
        <ele>700</ele>
        <time>2014-04-13T08:29:41Z</time>
      </trkpt>
      <trkpt lat="45.37037" lon="4.16888">
        <ele>700.2</ele>
        <time>2014-04-13T08:29:46Z</time>
      </trkpt>
      <trkpt lat="45.37019" lon="4.16847">
        <ele>701.4</ele>
        <time>2014-04-13T08:29:55Z</time>
      </trkpt>
      <trkpt lat="45.37006" lon="4.16805">
        <ele>702.4</ele>
        <time>2014-04-13T08:30:03Z</time>
      </trkpt>
      <trkpt lat="45.37004" lon="4.16774">
        <ele>701.6</ele>
        <time>2014-04-13T08:30:09Z</time>
      </trkpt>
      <trkpt lat="45.37005" lon="4.16741">
        <ele>700.4</ele>
        <time>2014-04-13T08:30:15Z</time>
      </trkpt>
      <trkpt lat="45.37015" lon="4.1671">
        <ele>701.5</ele>
        <time>2014-04-13T08:30:21Z</time>
      </trkpt>
      <trkpt lat="45.37026" lon="4.16685">
        <ele>703.4</ele>
        <time>2014-04-13T08:30:27Z</time>
      </trkpt>
      <trkpt lat="45.37037" lon="4.1666">
        <ele>704.1</ele>
        <time>2014-04-13T08:30:33Z</time>
      </trkpt>
      <trkpt lat="45.37047" lon="4.16634">
        <ele>705.3</ele>
        <time>2014-04-13T08:30:39Z</time>
      </trkpt>
      <trkpt lat="45.37064" lon="4.16619">
        <ele>707.3</ele>
        <time>2014-04-13T08:30:45Z</time>
      </trkpt>
      <trkpt lat="45.37082" lon="4.16602">
        <ele>710</ele>
        <time>2014-04-13T08:30:53Z</time>
      </trkpt>
      <trkpt lat="45.37094" lon="4.16584">
        <ele>711.5</ele>
        <time>2014-04-13T08:30:59Z</time>
      </trkpt>
      <trkpt lat="45.37107" lon="4.16568">
        <ele>712.4</ele>
        <time>2014-04-13T08:31:05Z</time>
      </trkpt>
      <trkpt lat="45.37118" lon="4.16554">
        <ele>713.4</ele>
        <time>2014-04-13T08:31:11Z</time>
      </trkpt>
      <trkpt lat="45.37125" lon="4.16529">
        <ele>715.4</ele>
        <time>2014-04-13T08:31:19Z</time>
      </trkpt>
      <trkpt lat="45.37126" lon="4.16508">
        <ele>716.5</ele>
        <time>2014-04-13T08:31:25Z</time>
      </trkpt>
      <trkpt lat="45.37129" lon="4.16473">
        <ele>717</ele>
        <time>2014-04-13T08:31:33Z</time>
      </trkpt>
      <trkpt lat="45.37133" lon="4.1645">
        <ele>715.9</ele>
        <time>2014-04-13T08:31:39Z</time>
      </trkpt>
      <trkpt lat="45.37139" lon="4.16427">
        <ele>713.8</ele>
        <time>2014-04-13T08:31:45Z</time>
      </trkpt>
      <trkpt lat="45.37144" lon="4.16407">
        <ele>712.7</ele>
        <time>2014-04-13T08:31:50Z</time>
      </trkpt>
      <trkpt lat="45.37151" lon="4.16371">
        <ele>713.5</ele>
        <time>2014-04-13T08:31:59Z</time>
      </trkpt>
      <trkpt lat="45.37156" lon="4.16341">
        <ele>713.3</ele>
        <time>2014-04-13T08:32:07Z</time>
      </trkpt>
      <trkpt lat="45.37164" lon="4.16311">
        <ele>713.1</ele>
        <time>2014-04-13T08:32:15Z</time>
      </trkpt>
      <trkpt lat="45.37169" lon="4.16291">
        <ele>713.6</ele>
        <time>2014-04-13T08:32:21Z</time>
      </trkpt>
      <trkpt lat="45.37186" lon="4.16251">
        <ele>715.9</ele>
        <time>2014-04-13T08:32:31Z</time>
      </trkpt>
      <trkpt lat="45.37196" lon="4.16234">
        <ele>717.5</ele>
        <time>2014-04-13T08:32:37Z</time>
      </trkpt>
      <trkpt lat="45.37208" lon="4.16197">
        <ele>718.6</ele>
        <time>2014-04-13T08:32:45Z</time>
      </trkpt>
      <trkpt lat="45.37217" lon="4.16164">
        <ele>718.4</ele>
        <time>2014-04-13T08:32:51Z</time>
      </trkpt>
      <trkpt lat="45.37227" lon="4.16125">
        <ele>717.2</ele>
        <time>2014-04-13T08:32:57Z</time>
      </trkpt>
      <trkpt lat="45.37237" lon="4.1608">
        <ele>715.5</ele>
        <time>2014-04-13T08:33:03Z</time>
      </trkpt>
      <trkpt lat="45.37251" lon="4.16045">
        <ele>715.9</ele>
        <time>2014-04-13T08:33:09Z</time>
      </trkpt>
      <trkpt lat="45.37263" lon="4.16017">
        <ele>715.5</ele>
        <time>2014-04-13T08:33:15Z</time>
      </trkpt>
      <trkpt lat="45.37276" lon="4.15987">
        <ele>713.9</ele>
        <time>2014-04-13T08:33:23Z</time>
      </trkpt>
      <trkpt lat="45.37283" lon="4.15958">
        <ele>712.3</ele>
        <time>2014-04-13T08:33:33Z</time>
      </trkpt>
      <trkpt lat="45.37294" lon="4.15929">
        <ele>712.4</ele>
        <time>2014-04-13T08:33:43Z</time>
      </trkpt>
      <trkpt lat="45.37305" lon="4.15912">
        <ele>714.1</ele>
        <time>2014-04-13T08:33:51Z</time>
      </trkpt>
      <trkpt lat="45.37322" lon="4.15872">
        <ele>715.5</ele>
        <time>2014-04-13T08:34:03Z</time>
      </trkpt>
      <trkpt lat="45.37336" lon="4.15847">
        <ele>716.9</ele>
        <time>2014-04-13T08:34:15Z</time>
      </trkpt>
      <trkpt lat="45.37362" lon="4.15783">
        <ele>720</ele>
        <time>2014-04-13T08:34:35Z</time>
      </trkpt>
      <trkpt lat="45.37372" lon="4.15752">
        <ele>721</ele>
        <time>2014-04-13T08:34:45Z</time>
      </trkpt>
      <trkpt lat="45.37374" lon="4.15718">
        <ele>721.1</ele>
        <time>2014-04-13T08:34:54Z</time>
      </trkpt>
      <trkpt lat="45.37383" lon="4.1569">
        <ele>721.2</ele>
        <time>2014-04-13T08:35:01Z</time>
      </trkpt>
      <trkpt lat="45.37395" lon="4.1567">
        <ele>721.1</ele>
        <time>2014-04-13T08:35:07Z</time>
      </trkpt>
      <trkpt lat="45.37403" lon="4.15638">
        <ele>721.2</ele>
        <time>2014-04-13T08:35:15Z</time>
      </trkpt>
      <trkpt lat="45.37403" lon="4.15599">
        <ele>722.6</ele>
        <time>2014-04-13T08:35:25Z</time>
      </trkpt>
      <trkpt lat="45.37397" lon="4.15573">
        <ele>725.3</ele>
        <time>2014-04-13T08:35:33Z</time>
      </trkpt>
      <trkpt lat="45.37384" lon="4.15538">
        <ele>731</ele>
        <time>2014-04-13T08:35:43Z</time>
      </trkpt>
      <trkpt lat="45.37377" lon="4.15505">
        <ele>734.1</ele>
        <time>2014-04-13T08:35:53Z</time>
      </trkpt>
      <trkpt lat="45.37373" lon="4.15482">
        <ele>737</ele>
        <time>2014-04-13T08:36:01Z</time>
      </trkpt>
      <trkpt lat="45.37366" lon="4.15449">
        <ele>741.6</ele>
        <time>2014-04-13T08:36:13Z</time>
      </trkpt>
      <trkpt lat="45.37369" lon="4.15412">
        <ele>745.8</ele>
        <time>2014-04-13T08:36:27Z</time>
      </trkpt>
      <trkpt lat="45.37374" lon="4.15377">
        <ele>747.3</ele>
        <time>2014-04-13T08:36:39Z</time>
      </trkpt>
      <trkpt lat="45.37378" lon="4.15353">
        <ele>749.3</ele>
        <time>2014-04-13T08:36:49Z</time>
      </trkpt>
      <trkpt lat="45.37388" lon="4.15316">
        <ele>751.1</ele>
        <time>2014-04-13T08:37:02Z</time>
      </trkpt>
      <trkpt lat="45.374" lon="4.15276">
        <ele>752.7</ele>
        <time>2014-04-13T08:37:15Z</time>
      </trkpt>
      <trkpt lat="45.3741" lon="4.15247">
        <ele>755.2</ele>
        <time>2014-04-13T08:37:27Z</time>
      </trkpt>
      <trkpt lat="45.37415" lon="4.15231">
        <ele>756.9</ele>
        <time>2014-04-13T08:37:33Z</time>
      </trkpt>
      <trkpt lat="45.37432" lon="4.15205">
        <ele>758.1</ele>
        <time>2014-04-13T08:37:43Z</time>
      </trkpt>
      <trkpt lat="45.3745" lon="4.15182">
        <ele>758.8</ele>
        <time>2014-04-13T08:37:53Z</time>
      </trkpt>
      <trkpt lat="45.37464" lon="4.15168">
        <ele>759.6</ele>
        <time>2014-04-13T08:38:01Z</time>
      </trkpt>
      <trkpt lat="45.37477" lon="4.15147">
        <ele>761.2</ele>
        <time>2014-04-13T08:38:11Z</time>
      </trkpt>
      <trkpt lat="45.37484" lon="4.15111">
        <ele>761.6</ele>
        <time>2014-04-13T08:38:21Z</time>
      </trkpt>
      <trkpt lat="45.37489" lon="4.15088">
        <ele>761.9</ele>
        <time>2014-04-13T08:38:31Z</time>
      </trkpt>
      <trkpt lat="45.37509" lon="4.15064">
        <ele>763.7</ele>
        <time>2014-04-13T08:38:47Z</time>
      </trkpt>
      <trkpt lat="45.37523" lon="4.1505">
        <ele>764.2</ele>
        <time>2014-04-13T08:38:57Z</time>
      </trkpt>
      <trkpt lat="45.37552" lon="4.15044">
        <ele>768.1</ele>
        <time>2014-04-13T08:39:13Z</time>
      </trkpt>
      <trkpt lat="45.37576" lon="4.15046">
        <ele>775.4</ele>
        <time>2014-04-13T08:39:27Z</time>
      </trkpt>
      <trkpt lat="45.37593" lon="4.15049">
        <ele>776</ele>
        <time>2014-04-13T08:39:37Z</time>
      </trkpt>
      <trkpt lat="45.37603" lon="4.15051">
        <ele>777.3</ele>
        <time>2014-04-13T08:39:45Z</time>
      </trkpt>
      <trkpt lat="45.3763" lon="4.1505">
        <ele>783.1</ele>
        <time>2014-04-13T08:40:01Z</time>
      </trkpt>
      <trkpt lat="45.37651" lon="4.15069">
        <ele>790.1</ele>
        <time>2014-04-13T08:40:15Z</time>
      </trkpt>
      <trkpt lat="45.37654" lon="4.15061">
        <ele>791.7</ele>
        <time>2014-04-13T08:40:21Z</time>
      </trkpt>
      <trkpt lat="45.37654" lon="4.15061">
        <ele>776</ele>
        <time>2014-04-13T08:40:31Z</time>
      </trkpt>
      <trkpt lat="45.37654" lon="4.15061">
        <ele>776</ele>
        <time>2014-04-13T08:43:03Z</time>
      </trkpt>
      <trkpt lat="45.37657" lon="4.15034">
        <ele>785.5</ele>
        <time>2014-04-13T08:43:03Z</time>
      </trkpt>
      <trkpt lat="45.37657" lon="4.15009">
        <ele>784.1</ele>
        <time>2014-04-13T08:43:11Z</time>
      </trkpt>
      <trkpt lat="45.37657" lon="4.14981">
        <ele>782.7</ele>
        <time>2014-04-13T08:43:19Z</time>
      </trkpt>
      <trkpt lat="45.37658" lon="4.14949">
        <ele>780.9</ele>
        <time>2014-04-13T08:43:27Z</time>
      </trkpt>
      <trkpt lat="45.37659" lon="4.14914">
        <ele>778.8</ele>
        <time>2014-04-13T08:43:35Z</time>
      </trkpt>
      <trkpt lat="45.37664" lon="4.1489">
        <ele>778</ele>
        <time>2014-04-13T08:43:41Z</time>
      </trkpt>
      <trkpt lat="45.3767" lon="4.14868">
        <ele>777.6</ele>
        <time>2014-04-13T08:43:47Z</time>
      </trkpt>
      <trkpt lat="45.37676" lon="4.14841">
        <ele>776.3</ele>
        <time>2014-04-13T08:43:53Z</time>
      </trkpt>
      <trkpt lat="45.37686" lon="4.14805">
        <ele>775.2</ele>
        <time>2014-04-13T08:44:00Z</time>
      </trkpt>
      <trkpt lat="45.37698" lon="4.14776">
        <ele>775.4</ele>
        <time>2014-04-13T08:44:06Z</time>
      </trkpt>
      <trkpt lat="45.37712" lon="4.14744">
        <ele>774.8</ele>
        <time>2014-04-13T08:44:13Z</time>
      </trkpt>
      <trkpt lat="45.37721" lon="4.14715">
        <ele>775</ele>
        <time>2014-04-13T08:44:19Z</time>
      </trkpt>
      <trkpt lat="45.37729" lon="4.14667">
        <ele>775.6</ele>
        <time>2014-04-13T08:44:29Z</time>
      </trkpt>
      <trkpt lat="45.37737" lon="4.14633">
        <ele>775.4</ele>
        <time>2014-04-13T08:44:37Z</time>
      </trkpt>
      <trkpt lat="45.37747" lon="4.14614">
        <ele>777.4</ele>
        <time>2014-04-13T08:44:43Z</time>
      </trkpt>
      <trkpt lat="45.37759" lon="4.14577">
        <ele>780.4</ele>
        <time>2014-04-13T08:44:53Z</time>
      </trkpt>
      <trkpt lat="45.37761" lon="4.14549">
        <ele>781.5</ele>
        <time>2014-04-13T08:44:59Z</time>
      </trkpt>
      <trkpt lat="45.3776" lon="4.14519">
        <ele>782.8</ele>
        <time>2014-04-13T08:45:06Z</time>
      </trkpt>
      <trkpt lat="45.37754" lon="4.145">
        <ele>782.9</ele>
        <time>2014-04-13T08:45:13Z</time>
      </trkpt>
      <trkpt lat="45.37718" lon="4.14515">
        <ele>781.4</ele>
        <time>2014-04-13T08:45:23Z</time>
      </trkpt>
      <trkpt lat="45.37693" lon="4.14532">
        <ele>781.3</ele>
        <time>2014-04-13T08:45:29Z</time>
      </trkpt>
      <trkpt lat="45.37669" lon="4.14547">
        <ele>781.2</ele>
        <time>2014-04-13T08:45:35Z</time>
      </trkpt>
      <trkpt lat="45.37635" lon="4.14566">
        <ele>780.9</ele>
        <time>2014-04-13T08:45:43Z</time>
      </trkpt>
      <trkpt lat="45.37602" lon="4.14587">
        <ele>780.4</ele>
        <time>2014-04-13T08:45:51Z</time>
      </trkpt>
      <trkpt lat="45.37547" lon="4.14633">
        <ele>775.2</ele>
        <time>2014-04-13T08:45:59Z</time>
      </trkpt>
      <trkpt lat="45.37506" lon="4.14631">
        <ele>772.2</ele>
        <time>2014-04-13T08:46:05Z</time>
      </trkpt>
      <trkpt lat="45.37474" lon="4.14671">
        <ele>767.9</ele>
        <time>2014-04-13T08:46:13Z</time>
      </trkpt>
      <trkpt lat="45.37448" lon="4.14697">
        <ele>763.7</ele>
        <time>2014-04-13T08:46:19Z</time>
      </trkpt>
      <trkpt lat="45.37409" lon="4.14665">
        <ele>757.2</ele>
        <time>2014-04-13T08:46:25Z</time>
      </trkpt>
      <trkpt lat="45.37375" lon="4.14655">
        <ele>749.9</ele>
        <time>2014-04-13T08:46:31Z</time>
      </trkpt>
      <trkpt lat="45.37357" lon="4.14673">
        <ele>744.3</ele>
        <time>2014-04-13T08:46:37Z</time>
      </trkpt>
      <trkpt lat="45.37336" lon="4.14684">
        <ele>736.2</ele>
        <time>2014-04-13T08:46:44Z</time>
      </trkpt>
      <trkpt lat="45.37338" lon="4.1465">
        <ele>727.9</ele>
        <time>2014-04-13T08:46:54Z</time>
      </trkpt>
      <trkpt lat="45.37343" lon="4.14636">
        <ele>724.8</ele>
        <time>2014-04-13T08:46:59Z</time>
      </trkpt>
      <trkpt lat="45.37343" lon="4.14636">
        <ele>731.9</ele>
        <time>2014-04-13T08:47:05Z</time>
      </trkpt>
      <trkpt lat="45.37343" lon="4.14636">
        <ele>731.9</ele>
        <time>2014-04-13T08:47:37Z</time>
      </trkpt>
      <trkpt lat="45.37351" lon="4.14593">
        <ele>717</ele>
        <time>2014-04-13T08:47:37Z</time>
      </trkpt>
      <trkpt lat="45.37348" lon="4.14556">
        <ele>720</ele>
        <time>2014-04-13T08:47:47Z</time>
      </trkpt>
      <trkpt lat="45.37342" lon="4.14526">
        <ele>722.8</ele>
        <time>2014-04-13T08:47:55Z</time>
      </trkpt>
      <trkpt lat="45.37332" lon="4.14494">
        <ele>725.3</ele>
        <time>2014-04-13T08:48:03Z</time>
      </trkpt>
      <trkpt lat="45.3732" lon="4.14462">
        <ele>728.9</ele>
        <time>2014-04-13T08:48:13Z</time>
      </trkpt>
      <trkpt lat="45.3732" lon="4.14429">
        <ele>733</ele>
        <time>2014-04-13T08:48:21Z</time>
      </trkpt>
      <trkpt lat="45.3732" lon="4.14405">
        <ele>734.3</ele>
        <time>2014-04-13T08:48:27Z</time>
      </trkpt>
      <trkpt lat="45.37314" lon="4.1438">
        <ele>737.3</ele>
        <time>2014-04-13T08:48:35Z</time>
      </trkpt>
      <trkpt lat="45.37314" lon="4.14361">
        <ele>738.7</ele>
        <time>2014-04-13T08:48:43Z</time>
      </trkpt>
      <trkpt lat="45.37316" lon="4.14338">
        <ele>740.5</ele>
        <time>2014-04-13T08:48:55Z</time>
      </trkpt>
      <trkpt lat="45.3733" lon="4.1431">
        <ele>743.7</ele>
        <time>2014-04-13T08:49:11Z</time>
      </trkpt>
      <trkpt lat="45.37339" lon="4.14296">
        <ele>745.8</ele>
        <time>2014-04-13T08:49:19Z</time>
      </trkpt>
      <trkpt lat="45.37353" lon="4.1427">
        <ele>749.3</ele>
        <time>2014-04-13T08:49:33Z</time>
      </trkpt>
      <trkpt lat="45.37363" lon="4.14254">
        <ele>751.3</ele>
        <time>2014-04-13T08:49:43Z</time>
      </trkpt>
      <trkpt lat="45.37383" lon="4.14244">
        <ele>753.5</ele>
        <time>2014-04-13T08:49:57Z</time>
      </trkpt>
      <trkpt lat="45.37392" lon="4.14266">
        <ele>757</ele>
        <time>2014-04-13T08:50:09Z</time>
      </trkpt>
      <trkpt lat="45.37397" lon="4.1429">
        <ele>760.6</ele>
        <time>2014-04-13T08:50:21Z</time>
      </trkpt>
      <trkpt lat="45.37406" lon="4.14316">
        <ele>763.3</ele>
        <time>2014-04-13T08:50:33Z</time>
      </trkpt>
      <trkpt lat="45.37414" lon="4.14334">
        <ele>766.3</ele>
        <time>2014-04-13T08:50:43Z</time>
      </trkpt>
      <trkpt lat="45.37428" lon="4.14362">
        <ele>770.2</ele>
        <time>2014-04-13T08:50:58Z</time>
      </trkpt>
      <trkpt lat="45.37444" lon="4.1438">
        <ele>773.6</ele>
        <time>2014-04-13T08:51:11Z</time>
      </trkpt>
      <trkpt lat="45.37463" lon="4.14381">
        <ele>776.4</ele>
        <time>2014-04-13T08:51:23Z</time>
      </trkpt>
      <trkpt lat="45.37463" lon="4.14362">
        <ele>777.4</ele>
        <time>2014-04-13T08:51:33Z</time>
      </trkpt>
      <trkpt lat="45.37459" lon="4.14331">
        <ele>777.4</ele>
        <time>2014-04-13T08:51:43Z</time>
      </trkpt>
      <trkpt lat="45.37458" lon="4.14326">
        <ele>777.3</ele>
        <time>2014-04-13T08:51:45Z</time>
      </trkpt>
      <trkpt lat="45.37458" lon="4.14326">
        <ele>774.8</ele>
        <time>2014-04-13T08:51:55Z</time>
      </trkpt>
      <trkpt lat="45.37458" lon="4.14326">
        <ele>774.8</ele>
        <time>2014-04-13T08:53:47Z</time>
      </trkpt>
      <trkpt lat="45.37489" lon="4.14286">
        <ele>774.5</ele>
        <time>2014-04-13T08:53:47Z</time>
      </trkpt>
      <trkpt lat="45.37506" lon="4.14264">
        <ele>774.5</ele>
        <time>2014-04-13T08:53:52Z</time>
      </trkpt>
      <trkpt lat="45.37519" lon="4.14232">
        <ele>774.1</ele>
        <time>2014-04-13T08:53:57Z</time>
      </trkpt>
      <trkpt lat="45.37531" lon="4.14186">
        <ele>770.4</ele>
        <time>2014-04-13T08:54:03Z</time>
      </trkpt>
      <trkpt lat="45.37542" lon="4.14126">
        <ele>766.3</ele>
        <time>2014-04-13T08:54:09Z</time>
      </trkpt>
      <trkpt lat="45.37545" lon="4.14053">
        <ele>762.5</ele>
        <time>2014-04-13T08:54:15Z</time>
      </trkpt>
      <trkpt lat="45.37537" lon="4.13987">
        <ele>757.9</ele>
        <time>2014-04-13T08:54:21Z</time>
      </trkpt>
      <trkpt lat="45.37521" lon="4.13913">
        <ele>753.1</ele>
        <time>2014-04-13T08:54:27Z</time>
      </trkpt>
      <trkpt lat="45.37517" lon="4.1384">
        <ele>747.5</ele>
        <time>2014-04-13T08:54:33Z</time>
      </trkpt>
      <trkpt lat="45.37557" lon="4.13757">
        <ele>740.3</ele>
        <time>2014-04-13T08:54:41Z</time>
      </trkpt>
      <trkpt lat="45.37622" lon="4.13679">
        <ele>732.6</ele>
        <time>2014-04-13T08:54:49Z</time>
      </trkpt>
      <trkpt lat="45.37709" lon="4.13652">
        <ele>722.8</ele>
        <time>2014-04-13T08:54:59Z</time>
      </trkpt>
      <trkpt lat="45.37716" lon="4.13622">
        <ele>717.2</ele>
        <time>2014-04-13T08:55:06Z</time>
      </trkpt>
      <trkpt lat="45.37722" lon="4.13598">
        <ele>712.8</ele>
        <time>2014-04-13T08:55:13Z</time>
      </trkpt>
      <trkpt lat="45.37718" lon="4.13582">
        <ele>708.3</ele>
        <time>2014-04-13T08:55:23Z</time>
      </trkpt>
      <trkpt lat="45.37711" lon="4.1355">
        <ele>704.3</ele>
        <time>2014-04-13T08:55:37Z</time>
      </trkpt>
      <trkpt lat="45.37707" lon="4.13521">
        <ele>700.7</ele>
        <time>2014-04-13T08:55:49Z</time>
      </trkpt>
      <trkpt lat="45.37696" lon="4.13504">
        <ele>698.5</ele>
        <time>2014-04-13T08:56:01Z</time>
      </trkpt>
      <trkpt lat="45.37681" lon="4.13478">
        <ele>698.6</ele>
        <time>2014-04-13T08:56:17Z</time>
      </trkpt>
      <trkpt lat="45.37677" lon="4.13456">
        <ele>700.5</ele>
        <time>2014-04-13T08:56:29Z</time>
      </trkpt>
      <trkpt lat="45.37676" lon="4.13436">
        <ele>703.4</ele>
        <time>2014-04-13T08:56:39Z</time>
      </trkpt>
      <trkpt lat="45.37675" lon="4.13406">
        <ele>707.7</ele>
        <time>2014-04-13T08:56:51Z</time>
      </trkpt>
      <trkpt lat="45.37667" lon="4.13391">
        <ele>709.5</ele>
        <time>2014-04-13T08:57:01Z</time>
      </trkpt>
      <trkpt lat="45.37635" lon="4.13378">
        <ele>713.6</ele>
        <time>2014-04-13T08:57:17Z</time>
      </trkpt>
      <trkpt lat="45.37628" lon="4.13379">
        <ele>714.7</ele>
        <time>2014-04-13T08:57:29Z</time>
      </trkpt>
      <trkpt lat="45.37609" lon="4.13376">
        <ele>717.4</ele>
        <time>2014-04-13T08:57:51Z</time>
      </trkpt>
      <trkpt lat="45.37576" lon="4.13384">
        <ele>723.6</ele>
        <time>2014-04-13T08:58:23Z</time>
      </trkpt>
      <trkpt lat="45.37552" lon="4.13409">
        <ele>723.4</ele>
        <time>2014-04-13T08:58:29Z</time>
      </trkpt>
      <trkpt lat="45.37522" lon="4.13417">
        <ele>721.7</ele>
        <time>2014-04-13T08:58:35Z</time>
      </trkpt>
      <trkpt lat="45.37488" lon="4.13408">
        <ele>718.2</ele>
        <time>2014-04-13T08:58:41Z</time>
      </trkpt>
      <trkpt lat="45.37469" lon="4.13388">
        <ele>714.3</ele>
        <time>2014-04-13T08:58:47Z</time>
      </trkpt>
      <trkpt lat="45.37444" lon="4.13379">
        <ele>708.6</ele>
        <time>2014-04-13T08:58:55Z</time>
      </trkpt>
      <trkpt lat="45.37419" lon="4.13373">
        <ele>702.6</ele>
        <time>2014-04-13T08:59:01Z</time>
      </trkpt>
      <trkpt lat="45.37404" lon="4.13375">
        <ele>697.2</ele>
        <time>2014-04-13T08:59:07Z</time>
      </trkpt>
      <trkpt lat="45.37395" lon="4.13369">
        <ele>690.5</ele>
        <time>2014-04-13T08:59:15Z</time>
      </trkpt>
      <trkpt lat="45.37364" lon="4.13398">
        <ele>682.4</ele>
        <time>2014-04-13T08:59:27Z</time>
      </trkpt>
      <trkpt lat="45.37342" lon="4.13406">
        <ele>676.3</ele>
        <time>2014-04-13T08:59:35Z</time>
      </trkpt>
      <trkpt lat="45.37324" lon="4.1342">
        <ele>672.2</ele>
        <time>2014-04-13T08:59:41Z</time>
      </trkpt>
      <trkpt lat="45.37308" lon="4.13433">
        <ele>667.3</ele>
        <time>2014-04-13T08:59:47Z</time>
      </trkpt>
      <trkpt lat="45.37301" lon="4.13432">
        <ele>665.2</ele>
        <time>2014-04-13T08:59:50Z</time>
      </trkpt>
      <trkpt lat="45.37301" lon="4.13432">
        <ele>648.6</ele>
        <time>2014-04-13T08:59:57Z</time>
      </trkpt>
      <trkpt lat="45.37301" lon="4.13432">
        <ele>648.6</ele>
        <time>2014-04-13T09:00:03Z</time>
      </trkpt>
      <trkpt lat="45.37295" lon="4.13435">
        <ele>658.5</ele>
        <time>2014-04-13T09:00:03Z</time>
      </trkpt>
      <trkpt lat="45.37268" lon="4.13462">
        <ele>653.5</ele>
        <time>2014-04-13T09:00:17Z</time>
      </trkpt>
      <trkpt lat="45.37262" lon="4.13473">
        <ele>649.3</ele>
        <time>2014-04-13T09:00:23Z</time>
      </trkpt>
      <trkpt lat="45.37245" lon="4.1348">
        <ele>645.8</ele>
        <time>2014-04-13T09:00:33Z</time>
      </trkpt>
      <trkpt lat="45.37208" lon="4.135">
        <ele>640.4</ele>
        <time>2014-04-13T09:00:43Z</time>
      </trkpt>
      <trkpt lat="45.37176" lon="4.13516">
        <ele>637.7</ele>
        <time>2014-04-13T09:00:51Z</time>
      </trkpt>
      <trkpt lat="45.37161" lon="4.13533">
        <ele>636.4</ele>
        <time>2014-04-13T09:00:59Z</time>
      </trkpt>
      <trkpt lat="45.37151" lon="4.13553">
        <ele>635.2</ele>
        <time>2014-04-13T09:01:05Z</time>
      </trkpt>
      <trkpt lat="45.37132" lon="4.1355">
        <ele>633.9</ele>
        <time>2014-04-13T09:01:11Z</time>
      </trkpt>
      <trkpt lat="45.3712" lon="4.13557">
        <ele>631.9</ele>
        <time>2014-04-13T09:01:17Z</time>
      </trkpt>
      <trkpt lat="45.37111" lon="4.13572">
        <ele>630.7</ele>
        <time>2014-04-13T09:01:23Z</time>
      </trkpt>
      <trkpt lat="45.37098" lon="4.13581">
        <ele>630.6</ele>
        <time>2014-04-13T09:01:29Z</time>
      </trkpt>
      <trkpt lat="45.37088" lon="4.1359">
        <ele>629.3</ele>
        <time>2014-04-13T09:01:36Z</time>
      </trkpt>
      <trkpt lat="45.37085" lon="4.13597">
        <ele>628.5</ele>
        <time>2014-04-13T09:01:41Z</time>
      </trkpt>
      <trkpt lat="45.37085" lon="4.13597">
        <ele>628.6</ele>
        <time>2014-04-13T09:01:49Z</time>
      </trkpt>
      <trkpt lat="45.37085" lon="4.13597">
        <ele>628.6</ele>
        <time>2014-04-13T09:05:13Z</time>
      </trkpt>
      <trkpt lat="45.37063" lon="4.13609">
        <ele>627.3</ele>
        <time>2014-04-13T09:05:13Z</time>
      </trkpt>
      <trkpt lat="45.37044" lon="4.13636">
        <ele>628.3</ele>
        <time>2014-04-13T09:05:23Z</time>
      </trkpt>
      <trkpt lat="45.37032" lon="4.13646">
        <ele>629.9</ele>
        <time>2014-04-13T09:05:29Z</time>
      </trkpt>
      <trkpt lat="45.37002" lon="4.13661">
        <ele>632.5</ele>
        <time>2014-04-13T09:05:39Z</time>
      </trkpt>
      <trkpt lat="45.36986" lon="4.13666">
        <ele>633.2</ele>
        <time>2014-04-13T09:05:47Z</time>
      </trkpt>
      <trkpt lat="45.3697" lon="4.13678">
        <ele>633.1</ele>
        <time>2014-04-13T09:05:55Z</time>
      </trkpt>
      <trkpt lat="45.36947" lon="4.13702">
        <ele>633.5</ele>
        <time>2014-04-13T09:06:05Z</time>
      </trkpt>
      <trkpt lat="45.36931" lon="4.13713">
        <ele>632.5</ele>
        <time>2014-04-13T09:06:11Z</time>
      </trkpt>
      <trkpt lat="45.36923" lon="4.13722">
        <ele>632</ele>
        <time>2014-04-13T09:06:21Z</time>
      </trkpt>
      <trkpt lat="45.36912" lon="4.13765">
        <ele>631.6</ele>
        <time>2014-04-13T09:06:41Z</time>
      </trkpt>
      <trkpt lat="45.36904" lon="4.1378">
        <ele>630.7</ele>
        <time>2014-04-13T09:06:49Z</time>
      </trkpt>
      <trkpt lat="45.36898" lon="4.13807">
        <ele>629</ele>
        <time>2014-04-13T09:07:11Z</time>
      </trkpt>
      <trkpt lat="45.3689" lon="4.13846">
        <ele>630.2</ele>
        <time>2014-04-13T09:07:23Z</time>
      </trkpt>
      <trkpt lat="45.36886" lon="4.13868">
        <ele>630.2</ele>
        <time>2014-04-13T09:07:29Z</time>
      </trkpt>
      <trkpt lat="45.3689" lon="4.13894">
        <ele>631.5</ele>
        <time>2014-04-13T09:07:37Z</time>
      </trkpt>
      <trkpt lat="45.36887" lon="4.13919">
        <ele>632.1</ele>
        <time>2014-04-13T09:07:49Z</time>
      </trkpt>
      <trkpt lat="45.36887" lon="4.13919">
        <ele>632.1</ele>
        <time>2014-04-13T09:07:57Z</time>
      </trkpt>
      <trkpt lat="45.36887" lon="4.13919">
        <ele>606.5</ele>
        <time>2014-04-13T09:07:57Z</time>
      </trkpt>
      <trkpt lat="45.36887" lon="4.13919">
        <ele>606.5</ele>
        <time>2014-04-13T09:09:36Z</time>
      </trkpt>
      <trkpt lat="45.36876" lon="4.14003">
        <ele>632.3</ele>
        <time>2014-04-13T09:09:53Z</time>
      </trkpt>
      <trkpt lat="45.36841" lon="4.14049">
        <ele>629.9</ele>
        <time>2014-04-13T09:10:11Z</time>
      </trkpt>
      <trkpt lat="45.36829" lon="4.14083">
        <ele>629.5</ele>
        <time>2014-04-13T09:10:19Z</time>
      </trkpt>
      <trkpt lat="45.36816" lon="4.14107">
        <ele>629.1</ele>
        <time>2014-04-13T09:10:25Z</time>
      </trkpt>
      <trkpt lat="45.36811" lon="4.14127">
        <ele>626.9</ele>
        <time>2014-04-13T09:10:33Z</time>
      </trkpt>
      <trkpt lat="45.36817" lon="4.14136">
        <ele>624.2</ele>
        <time>2014-04-13T09:10:45Z</time>
      </trkpt>
      <trkpt lat="45.36833" lon="4.14135">
        <ele>624.8</ele>
        <time>2014-04-13T09:10:59Z</time>
      </trkpt>
      <trkpt lat="45.36826" lon="4.14162">
        <ele>626.3</ele>
        <time>2014-04-13T09:11:17Z</time>
      </trkpt>
      <trkpt lat="45.36812" lon="4.14193">
        <ele>628.9</ele>
        <time>2014-04-13T09:11:35Z</time>
      </trkpt>
      <trkpt lat="45.368" lon="4.14207">
        <ele>630.5</ele>
        <time>2014-04-13T09:11:47Z</time>
      </trkpt>
      <trkpt lat="45.368" lon="4.14207">
        <ele>630.5</ele>
        <time>2014-04-13T09:11:55Z</time>
      </trkpt>
      <trkpt lat="45.368" lon="4.14207">
        <ele>616</ele>
        <time>2014-04-13T09:11:55Z</time>
      </trkpt>
      <trkpt lat="45.368" lon="4.14207">
        <ele>616</ele>
        <time>2014-04-13T09:12:49Z</time>
      </trkpt>
      <trkpt lat="45.36784" lon="4.14252">
        <ele>635.2</ele>
        <time>2014-04-13T09:12:49Z</time>
      </trkpt>
      <trkpt lat="45.36775" lon="4.14273">
        <ele>636.2</ele>
        <time>2014-04-13T09:12:59Z</time>
      </trkpt>
      <trkpt lat="45.36769" lon="4.14288">
        <ele>636.5</ele>
        <time>2014-04-13T09:13:07Z</time>
      </trkpt>
      <trkpt lat="45.36763" lon="4.14315">
        <ele>638.3</ele>
        <time>2014-04-13T09:13:21Z</time>
      </trkpt>
      <trkpt lat="45.36763" lon="4.14315">
        <ele>638.3</ele>
        <time>2014-04-13T09:13:29Z</time>
      </trkpt>
      <trkpt lat="45.36763" lon="4.14315">
        <ele>638.9</ele>
        <time>2014-04-13T09:13:29Z</time>
      </trkpt>
      <trkpt lat="45.36763" lon="4.14315">
        <ele>638.9</ele>
        <time>2014-04-13T09:14:08Z</time>
      </trkpt>
      <trkpt lat="45.36742" lon="4.14326">
        <ele>643.3</ele>
        <time>2014-04-13T09:16:36Z</time>
      </trkpt>
      <trkpt lat="45.36711" lon="4.14341">
        <ele>643.7</ele>
        <time>2014-04-13T09:16:46Z</time>
      </trkpt>
      <trkpt lat="45.36704" lon="4.14359">
        <ele>644.7</ele>
        <time>2014-04-13T09:16:53Z</time>
      </trkpt>
      <trkpt lat="45.36699" lon="4.1438">
        <ele>641.4</ele>
        <time>2014-04-13T09:17:01Z</time>
      </trkpt>
      <trkpt lat="45.36689" lon="4.14404">
        <ele>644</ele>
        <time>2014-04-13T09:17:17Z</time>
      </trkpt>
      <trkpt lat="45.36672" lon="4.14444">
        <ele>645.5</ele>
        <time>2014-04-13T09:18:05Z</time>
      </trkpt>
      <trkpt lat="45.36653" lon="4.14469">
        <ele>643.6</ele>
        <time>2014-04-13T09:18:15Z</time>
      </trkpt>
      <trkpt lat="45.3664" lon="4.14497">
        <ele>640.4</ele>
        <time>2014-04-13T09:18:21Z</time>
      </trkpt>
      <trkpt lat="45.36626" lon="4.14518">
        <ele>636.7</ele>
        <time>2014-04-13T09:18:27Z</time>
      </trkpt>
      <trkpt lat="45.36612" lon="4.14534">
        <ele>634.4</ele>
        <time>2014-04-13T09:18:33Z</time>
      </trkpt>
      <trkpt lat="45.36605" lon="4.14556">
        <ele>633.4</ele>
        <time>2014-04-13T09:18:39Z</time>
      </trkpt>
      <trkpt lat="45.36612" lon="4.14594">
        <ele>624.4</ele>
        <time>2014-04-13T09:18:47Z</time>
      </trkpt>
      <trkpt lat="45.36614" lon="4.14621">
        <ele>620.3</ele>
        <time>2014-04-13T09:18:53Z</time>
      </trkpt>
      <trkpt lat="45.36628" lon="4.14655">
        <ele>612.5</ele>
        <time>2014-04-13T09:18:59Z</time>
      </trkpt>
      <trkpt lat="45.3663" lon="4.14686">
        <ele>609.2</ele>
        <time>2014-04-13T09:19:05Z</time>
      </trkpt>
      <trkpt lat="45.36627" lon="4.14716">
        <ele>606</ele>
        <time>2014-04-13T09:19:11Z</time>
      </trkpt>
      <trkpt lat="45.36622" lon="4.14743">
        <ele>601.3</ele>
        <time>2014-04-13T09:19:19Z</time>
      </trkpt>
      <trkpt lat="45.36599" lon="4.14786">
        <ele>594.8</ele>
        <time>2014-04-13T09:19:27Z</time>
      </trkpt>
      <trkpt lat="45.36585" lon="4.14813">
        <ele>588.4</ele>
        <time>2014-04-13T09:19:35Z</time>
      </trkpt>
      <trkpt lat="45.36585" lon="4.14813">
        <ele>588.4</ele>
        <time>2014-04-13T09:19:43Z</time>
      </trkpt>
      <trkpt lat="45.36585" lon="4.14813">
        <ele>556.9</ele>
        <time>2014-04-13T09:19:43Z</time>
      </trkpt>
      <trkpt lat="45.36585" lon="4.14813">
        <ele>556.9</ele>
        <time>2014-04-13T09:21:35Z</time>
      </trkpt>
      <trkpt lat="45.36608" lon="4.14838">
        <ele>562.1</ele>
        <time>2014-04-13T09:21:35Z</time>
      </trkpt>
      <trkpt lat="45.36595" lon="4.14887">
        <ele>552.2</ele>
        <time>2014-04-13T09:23:17Z</time>
      </trkpt>
      <trkpt lat="45.36588" lon="4.14921">
        <ele>551.2</ele>
        <time>2014-04-13T09:23:23Z</time>
      </trkpt>
      <trkpt lat="45.36579" lon="4.14954">
        <ele>550.4</ele>
        <time>2014-04-13T09:23:28Z</time>
      </trkpt>
      <trkpt lat="45.36557" lon="4.14984">
        <ele>550.9</ele>
        <time>2014-04-13T09:23:35Z</time>
      </trkpt>
      <trkpt lat="45.36545" lon="4.15006">
        <ele>552.5</ele>
        <time>2014-04-13T09:23:43Z</time>
      </trkpt>
      <trkpt lat="45.36523" lon="4.15036">
        <ele>552.4</ele>
        <time>2014-04-13T09:23:53Z</time>
      </trkpt>
      <trkpt lat="45.36517" lon="4.15056">
        <ele>553.8</ele>
        <time>2014-04-13T09:24:00Z</time>
      </trkpt>
      <trkpt lat="45.365" lon="4.15087">
        <ele>553.5</ele>
        <time>2014-04-13T09:24:11Z</time>
      </trkpt>
      <trkpt lat="45.36474" lon="4.15113">
        <ele>552</ele>
        <time>2014-04-13T09:24:23Z</time>
      </trkpt>
      <trkpt lat="45.36468" lon="4.15134">
        <ele>552.4</ele>
        <time>2014-04-13T09:24:29Z</time>
      </trkpt>
      <trkpt lat="45.3647" lon="4.15175">
        <ele>557</ele>
        <time>2014-04-13T09:24:41Z</time>
      </trkpt>
      <trkpt lat="45.36469" lon="4.15224">
        <ele>555.8</ele>
        <time>2014-04-13T09:24:51Z</time>
      </trkpt>
      <trkpt lat="45.36483" lon="4.15258">
        <ele>555</ele>
        <time>2014-04-13T09:24:57Z</time>
      </trkpt>
      <trkpt lat="45.36487" lon="4.15283">
        <ele>555.5</ele>
        <time>2014-04-13T09:25:03Z</time>
      </trkpt>
      <trkpt lat="45.36483" lon="4.15301">
        <ele>555.6</ele>
        <time>2014-04-13T09:25:09Z</time>
      </trkpt>
      <trkpt lat="45.36473" lon="4.15337">
        <ele>557.5</ele>
        <time>2014-04-13T09:25:19Z</time>
      </trkpt>
      <trkpt lat="45.36455" lon="4.15363">
        <ele>556.6</ele>
        <time>2014-04-13T09:25:29Z</time>
      </trkpt>
      <trkpt lat="45.36447" lon="4.15379">
        <ele>556.5</ele>
        <time>2014-04-13T09:25:37Z</time>
      </trkpt>
      <trkpt lat="45.36429" lon="4.15404">
        <ele>553.2</ele>
        <time>2014-04-13T09:25:49Z</time>
      </trkpt>
      <trkpt lat="45.36429" lon="4.15414">
        <ele>550.9</ele>
        <time>2014-04-13T09:25:53Z</time>
      </trkpt>
      <trkpt lat="45.36429" lon="4.15414">
        <ele>544.7</ele>
        <time>2014-04-13T09:25:58Z</time>
      </trkpt>
      <trkpt lat="45.36429" lon="4.15414">
        <ele>544.7</ele>
        <time>2014-04-13T09:28:23Z</time>
      </trkpt>
      <trkpt lat="45.36426" lon="4.15441">
        <ele>546.6</ele>
        <time>2014-04-13T09:28:23Z</time>
      </trkpt>
      <trkpt lat="45.36426" lon="4.1546">
        <ele>548.7</ele>
        <time>2014-04-13T09:28:29Z</time>
      </trkpt>
      <trkpt lat="45.36436" lon="4.15479">
        <ele>554.4</ele>
        <time>2014-04-13T09:28:39Z</time>
      </trkpt>
      <trkpt lat="45.36448" lon="4.15483">
        <ele>556.7</ele>
        <time>2014-04-13T09:28:49Z</time>
      </trkpt>
      <trkpt lat="45.36433" lon="4.15449">
        <ele>548.5</ele>
        <time>2014-04-13T09:31:43Z</time>
      </trkpt>
      <trkpt lat="45.36412" lon="4.15437">
        <ele>547.3</ele>
        <time>2014-04-13T09:31:57Z</time>
      </trkpt>
      <trkpt lat="45.36384" lon="4.15447">
        <ele>547</ele>
        <time>2014-04-13T09:32:09Z</time>
      </trkpt>
      <trkpt lat="45.36369" lon="4.15453">
        <ele>546.4</ele>
        <time>2014-04-13T09:32:15Z</time>
      </trkpt>
      <trkpt lat="45.36357" lon="4.15466">
        <ele>547.2</ele>
        <time>2014-04-13T09:32:21Z</time>
      </trkpt>
      <trkpt lat="45.36337" lon="4.15469">
        <ele>545.8</ele>
        <time>2014-04-13T09:32:27Z</time>
      </trkpt>
      <trkpt lat="45.36328" lon="4.15495">
        <ele>547.9</ele>
        <time>2014-04-13T09:32:35Z</time>
      </trkpt>
      <trkpt lat="45.36327" lon="4.15516">
        <ele>549.8</ele>
        <time>2014-04-13T09:32:41Z</time>
      </trkpt>
      <trkpt lat="45.36326" lon="4.15541">
        <ele>551.3</ele>
        <time>2014-04-13T09:32:49Z</time>
      </trkpt>
      <trkpt lat="45.36315" lon="4.15568">
        <ele>553.5</ele>
        <time>2014-04-13T09:32:59Z</time>
      </trkpt>
      <trkpt lat="45.36304" lon="4.15581">
        <ele>554.6</ele>
        <time>2014-04-13T09:33:05Z</time>
      </trkpt>
      <trkpt lat="45.36283" lon="4.15593">
        <ele>553</ele>
        <time>2014-04-13T09:33:13Z</time>
      </trkpt>
      <trkpt lat="45.36265" lon="4.15621">
        <ele>553.6</ele>
        <time>2014-04-13T09:33:23Z</time>
      </trkpt>
      <trkpt lat="45.36254" lon="4.15636">
        <ele>555.2</ele>
        <time>2014-04-13T09:33:29Z</time>
      </trkpt>
      <trkpt lat="45.36248" lon="4.15656">
        <ele>557.5</ele>
        <time>2014-04-13T09:33:35Z</time>
      </trkpt>
      <trkpt lat="45.36243" lon="4.15677">
        <ele>559.6</ele>
        <time>2014-04-13T09:33:41Z</time>
      </trkpt>
      <trkpt lat="45.36231" lon="4.15697">
        <ele>562.2</ele>
        <time>2014-04-13T09:33:47Z</time>
      </trkpt>
      <trkpt lat="45.36213" lon="4.15712">
        <ele>563.4</ele>
        <time>2014-04-13T09:33:53Z</time>
      </trkpt>
      <trkpt lat="45.36196" lon="4.15724">
        <ele>564.5</ele>
        <time>2014-04-13T09:34:00Z</time>
      </trkpt>
      <trkpt lat="45.36184" lon="4.15739">
        <ele>565.2</ele>
        <time>2014-04-13T09:34:05Z</time>
      </trkpt>
      <trkpt lat="45.36166" lon="4.15752">
        <ele>565.4</ele>
        <time>2014-04-13T09:34:11Z</time>
      </trkpt>
      <trkpt lat="45.36147" lon="4.1576">
        <ele>566.3</ele>
        <time>2014-04-13T09:34:17Z</time>
      </trkpt>
      <trkpt lat="45.36125" lon="4.15755">
        <ele>565.2</ele>
        <time>2014-04-13T09:34:23Z</time>
      </trkpt>
      <trkpt lat="45.36107" lon="4.15742">
        <ele>565.4</ele>
        <time>2014-04-13T09:34:31Z</time>
      </trkpt>
      <trkpt lat="45.36081" lon="4.15719">
        <ele>567.7</ele>
        <time>2014-04-13T09:34:43Z</time>
      </trkpt>
      <trkpt lat="45.36066" lon="4.15707">
        <ele>572.5</ele>
        <time>2014-04-13T09:34:51Z</time>
      </trkpt>
      <trkpt lat="45.36053" lon="4.15691">
        <ele>578.1</ele>
        <time>2014-04-13T09:35:01Z</time>
      </trkpt>
      <trkpt lat="45.36037" lon="4.15694">
        <ele>582.1</ele>
        <time>2014-04-13T09:35:12Z</time>
      </trkpt>
      <trkpt lat="45.3603" lon="4.15735">
        <ele>591.8</ele>
        <time>2014-04-13T09:35:25Z</time>
      </trkpt>
      <trkpt lat="45.36026" lon="4.15772">
        <ele>600.2</ele>
        <time>2014-04-13T09:35:36Z</time>
      </trkpt>
      <trkpt lat="45.3601" lon="4.15803">
        <ele>610</ele>
        <time>2014-04-13T09:35:47Z</time>
      </trkpt>
      <trkpt lat="45.35996" lon="4.15825">
        <ele>610.3</ele>
        <time>2014-04-13T09:35:55Z</time>
      </trkpt>
      <trkpt lat="45.35982" lon="4.15856">
        <ele>609.8</ele>
        <time>2014-04-13T09:36:05Z</time>
      </trkpt>
      <trkpt lat="45.35973" lon="4.15869">
        <ele>607.5</ele>
        <time>2014-04-13T09:36:11Z</time>
      </trkpt>
      <trkpt lat="45.35948" lon="4.15875">
        <ele>611.3</ele>
        <time>2014-04-13T09:36:21Z</time>
      </trkpt>
      <trkpt lat="45.35924" lon="4.15879">
        <ele>615.5</ele>
        <time>2014-04-13T09:36:31Z</time>
      </trkpt>
      <trkpt lat="45.35899" lon="4.15882">
        <ele>617</ele>
        <time>2014-04-13T09:36:39Z</time>
      </trkpt>
      <trkpt lat="45.35881" lon="4.15887">
        <ele>615.1</ele>
        <time>2014-04-13T09:36:45Z</time>
      </trkpt>
      <trkpt lat="45.35859" lon="4.15895">
        <ele>607.3</ele>
        <time>2014-04-13T09:36:51Z</time>
      </trkpt>
      <trkpt lat="45.35828" lon="4.15918">
        <ele>600.2</ele>
        <time>2014-04-13T09:36:59Z</time>
      </trkpt>
      <trkpt lat="45.35811" lon="4.15937">
        <ele>594.6</ele>
        <time>2014-04-13T09:37:05Z</time>
      </trkpt>
      <trkpt lat="45.35791" lon="4.15937">
        <ele>588.5</ele>
        <time>2014-04-13T09:37:11Z</time>
      </trkpt>
      <trkpt lat="45.35775" lon="4.15916">
        <ele>585.6</ele>
        <time>2014-04-13T09:37:19Z</time>
      </trkpt>
      <trkpt lat="45.3577" lon="4.15882">
        <ele>586.5</ele>
        <time>2014-04-13T09:37:29Z</time>
      </trkpt>
      <trkpt lat="45.35766" lon="4.15849">
        <ele>586.5</ele>
        <time>2014-04-13T09:37:37Z</time>
      </trkpt>
      <trkpt lat="45.35763" lon="4.15825">
        <ele>586.6</ele>
        <time>2014-04-13T09:37:43Z</time>
      </trkpt>
      <trkpt lat="45.35754" lon="4.15801">
        <ele>587.6</ele>
        <time>2014-04-13T09:37:51Z</time>
      </trkpt>
      <trkpt lat="45.35739" lon="4.15782">
        <ele>590.8</ele>
        <time>2014-04-13T09:38:00Z</time>
      </trkpt>
      <trkpt lat="45.35723" lon="4.15775">
        <ele>592.7</ele>
        <time>2014-04-13T09:38:07Z</time>
      </trkpt>
      <trkpt lat="45.357" lon="4.15766">
        <ele>592.9</ele>
        <time>2014-04-13T09:38:17Z</time>
      </trkpt>
      <trkpt lat="45.35678" lon="4.15756">
        <ele>595.1</ele>
        <time>2014-04-13T09:38:27Z</time>
      </trkpt>
      <trkpt lat="45.35666" lon="4.15747">
        <ele>596.6</ele>
        <time>2014-04-13T09:38:35Z</time>
      </trkpt>
      <trkpt lat="45.35656" lon="4.15746">
        <ele>595.2</ele>
        <time>2014-04-13T09:38:43Z</time>
      </trkpt>
      <trkpt lat="45.3556" lon="4.15803">
        <ele>590.4</ele>
        <time>2014-04-13T09:39:03Z</time>
      </trkpt>
      <trkpt lat="45.35524" lon="4.15805">
        <ele>589.8</ele>
        <time>2014-04-13T09:39:09Z</time>
      </trkpt>
      <trkpt lat="45.35484" lon="4.15821">
        <ele>587.3</ele>
        <time>2014-04-13T09:39:15Z</time>
      </trkpt>
      <trkpt lat="45.35432" lon="4.15825">
        <ele>585.3</ele>
        <time>2014-04-13T09:39:21Z</time>
      </trkpt>
      <trkpt lat="45.35428" lon="4.15787">
        <ele>580.8</ele>
        <time>2014-04-13T09:39:29Z</time>
      </trkpt>
      <trkpt lat="45.35397" lon="4.15745">
        <ele>577.4</ele>
        <time>2014-04-13T09:39:35Z</time>
      </trkpt>
      <trkpt lat="45.3536" lon="4.15695">
        <ele>573.1</ele>
        <time>2014-04-13T09:39:41Z</time>
      </trkpt>
      <trkpt lat="45.35281" lon="4.15682">
        <ele>564.5</ele>
        <time>2014-04-13T09:39:49Z</time>
      </trkpt>
      <trkpt lat="45.35236" lon="4.15718">
        <ele>560</ele>
        <time>2014-04-13T09:39:55Z</time>
      </trkpt>
      <trkpt lat="45.3522" lon="4.15743">
        <ele>556.5</ele>
        <time>2014-04-13T09:40:01Z</time>
      </trkpt>
      <trkpt lat="45.352" lon="4.15783">
        <ele>550.9</ele>
        <time>2014-04-13T09:40:11Z</time>
      </trkpt>
      <trkpt lat="45.35201" lon="4.15841">
        <ele>544.8</ele>
        <time>2014-04-13T09:40:19Z</time>
      </trkpt>
      <trkpt lat="45.35192" lon="4.15911">
        <ele>541.3</ele>
        <time>2014-04-13T09:40:27Z</time>
      </trkpt>
      <trkpt lat="45.35183" lon="4.15987">
        <ele>538.7</ele>
        <time>2014-04-13T09:40:33Z</time>
      </trkpt>
      <trkpt lat="45.35178" lon="4.16105">
        <ele>533.6</ele>
        <time>2014-04-13T09:40:41Z</time>
      </trkpt>
      <trkpt lat="45.35167" lon="4.16191">
        <ele>528.5</ele>
        <time>2014-04-13T09:40:49Z</time>
      </trkpt>
      <trkpt lat="45.35159" lon="4.1621">
        <ele>526.8</ele>
        <time>2014-04-13T09:40:53Z</time>
      </trkpt>
      <trkpt lat="45.35159" lon="4.1621">
        <ele>494.7</ele>
        <time>2014-04-13T09:40:59Z</time>
      </trkpt>
      <trkpt lat="45.35159" lon="4.1621">
        <ele>494.7</ele>
        <time>2014-04-13T09:41:03Z</time>
      </trkpt>
      <trkpt lat="45.35143" lon="4.16208">
        <ele>518.4</ele>
        <time>2014-04-13T09:41:03Z</time>
      </trkpt>
      <trkpt lat="45.35115" lon="4.16247">
        <ele>512.6</ele>
        <time>2014-04-13T09:41:09Z</time>
      </trkpt>
      <trkpt lat="45.35093" lon="4.1626">
        <ele>506.1</ele>
        <time>2014-04-13T09:41:15Z</time>
      </trkpt>
      <trkpt lat="45.35093" lon="4.1626">
        <ele>506.1</ele>
        <time>2014-04-13T09:41:21Z</time>
      </trkpt>
      <trkpt lat="45.35093" lon="4.1626">
        <ele>487</ele>
        <time>2014-04-13T09:41:21Z</time>
      </trkpt>
      <trkpt lat="45.35093" lon="4.1626">
        <ele>487</ele>
        <time>2014-04-13T09:47:11Z</time>
      </trkpt>
      <trkpt lat="45.35078" lon="4.16224">
        <ele>508.9</ele>
        <time>2014-04-13T09:47:11Z</time>
      </trkpt>
      <trkpt lat="45.35078" lon="4.16224">
        <ele>508.9</ele>
        <time>2014-04-13T09:50:43Z</time>
      </trkpt>
      <trkpt lat="45.35056" lon="4.16235">
        <ele>559</ele>
        <time>2014-04-13T09:52:25Z</time>
      </trkpt>
      <trkpt lat="45.3503" lon="4.1627">
        <ele>561</ele>
        <time>2014-04-13T09:52:37Z</time>
      </trkpt>
      <trkpt lat="45.35021" lon="4.16283">
        <ele>561.4</ele>
        <time>2014-04-13T09:52:45Z</time>
      </trkpt>
      <trkpt lat="45.34984" lon="4.16356">
        <ele>561.9</ele>
        <time>2014-04-13T09:53:01Z</time>
      </trkpt>
      <trkpt lat="45.34971" lon="4.16399">
        <ele>561.9</ele>
        <time>2014-04-13T09:53:07Z</time>
      </trkpt>
      <trkpt lat="45.34956" lon="4.16428">
        <ele>561.6</ele>
        <time>2014-04-13T09:53:13Z</time>
      </trkpt>
      <trkpt lat="45.3495" lon="4.16436">
        <ele>560.6</ele>
        <time>2014-04-13T09:53:17Z</time>
      </trkpt>
      <trkpt lat="45.3495" lon="4.16436">
        <ele>489.8</ele>
        <time>2014-04-13T09:53:25Z</time>
      </trkpt>
      <trkpt lat="45.3495" lon="4.16436">
        <ele>489.8</ele>
        <time>2014-04-13T09:53:37Z</time>
      </trkpt>
      <trkpt lat="45.34947" lon="4.16444">
        <ele>561.2</ele>
        <time>2014-04-13T09:53:37Z</time>
      </trkpt>
      <trkpt lat="45.34939" lon="4.16473">
        <ele>560.4</ele>
        <time>2014-04-13T09:53:51Z</time>
      </trkpt>
      <trkpt lat="45.34928" lon="4.165">
        <ele>559.8</ele>
        <time>2014-04-13T09:53:59Z</time>
      </trkpt>
      <trkpt lat="45.34916" lon="4.16519">
        <ele>560.4</ele>
        <time>2014-04-13T09:54:05Z</time>
      </trkpt>
      <trkpt lat="45.3491" lon="4.16548">
        <ele>561.4</ele>
        <time>2014-04-13T09:54:11Z</time>
      </trkpt>
      <trkpt lat="45.34906" lon="4.16582">
        <ele>563</ele>
        <time>2014-04-13T09:54:17Z</time>
      </trkpt>
      <trkpt lat="45.34893" lon="4.16614">
        <ele>563</ele>
        <time>2014-04-13T09:54:23Z</time>
      </trkpt>
      <trkpt lat="45.34872" lon="4.1664">
        <ele>563.6</ele>
        <time>2014-04-13T09:54:29Z</time>
      </trkpt>
      <trkpt lat="45.34847" lon="4.16658">
        <ele>565.1</ele>
        <time>2014-04-13T09:54:37Z</time>
      </trkpt>
      <trkpt lat="45.34847" lon="4.16658">
        <ele>565.1</ele>
        <time>2014-04-13T09:54:43Z</time>
      </trkpt>
      <trkpt lat="45.34847" lon="4.16658">
        <ele>485.3</ele>
        <time>2014-04-13T09:54:43Z</time>
      </trkpt>
      <trkpt lat="45.34847" lon="4.16658">
        <ele>485.3</ele>
        <time>2014-04-13T09:55:15Z</time>
      </trkpt>
      <trkpt lat="45.3482" lon="4.16648">
        <ele>567.5</ele>
        <time>2014-04-13T09:55:15Z</time>
      </trkpt>
      <trkpt lat="45.34801" lon="4.16639">
        <ele>568.6</ele>
        <time>2014-04-13T09:55:21Z</time>
      </trkpt>
      <trkpt lat="45.3477" lon="4.16616">
        <ele>567.8</ele>
        <time>2014-04-13T09:55:29Z</time>
      </trkpt>
      <trkpt lat="45.34747" lon="4.166">
        <ele>563.4</ele>
        <time>2014-04-13T09:55:35Z</time>
      </trkpt>
      <trkpt lat="45.34727" lon="4.16588">
        <ele>553.2</ele>
        <time>2014-04-13T09:55:41Z</time>
      </trkpt>
      <trkpt lat="45.34699" lon="4.16582">
        <ele>540</ele>
        <time>2014-04-13T09:55:49Z</time>
      </trkpt>
      <trkpt lat="45.34675" lon="4.16572">
        <ele>535.6</ele>
        <time>2014-04-13T09:55:55Z</time>
      </trkpt>
      <trkpt lat="45.34658" lon="4.1657">
        <ele>528</ele>
        <time>2014-04-13T09:56:03Z</time>
      </trkpt>
      <trkpt lat="45.34652" lon="4.16588">
        <ele>523.1</ele>
        <time>2014-04-13T09:56:13Z</time>
      </trkpt>
      <trkpt lat="45.34663" lon="4.16606">
        <ele>525.3</ele>
        <time>2014-04-13T09:56:25Z</time>
      </trkpt>
      <trkpt lat="45.34682" lon="4.16617">
        <ele>529</ele>
        <time>2014-04-13T09:56:41Z</time>
      </trkpt>
      <trkpt lat="45.34706" lon="4.16636">
        <ele>530.3</ele>
        <time>2014-04-13T09:56:53Z</time>
      </trkpt>
      <trkpt lat="45.34712" lon="4.16658">
        <ele>530.2</ele>
        <time>2014-04-13T09:57:03Z</time>
      </trkpt>
      <trkpt lat="45.34707" lon="4.16687">
        <ele>527.3</ele>
        <time>2014-04-13T09:57:19Z</time>
      </trkpt>
      <trkpt lat="45.34692" lon="4.16717">
        <ele>524.3</ele>
        <time>2014-04-13T09:57:33Z</time>
      </trkpt>
      <trkpt lat="45.3468" lon="4.16738">
        <ele>524</ele>
        <time>2014-04-13T09:57:43Z</time>
      </trkpt>
      <trkpt lat="45.34662" lon="4.1677">
        <ele>526.3</ele>
        <time>2014-04-13T09:57:57Z</time>
      </trkpt>
      <trkpt lat="45.34651" lon="4.16794">
        <ele>527.9</ele>
        <time>2014-04-13T09:58:07Z</time>
      </trkpt>
      <trkpt lat="45.34633" lon="4.16813">
        <ele>530</ele>
        <time>2014-04-13T09:58:17Z</time>
      </trkpt>
      <trkpt lat="45.34615" lon="4.16833">
        <ele>533.1</ele>
        <time>2014-04-13T09:58:29Z</time>
      </trkpt>
      <trkpt lat="45.3461" lon="4.16851">
        <ele>536</ele>
        <time>2014-04-13T09:58:37Z</time>
      </trkpt>
      <trkpt lat="45.34597" lon="4.1688">
        <ele>542.4</ele>
        <time>2014-04-13T09:58:51Z</time>
      </trkpt>
      <trkpt lat="45.34589" lon="4.1691">
        <ele>546.5</ele>
        <time>2014-04-13T09:59:03Z</time>
      </trkpt>
      <trkpt lat="45.34583" lon="4.16941">
        <ele>550.3</ele>
        <time>2014-04-13T09:59:15Z</time>
      </trkpt>
      <trkpt lat="45.34599" lon="4.16986">
        <ele>552.6</ele>
        <time>2014-04-13T09:59:27Z</time>
      </trkpt>
      <trkpt lat="45.34597" lon="4.17017">
        <ele>556.8</ele>
        <time>2014-04-13T09:59:39Z</time>
      </trkpt>
      <trkpt lat="45.34601" lon="4.17047">
        <ele>559.6</ele>
        <time>2014-04-13T09:59:51Z</time>
      </trkpt>
      <trkpt lat="45.34594" lon="4.17075">
        <ele>561.3</ele>
        <time>2014-04-13T10:00:03Z</time>
      </trkpt>
      <trkpt lat="45.34581" lon="4.17094">
        <ele>565.2</ele>
        <time>2014-04-13T10:00:15Z</time>
      </trkpt>
      <trkpt lat="45.34562" lon="4.17119">
        <ele>565.8</ele>
        <time>2014-04-13T10:00:27Z</time>
      </trkpt>
      <trkpt lat="45.34548" lon="4.1713">
        <ele>568.3</ele>
        <time>2014-04-13T10:00:35Z</time>
      </trkpt>
      <trkpt lat="45.34531" lon="4.17148">
        <ele>571.8</ele>
        <time>2014-04-13T10:00:45Z</time>
      </trkpt>
      <trkpt lat="45.34523" lon="4.17163">
        <ele>574</ele>
        <time>2014-04-13T10:00:53Z</time>
      </trkpt>
      <trkpt lat="45.34502" lon="4.17179">
        <ele>579.6</ele>
        <time>2014-04-13T10:01:05Z</time>
      </trkpt>
      <trkpt lat="45.34484" lon="4.17193">
        <ele>585.5</ele>
        <time>2014-04-13T10:01:15Z</time>
      </trkpt>
      <trkpt lat="45.34479" lon="4.17228">
        <ele>592.1</ele>
        <time>2014-04-13T10:01:29Z</time>
      </trkpt>
      <trkpt lat="45.34463" lon="4.17247">
        <ele>597.4</ele>
        <time>2014-04-13T10:01:41Z</time>
      </trkpt>
      <trkpt lat="45.34458" lon="4.17267">
        <ele>603.8</ele>
        <time>2014-04-13T10:01:49Z</time>
      </trkpt>
      <trkpt lat="45.34457" lon="4.17289">
        <ele>605.7</ele>
        <time>2014-04-13T10:01:57Z</time>
      </trkpt>
      <trkpt lat="45.34448" lon="4.17309">
        <ele>607.9</ele>
        <time>2014-04-13T10:02:06Z</time>
      </trkpt>
      <trkpt lat="45.34435" lon="4.17337">
        <ele>609</ele>
        <time>2014-04-13T10:02:17Z</time>
      </trkpt>
      <trkpt lat="45.34436" lon="4.17365">
        <ele>603.8</ele>
        <time>2014-04-13T10:02:25Z</time>
      </trkpt>
      <trkpt lat="45.34439" lon="4.17387">
        <ele>602.2</ele>
        <time>2014-04-13T10:02:33Z</time>
      </trkpt>
      <trkpt lat="45.34446" lon="4.17418">
        <ele>602.3</ele>
        <time>2014-04-13T10:02:45Z</time>
      </trkpt>
      <trkpt lat="45.34452" lon="4.17441">
        <ele>603.4</ele>
        <time>2014-04-13T10:02:55Z</time>
      </trkpt>
      <trkpt lat="45.34453" lon="4.17468">
        <ele>602.1</ele>
        <time>2014-04-13T10:03:07Z</time>
      </trkpt>
      <trkpt lat="45.3445" lon="4.17489">
        <ele>599.9</ele>
        <time>2014-04-13T10:03:17Z</time>
      </trkpt>
      <trkpt lat="45.3445" lon="4.17489">
        <ele>599.9</ele>
        <time>2014-04-13T10:03:27Z</time>
      </trkpt>
      <trkpt lat="45.3445" lon="4.17489">
        <ele>557.8</ele>
        <time>2014-04-13T10:03:27Z</time>
      </trkpt>
      <trkpt lat="45.3445" lon="4.17489">
        <ele>557.8</ele>
        <time>2014-04-13T10:07:53Z</time>
      </trkpt>
      <trkpt lat="45.34461" lon="4.17528">
        <ele>575.3</ele>
        <time>2014-04-13T10:07:53Z</time>
      </trkpt>
      <trkpt lat="45.34458" lon="4.17554">
        <ele>573.5</ele>
        <time>2014-04-13T10:08:01Z</time>
      </trkpt>
      <trkpt lat="45.34468" lon="4.17586">
        <ele>571.9</ele>
        <time>2014-04-13T10:08:09Z</time>
      </trkpt>
      <trkpt lat="45.34477" lon="4.17609">
        <ele>570.3</ele>
        <time>2014-04-13T10:08:15Z</time>
      </trkpt>
      <trkpt lat="45.34492" lon="4.17638">
        <ele>567.4</ele>
        <time>2014-04-13T10:08:23Z</time>
      </trkpt>
      <trkpt lat="45.34506" lon="4.17652">
        <ele>566.1</ele>
        <time>2014-04-13T10:08:29Z</time>
      </trkpt>
      <trkpt lat="45.34519" lon="4.17669">
        <ele>565.7</ele>
        <time>2014-04-13T10:08:35Z</time>
      </trkpt>
      <trkpt lat="45.34525" lon="4.17702">
        <ele>567.1</ele>
        <time>2014-04-13T10:08:45Z</time>
      </trkpt>
      <trkpt lat="45.34537" lon="4.17731">
        <ele>567.5</ele>
        <time>2014-04-13T10:08:55Z</time>
      </trkpt>
      <trkpt lat="45.34552" lon="4.1774">
        <ele>567.5</ele>
        <time>2014-04-13T10:09:02Z</time>
      </trkpt>
      <trkpt lat="45.34572" lon="4.17751">
        <ele>569.1</ele>
        <time>2014-04-13T10:09:11Z</time>
      </trkpt>
      <trkpt lat="45.34579" lon="4.17766">
        <ele>571.3</ele>
        <time>2014-04-13T10:09:17Z</time>
      </trkpt>
      <trkpt lat="45.34583" lon="4.17781">
        <ele>572.6</ele>
        <time>2014-04-13T10:09:22Z</time>
      </trkpt>
      <trkpt lat="45.3459" lon="4.17801">
        <ele>575.1</ele>
        <time>2014-04-13T10:09:29Z</time>
      </trkpt>
      <trkpt lat="45.346" lon="4.17828">
        <ele>577.2</ele>
        <time>2014-04-13T10:09:37Z</time>
      </trkpt>
      <trkpt lat="45.34612" lon="4.17854">
        <ele>577.9</ele>
        <time>2014-04-13T10:09:45Z</time>
      </trkpt>
      <trkpt lat="45.34622" lon="4.17873">
        <ele>578.8</ele>
        <time>2014-04-13T10:09:51Z</time>
      </trkpt>
      <trkpt lat="45.34634" lon="4.17901">
        <ele>580</ele>
        <time>2014-04-13T10:09:59Z</time>
      </trkpt>
      <trkpt lat="45.34642" lon="4.17921">
        <ele>581</ele>
        <time>2014-04-13T10:10:05Z</time>
      </trkpt>
      <trkpt lat="45.34658" lon="4.17946">
        <ele>582</ele>
        <time>2014-04-13T10:10:13Z</time>
      </trkpt>
      <trkpt lat="45.34674" lon="4.17965">
        <ele>581.2</ele>
        <time>2014-04-13T10:10:19Z</time>
      </trkpt>
      <trkpt lat="45.34703" lon="4.17989">
        <ele>579.2</ele>
        <time>2014-04-13T10:10:27Z</time>
      </trkpt>
      <trkpt lat="45.34726" lon="4.18001">
        <ele>578.6</ele>
        <time>2014-04-13T10:10:33Z</time>
      </trkpt>
      <trkpt lat="45.34757" lon="4.1801">
        <ele>577.6</ele>
        <time>2014-04-13T10:10:41Z</time>
      </trkpt>
      <trkpt lat="45.34784" lon="4.18016">
        <ele>577.3</ele>
        <time>2014-04-13T10:10:49Z</time>
      </trkpt>
      <trkpt lat="45.34813" lon="4.18022">
        <ele>577.1</ele>
        <time>2014-04-13T10:10:57Z</time>
      </trkpt>
      <trkpt lat="45.34839" lon="4.18036">
        <ele>577.1</ele>
        <time>2014-04-13T10:11:05Z</time>
      </trkpt>
      <trkpt lat="45.34849" lon="4.18054">
        <ele>578.6</ele>
        <time>2014-04-13T10:11:10Z</time>
      </trkpt>
      <trkpt lat="45.34866" lon="4.18075">
        <ele>580.8</ele>
        <time>2014-04-13T10:11:17Z</time>
      </trkpt>
      <trkpt lat="45.34883" lon="4.18086">
        <ele>581.1</ele>
        <time>2014-04-13T10:11:23Z</time>
      </trkpt>
      <trkpt lat="45.34914" lon="4.181">
        <ele>579.2</ele>
        <time>2014-04-13T10:11:31Z</time>
      </trkpt>
      <trkpt lat="45.34958" lon="4.18128">
        <ele>574</ele>
        <time>2014-04-13T10:11:37Z</time>
      </trkpt>
      <trkpt lat="45.35013" lon="4.18135">
        <ele>566.9</ele>
        <time>2014-04-13T10:11:43Z</time>
      </trkpt>
      <trkpt lat="45.35062" lon="4.18135">
        <ele>560.3</ele>
        <time>2014-04-13T10:11:49Z</time>
      </trkpt>
      <trkpt lat="45.35109" lon="4.18153">
        <ele>554.1</ele>
        <time>2014-04-13T10:11:55Z</time>
      </trkpt>
      <trkpt lat="45.35166" lon="4.18175">
        <ele>541.5</ele>
        <time>2014-04-13T10:12:05Z</time>
      </trkpt>
      <trkpt lat="45.35187" lon="4.18192">
        <ele>535.3</ele>
        <time>2014-04-13T10:12:11Z</time>
      </trkpt>
      <trkpt lat="45.35207" lon="4.18215">
        <ele>528.8</ele>
        <time>2014-04-13T10:12:19Z</time>
      </trkpt>
      <trkpt lat="45.35229" lon="4.18216">
        <ele>523.3</ele>
        <time>2014-04-13T10:12:25Z</time>
      </trkpt>
      <trkpt lat="45.35268" lon="4.18236">
        <ele>517.2</ele>
        <time>2014-04-13T10:12:33Z</time>
      </trkpt>
      <trkpt lat="45.35304" lon="4.18278">
        <ele>512.8</ele>
        <time>2014-04-13T10:12:39Z</time>
      </trkpt>
      <trkpt lat="45.35335" lon="4.18337">
        <ele>507.9</ele>
        <time>2014-04-13T10:12:45Z</time>
      </trkpt>
      <trkpt lat="45.35356" lon="4.18378">
        <ele>503.7</ele>
        <time>2014-04-13T10:12:51Z</time>
      </trkpt>
      <trkpt lat="45.35379" lon="4.18377">
        <ele>500.3</ele>
        <time>2014-04-13T10:12:59Z</time>
      </trkpt>
      <trkpt lat="45.35398" lon="4.18357">
        <ele>499.1</ele>
        <time>2014-04-13T10:13:07Z</time>
      </trkpt>
      <trkpt lat="45.35407" lon="4.18339">
        <ele>498.4</ele>
        <time>2014-04-13T10:13:15Z</time>
      </trkpt>
      <trkpt lat="45.35415" lon="4.18319">
        <ele>499.6</ele>
        <time>2014-04-13T10:13:21Z</time>
      </trkpt>
      <trkpt lat="45.35428" lon="4.18299">
        <ele>499.7</ele>
        <time>2014-04-13T10:13:29Z</time>
      </trkpt>
      <trkpt lat="45.35445" lon="4.18292">
        <ele>501.7</ele>
        <time>2014-04-13T10:13:39Z</time>
      </trkpt>
      <trkpt lat="45.35458" lon="4.18309">
        <ele>504.9</ele>
        <time>2014-04-13T10:13:49Z</time>
      </trkpt>
      <trkpt lat="45.35474" lon="4.18331">
        <ele>507.9</ele>
        <time>2014-04-13T10:14:01Z</time>
      </trkpt>
      <trkpt lat="45.35485" lon="4.18358">
        <ele>511.7</ele>
        <time>2014-04-13T10:14:14Z</time>
      </trkpt>
      <trkpt lat="45.35493" lon="4.18396">
        <ele>514.7</ele>
        <time>2014-04-13T10:14:27Z</time>
      </trkpt>
      <trkpt lat="45.355" lon="4.18426">
        <ele>515.8</ele>
        <time>2014-04-13T10:14:37Z</time>
      </trkpt>
      <trkpt lat="45.35508" lon="4.18459">
        <ele>516.1</ele>
        <time>2014-04-13T10:14:47Z</time>
      </trkpt>
      <trkpt lat="45.35514" lon="4.18477">
        <ele>516.4</ele>
        <time>2014-04-13T10:14:53Z</time>
      </trkpt>
      <trkpt lat="45.35515" lon="4.18496">
        <ele>516.8</ele>
        <time>2014-04-13T10:14:59Z</time>
      </trkpt>
      <trkpt lat="45.35503" lon="4.18517">
        <ele>516.6</ele>
        <time>2014-04-13T10:15:05Z</time>
      </trkpt>
      <trkpt lat="45.35487" lon="4.18535">
        <ele>516.2</ele>
        <time>2014-04-13T10:15:11Z</time>
      </trkpt>
      <trkpt lat="45.3548" lon="4.1856">
        <ele>514.9</ele>
        <time>2014-04-13T10:15:17Z</time>
      </trkpt>
      <trkpt lat="45.35488" lon="4.18578">
        <ele>514.6</ele>
        <time>2014-04-13T10:15:23Z</time>
      </trkpt>
      <trkpt lat="45.35503" lon="4.18593">
        <ele>513.8</ele>
        <time>2014-04-13T10:15:29Z</time>
      </trkpt>
      <trkpt lat="45.35519" lon="4.18607">
        <ele>513</ele>
        <time>2014-04-13T10:15:35Z</time>
      </trkpt>
      <trkpt lat="45.3554" lon="4.18618">
        <ele>511.4</ele>
        <time>2014-04-13T10:15:41Z</time>
      </trkpt>
      <trkpt lat="45.35564" lon="4.1863">
        <ele>510.1</ele>
        <time>2014-04-13T10:15:47Z</time>
      </trkpt>
      <trkpt lat="45.35587" lon="4.18642">
        <ele>508.9</ele>
        <time>2014-04-13T10:15:53Z</time>
      </trkpt>
      <trkpt lat="45.35605" lon="4.18657">
        <ele>507.7</ele>
        <time>2014-04-13T10:15:59Z</time>
      </trkpt>
      <trkpt lat="45.35628" lon="4.18687">
        <ele>507.6</ele>
        <time>2014-04-13T10:16:09Z</time>
      </trkpt>
      <trkpt lat="45.35644" lon="4.18712">
        <ele>509</ele>
        <time>2014-04-13T10:16:17Z</time>
      </trkpt>
      <trkpt lat="45.35654" lon="4.1873">
        <ele>509.9</ele>
        <time>2014-04-13T10:16:23Z</time>
      </trkpt>
      <trkpt lat="45.35661" lon="4.18752">
        <ele>511</ele>
        <time>2014-04-13T10:16:29Z</time>
      </trkpt>
      <trkpt lat="45.35671" lon="4.18769">
        <ele>512.1</ele>
        <time>2014-04-13T10:16:35Z</time>
      </trkpt>
      <trkpt lat="45.35681" lon="4.18781">
        <ele>513</ele>
        <time>2014-04-13T10:16:41Z</time>
      </trkpt>
      <trkpt lat="45.35694" lon="4.188">
        <ele>515.4</ele>
        <time>2014-04-13T10:16:51Z</time>
      </trkpt>
      <trkpt lat="45.357" lon="4.18818">
        <ele>517.8</ele>
        <time>2014-04-13T10:17:01Z</time>
      </trkpt>
      <trkpt lat="45.35707" lon="4.18848">
        <ele>522.5</ele>
        <time>2014-04-13T10:17:17Z</time>
      </trkpt>
      <trkpt lat="45.35711" lon="4.18864">
        <ele>525.9</ele>
        <time>2014-04-13T10:17:27Z</time>
      </trkpt>
      <trkpt lat="45.35711" lon="4.18864">
        <ele>525.9</ele>
        <time>2014-04-13T10:17:35Z</time>
      </trkpt>
      <trkpt lat="45.35711" lon="4.18864">
        <ele>532.5</ele>
        <time>2014-04-13T10:17:35Z</time>
      </trkpt>
      <trkpt lat="45.35711" lon="4.18864">
        <ele>532.5</ele>
        <time>2014-04-13T10:17:57Z</time>
      </trkpt>
      <trkpt lat="45.35721" lon="4.18896">
        <ele>529</ele>
        <time>2014-04-13T10:17:57Z</time>
      </trkpt>
      <trkpt lat="45.35732" lon="4.18917">
        <ele>531.7</ele>
        <time>2014-04-13T10:18:09Z</time>
      </trkpt>
      <trkpt lat="45.35746" lon="4.18941">
        <ele>535</ele>
        <time>2014-04-13T10:18:23Z</time>
      </trkpt>
      <trkpt lat="45.3576" lon="4.18955">
        <ele>537.5</ele>
        <time>2014-04-13T10:18:33Z</time>
      </trkpt>
      <trkpt lat="45.35763" lon="4.18936">
        <ele>541.1</ele>
        <time>2014-04-13T10:18:43Z</time>
      </trkpt>
      <trkpt lat="45.35767" lon="4.18919">
        <ele>543.3</ele>
        <time>2014-04-13T10:18:51Z</time>
      </trkpt>
      <trkpt lat="45.35767" lon="4.18919">
        <ele>549.5</ele>
        <time>2014-04-13T10:18:59Z</time>
      </trkpt>
      <trkpt lat="45.35767" lon="4.18919">
        <ele>549.5</ele>
        <time>2014-04-13T10:22:07Z</time>
      </trkpt>
      <trkpt lat="45.35781" lon="4.18898">
        <ele>544</ele>
        <time>2014-04-13T10:22:07Z</time>
      </trkpt>
      <trkpt lat="45.35798" lon="4.18878">
        <ele>544.1</ele>
        <time>2014-04-13T10:22:17Z</time>
      </trkpt>
      <trkpt lat="45.35809" lon="4.18863">
        <ele>543.9</ele>
        <time>2014-04-13T10:22:23Z</time>
      </trkpt>
      <trkpt lat="45.35825" lon="4.18839">
        <ele>543.9</ele>
        <time>2014-04-13T10:22:31Z</time>
      </trkpt>
      <trkpt lat="45.35842" lon="4.18808">
        <ele>544.4</ele>
        <time>2014-04-13T10:22:39Z</time>
      </trkpt>
      <trkpt lat="45.35851" lon="4.18781">
        <ele>544.5</ele>
        <time>2014-04-13T10:22:45Z</time>
      </trkpt>
      <trkpt lat="45.35856" lon="4.18751">
        <ele>545.6</ele>
        <time>2014-04-13T10:22:51Z</time>
      </trkpt>
      <trkpt lat="45.35861" lon="4.18721">
        <ele>546.5</ele>
        <time>2014-04-13T10:22:57Z</time>
      </trkpt>
      <trkpt lat="45.35859" lon="4.18691">
        <ele>546.9</ele>
        <time>2014-04-13T10:23:03Z</time>
      </trkpt>
      <trkpt lat="45.35855" lon="4.18645">
        <ele>545.7</ele>
        <time>2014-04-13T10:23:09Z</time>
      </trkpt>
      <trkpt lat="45.35861" lon="4.18592">
        <ele>544.8</ele>
        <time>2014-04-13T10:23:15Z</time>
      </trkpt>
      <trkpt lat="45.35874" lon="4.18551">
        <ele>544.4</ele>
        <time>2014-04-13T10:23:21Z</time>
      </trkpt>
      <trkpt lat="45.35891" lon="4.18498">
        <ele>544</ele>
        <time>2014-04-13T10:23:29Z</time>
      </trkpt>
      <trkpt lat="45.35896" lon="4.18461">
        <ele>544.4</ele>
        <time>2014-04-13T10:23:35Z</time>
      </trkpt>
      <trkpt lat="45.35894" lon="4.18429">
        <ele>545</ele>
        <time>2014-04-13T10:23:41Z</time>
      </trkpt>
      <trkpt lat="45.35917" lon="4.18443">
        <ele>543.9</ele>
        <time>2014-04-13T10:23:49Z</time>
      </trkpt>
      <trkpt lat="45.35953" lon="4.18491">
        <ele>539.3</ele>
        <time>2014-04-13T10:23:57Z</time>
      </trkpt>
      <trkpt lat="45.3602" lon="4.18568">
        <ele>530.6</ele>
        <time>2014-04-13T10:24:09Z</time>
      </trkpt>
      <trkpt lat="45.36031" lon="4.18593">
        <ele>525.8</ele>
        <time>2014-04-13T10:24:15Z</time>
      </trkpt>
      <trkpt lat="45.36027" lon="4.18554">
        <ele>520.5</ele>
        <time>2014-04-13T10:24:23Z</time>
      </trkpt>
      <trkpt lat="45.36014" lon="4.18523">
        <ele>517.7</ele>
        <time>2014-04-13T10:24:29Z</time>
      </trkpt>
      <trkpt lat="45.36003" lon="4.18494">
        <ele>514.7</ele>
        <time>2014-04-13T10:24:35Z</time>
      </trkpt>
      <trkpt lat="45.36023" lon="4.18479">
        <ele>510.4</ele>
        <time>2014-04-13T10:24:43Z</time>
      </trkpt>
      <trkpt lat="45.36039" lon="4.18456">
        <ele>507.4</ele>
        <time>2014-04-13T10:24:49Z</time>
      </trkpt>
      <trkpt lat="45.36042" lon="4.18418">
        <ele>505.2</ele>
        <time>2014-04-13T10:24:55Z</time>
      </trkpt>
      <trkpt lat="45.3604" lon="4.18368">
        <ele>502.5</ele>
        <time>2014-04-13T10:25:03Z</time>
      </trkpt>
      <trkpt lat="45.36057" lon="4.18325">
        <ele>500.2</ele>
        <time>2014-04-13T10:25:09Z</time>
      </trkpt>
      <trkpt lat="45.36075" lon="4.18249">
        <ele>496.4</ele>
        <time>2014-04-13T10:25:17Z</time>
      </trkpt>
      <trkpt lat="45.36083" lon="4.18201">
        <ele>493.6</ele>
        <time>2014-04-13T10:25:23Z</time>
      </trkpt>
      <trkpt lat="45.36094" lon="4.18158">
        <ele>492.7</ele>
        <time>2014-04-13T10:25:31Z</time>
      </trkpt>
      <trkpt lat="45.361" lon="4.18131">
        <ele>492.4</ele>
        <time>2014-04-13T10:25:37Z</time>
      </trkpt>
      <trkpt lat="45.3611" lon="4.18103">
        <ele>492.2</ele>
        <time>2014-04-13T10:25:44Z</time>
      </trkpt>
      <trkpt lat="45.36114" lon="4.18062">
        <ele>491.8</ele>
        <time>2014-04-13T10:25:53Z</time>
      </trkpt>
      <trkpt lat="45.36113" lon="4.18036">
        <ele>492.1</ele>
        <time>2014-04-13T10:25:59Z</time>
      </trkpt>
      <trkpt lat="45.36116" lon="4.18014">
        <ele>492.9</ele>
        <time>2014-04-13T10:26:05Z</time>
      </trkpt>
      <trkpt lat="45.36127" lon="4.18022">
        <ele>495.5</ele>
        <time>2014-04-13T10:26:13Z</time>
      </trkpt>
      <trkpt lat="45.36144" lon="4.18057">
        <ele>501.1</ele>
        <time>2014-04-13T10:26:27Z</time>
      </trkpt>
      <trkpt lat="45.36161" lon="4.18072">
        <ele>509.5</ele>
        <time>2014-04-13T10:26:36Z</time>
      </trkpt>
      <trkpt lat="45.3616" lon="4.18101">
        <ele>514.3</ele>
        <time>2014-04-13T10:26:45Z</time>
      </trkpt>
      <trkpt lat="45.36159" lon="4.18132">
        <ele>517.7</ele>
        <time>2014-04-13T10:26:51Z</time>
      </trkpt>
      <trkpt lat="45.36158" lon="4.18165">
        <ele>521.5</ele>
        <time>2014-04-13T10:26:57Z</time>
      </trkpt>
      <trkpt lat="45.36153" lon="4.18207">
        <ele>526.2</ele>
        <time>2014-04-13T10:27:03Z</time>
      </trkpt>
      <trkpt lat="45.36145" lon="4.18258">
        <ele>530.6</ele>
        <time>2014-04-13T10:27:09Z</time>
      </trkpt>
      <trkpt lat="45.3615" lon="4.1832">
        <ele>534.3</ele>
        <time>2014-04-13T10:27:15Z</time>
      </trkpt>
      <trkpt lat="45.36151" lon="4.1837">
        <ele>538</ele>
        <time>2014-04-13T10:27:21Z</time>
      </trkpt>
      <trkpt lat="45.36159" lon="4.1841">
        <ele>540.6</ele>
        <time>2014-04-13T10:27:27Z</time>
      </trkpt>
      <trkpt lat="45.36177" lon="4.18457">
        <ele>541</ele>
        <time>2014-04-13T10:27:35Z</time>
      </trkpt>
      <trkpt lat="45.3619" lon="4.18489">
        <ele>540</ele>
        <time>2014-04-13T10:27:41Z</time>
      </trkpt>
      <trkpt lat="45.36204" lon="4.18516">
        <ele>538</ele>
        <time>2014-04-13T10:27:47Z</time>
      </trkpt>
      <trkpt lat="45.36223" lon="4.18531">
        <ele>536</ele>
        <time>2014-04-13T10:27:53Z</time>
      </trkpt>
      <trkpt lat="45.3625" lon="4.18529">
        <ele>531.3</ele>
        <time>2014-04-13T10:27:59Z</time>
      </trkpt>
      <trkpt lat="45.3628" lon="4.18524">
        <ele>526.9</ele>
        <time>2014-04-13T10:28:05Z</time>
      </trkpt>
      <trkpt lat="45.3631" lon="4.18544">
        <ele>523.4</ele>
        <time>2014-04-13T10:28:11Z</time>
      </trkpt>
      <trkpt lat="45.36299" lon="4.18573">
        <ele>518.9</ele>
        <time>2014-04-13T10:28:17Z</time>
      </trkpt>
      <trkpt lat="45.36306" lon="4.18576">
        <ele>515.3</ele>
        <time>2014-04-13T10:28:21Z</time>
      </trkpt>
      <trkpt lat="45.36306" lon="4.18576">
        <ele>509.7</ele>
        <time>2014-04-13T10:28:27Z</time>
      </trkpt>
      <trkpt lat="45.36306" lon="4.18576">
        <ele>509.7</ele>
        <time>2014-04-13T10:36:46Z</time>
      </trkpt>
      <trkpt lat="45.36308" lon="4.18543">
        <ele>513.8</ele>
        <time>2014-04-13T10:36:46Z</time>
      </trkpt>
      <trkpt lat="45.36296" lon="4.18533">
        <ele>514.2</ele>
        <time>2014-04-13T10:36:55Z</time>
      </trkpt>
      <trkpt lat="45.36274" lon="4.18531">
        <ele>515.6</ele>
        <time>2014-04-13T10:37:09Z</time>
      </trkpt>
      <trkpt lat="45.36242" lon="4.1854">
        <ele>515.8</ele>
        <time>2014-04-13T10:37:23Z</time>
      </trkpt>
      <trkpt lat="45.36223" lon="4.18534">
        <ele>516.3</ele>
        <time>2014-04-13T10:37:29Z</time>
      </trkpt>
      <trkpt lat="45.36209" lon="4.18526">
        <ele>517.6</ele>
        <time>2014-04-13T10:37:35Z</time>
      </trkpt>
      <trkpt lat="45.36196" lon="4.18509">
        <ele>519</ele>
        <time>2014-04-13T10:37:41Z</time>
      </trkpt>
      <trkpt lat="45.36188" lon="4.18492">
        <ele>520.3</ele>
        <time>2014-04-13T10:37:47Z</time>
      </trkpt>
      <trkpt lat="45.36187" lon="4.1849">
        <ele>520.5</ele>
        <time>2014-04-13T10:37:49Z</time>
      </trkpt>
      <trkpt lat="45.36187" lon="4.1849">
        <ele>522.4</ele>
        <time>2014-04-13T10:37:55Z</time>
      </trkpt>
      <trkpt lat="45.36187" lon="4.1849">
        <ele>522.4</ele>
        <time>2014-04-13T10:38:59Z</time>
      </trkpt>
      <trkpt lat="45.362" lon="4.18516">
        <ele>523.5</ele>
        <time>2014-04-13T10:38:59Z</time>
      </trkpt>
      <trkpt lat="45.36224" lon="4.1853">
        <ele>524.2</ele>
        <time>2014-04-13T10:39:05Z</time>
      </trkpt>
      <trkpt lat="45.36248" lon="4.18531">
        <ele>522.3</ele>
        <time>2014-04-13T10:39:11Z</time>
      </trkpt>
      <trkpt lat="45.36286" lon="4.18526">
        <ele>520.3</ele>
        <time>2014-04-13T10:39:18Z</time>
      </trkpt>
      <trkpt lat="45.36309" lon="4.18563">
        <ele>518.1</ele>
        <time>2014-04-13T10:39:25Z</time>
      </trkpt>
      <trkpt lat="45.36312" lon="4.1858">
        <ele>515.2</ele>
        <time>2014-04-13T10:39:33Z</time>
      </trkpt>
      <trkpt lat="45.36329" lon="4.18598">
        <ele>513.2</ele>
        <time>2014-04-13T10:39:41Z</time>
      </trkpt>
      <trkpt lat="45.36344" lon="4.18601">
        <ele>513.1</ele>
        <time>2014-04-13T10:39:48Z</time>
      </trkpt>
      <trkpt lat="45.36368" lon="4.18617">
        <ele>512.5</ele>
        <time>2014-04-13T10:39:57Z</time>
      </trkpt>
      <trkpt lat="45.36384" lon="4.18614">
        <ele>512.9</ele>
        <time>2014-04-13T10:40:05Z</time>
      </trkpt>
      <trkpt lat="45.36404" lon="4.18623">
        <ele>513.9</ele>
        <time>2014-04-13T10:40:12Z</time>
      </trkpt>
      <trkpt lat="45.3644" lon="4.18631">
        <ele>514.1</ele>
        <time>2014-04-13T10:40:19Z</time>
      </trkpt>
      <trkpt lat="45.36469" lon="4.18622">
        <ele>514.2</ele>
        <time>2014-04-13T10:40:28Z</time>
      </trkpt>
      <trkpt lat="45.36485" lon="4.18615">
        <ele>516</ele>
        <time>2014-04-13T10:40:35Z</time>
      </trkpt>
      <trkpt lat="45.36506" lon="4.18606">
        <ele>517.8</ele>
        <time>2014-04-13T10:40:45Z</time>
      </trkpt>
      <trkpt lat="45.36518" lon="4.18598">
        <ele>519.3</ele>
        <time>2014-04-13T10:40:51Z</time>
      </trkpt>
      <trkpt lat="45.36536" lon="4.18576">
        <ele>520.8</ele>
        <time>2014-04-13T10:41:01Z</time>
      </trkpt>
      <trkpt lat="45.36546" lon="4.18536">
        <ele>522.5</ele>
        <time>2014-04-13T10:41:11Z</time>
      </trkpt>
      <trkpt lat="45.36553" lon="4.18514">
        <ele>524.3</ele>
        <time>2014-04-13T10:41:18Z</time>
      </trkpt>
      <trkpt lat="45.36556" lon="4.18532">
        <ele>527.9</ele>
        <time>2014-04-13T10:41:31Z</time>
      </trkpt>
      <trkpt lat="45.36561" lon="4.18592">
        <ele>529.5</ele>
        <time>2014-04-13T10:41:43Z</time>
      </trkpt>
      <trkpt lat="45.36561" lon="4.18636">
        <ele>526.6</ele>
        <time>2014-04-13T10:41:49Z</time>
      </trkpt>
      <trkpt lat="45.36565" lon="4.18677">
        <ele>520.2</ele>
        <time>2014-04-13T10:41:55Z</time>
      </trkpt>
      <trkpt lat="45.36577" lon="4.18664">
        <ele>508.9</ele>
        <time>2014-04-13T10:42:05Z</time>
      </trkpt>
      <trkpt lat="45.36587" lon="4.18622">
        <ele>502.8</ele>
        <time>2014-04-13T10:42:13Z</time>
      </trkpt>
      <trkpt lat="45.36604" lon="4.18626">
        <ele>498.3</ele>
        <time>2014-04-13T10:42:23Z</time>
      </trkpt>
      <trkpt lat="45.36628" lon="4.1862">
        <ele>496.4</ele>
        <time>2014-04-13T10:42:33Z</time>
      </trkpt>
      <trkpt lat="45.36655" lon="4.18604">
        <ele>495.8</ele>
        <time>2014-04-13T10:42:41Z</time>
      </trkpt>
      <trkpt lat="45.36674" lon="4.18596">
        <ele>496.1</ele>
        <time>2014-04-13T10:42:46Z</time>
      </trkpt>
      <trkpt lat="45.36702" lon="4.18588">
        <ele>497.2</ele>
        <time>2014-04-13T10:42:54Z</time>
      </trkpt>
      <trkpt lat="45.36738" lon="4.18572">
        <ele>499.5</ele>
        <time>2014-04-13T10:43:03Z</time>
      </trkpt>
      <trkpt lat="45.36755" lon="4.18566">
        <ele>501.6</ele>
        <time>2014-04-13T10:43:09Z</time>
      </trkpt>
      <trkpt lat="45.36779" lon="4.18562">
        <ele>505.2</ele>
        <time>2014-04-13T10:43:17Z</time>
      </trkpt>
      <trkpt lat="45.36797" lon="4.18554">
        <ele>507.5</ele>
        <time>2014-04-13T10:43:23Z</time>
      </trkpt>
      <trkpt lat="45.36822" lon="4.18548">
        <ele>510.6</ele>
        <time>2014-04-13T10:43:31Z</time>
      </trkpt>
      <trkpt lat="45.36849" lon="4.18537">
        <ele>515</ele>
        <time>2014-04-13T10:43:39Z</time>
      </trkpt>
      <trkpt lat="45.36861" lon="4.1853">
        <ele>518.6</ele>
        <time>2014-04-13T10:43:47Z</time>
      </trkpt>
      <trkpt lat="45.36882" lon="4.18494">
        <ele>521.5</ele>
        <time>2014-04-13T10:43:57Z</time>
      </trkpt>
      <trkpt lat="45.369" lon="4.18487">
        <ele>523.3</ele>
        <time>2014-04-13T10:44:03Z</time>
      </trkpt>
      <trkpt lat="45.36916" lon="4.18478">
        <ele>526</ele>
        <time>2014-04-13T10:44:09Z</time>
      </trkpt>
      <trkpt lat="45.36936" lon="4.18453">
        <ele>528.3</ele>
        <time>2014-04-13T10:44:17Z</time>
      </trkpt>
      <trkpt lat="45.36954" lon="4.18433">
        <ele>532</ele>
        <time>2014-04-13T10:44:25Z</time>
      </trkpt>
      <trkpt lat="45.36986" lon="4.18421">
        <ele>536</ele>
        <time>2014-04-13T10:44:35Z</time>
      </trkpt>
      <trkpt lat="45.37003" lon="4.18414">
        <ele>534.8</ele>
        <time>2014-04-13T10:44:43Z</time>
      </trkpt>
      <trkpt lat="45.37003" lon="4.18414">
        <ele>534.8</ele>
        <time>2014-04-13T10:44:51Z</time>
      </trkpt>
      <trkpt lat="45.37003" lon="4.18414">
        <ele>493</ele>
        <time>2014-04-13T10:44:51Z</time>
      </trkpt>
      <trkpt lat="45.37003" lon="4.18414">
        <ele>493</ele>
        <time>2014-04-13T10:45:09Z</time>
      </trkpt>
      <trkpt lat="45.37" lon="4.18437">
        <ele>537.9</ele>
        <time>2014-04-13T10:45:09Z</time>
      </trkpt>
      <trkpt lat="45.36989" lon="4.18475">
        <ele>545.8</ele>
        <time>2014-04-13T10:45:23Z</time>
      </trkpt>
      <trkpt lat="45.36982" lon="4.185">
        <ele>549.5</ele>
        <time>2014-04-13T10:45:29Z</time>
      </trkpt>
      <trkpt lat="45.36974" lon="4.18533">
        <ele>555.1</ele>
        <time>2014-04-13T10:45:37Z</time>
      </trkpt>
      <trkpt lat="45.36965" lon="4.18567">
        <ele>560.9</ele>
        <time>2014-04-13T10:45:45Z</time>
      </trkpt>
      <trkpt lat="45.3693" lon="4.18591">
        <ele>566.7</ele>
        <time>2014-04-13T10:45:55Z</time>
      </trkpt>
      <trkpt lat="45.369" lon="4.18611">
        <ele>571</ele>
        <time>2014-04-13T10:46:03Z</time>
      </trkpt>
      <trkpt lat="45.36876" lon="4.18622">
        <ele>575.8</ele>
        <time>2014-04-13T10:46:11Z</time>
      </trkpt>
      <trkpt lat="45.3685" lon="4.18634">
        <ele>581.4</ele>
        <time>2014-04-13T10:46:19Z</time>
      </trkpt>
      <trkpt lat="45.36826" lon="4.18649">
        <ele>586.6</ele>
        <time>2014-04-13T10:46:27Z</time>
      </trkpt>
      <trkpt lat="45.36807" lon="4.18669">
        <ele>591.2</ele>
        <time>2014-04-13T10:46:35Z</time>
      </trkpt>
      <trkpt lat="45.3679" lon="4.18693">
        <ele>595.7</ele>
        <time>2014-04-13T10:46:45Z</time>
      </trkpt>
      <trkpt lat="45.36787" lon="4.18699">
        <ele>598.5</ele>
        <time>2014-04-13T10:46:51Z</time>
      </trkpt>
      <trkpt lat="45.36787" lon="4.18699">
        <ele>514.2</ele>
        <time>2014-04-13T10:46:59Z</time>
      </trkpt>
      <trkpt lat="45.36787" lon="4.18699">
        <ele>514.2</ele>
        <time>2014-04-13T10:48:07Z</time>
      </trkpt>
      <trkpt lat="45.36779" lon="4.18737">
        <ele>600.4</ele>
        <time>2014-04-13T10:48:07Z</time>
      </trkpt>
      <trkpt lat="45.36806" lon="4.18857">
        <ele>594.9</ele>
        <time>2014-04-13T10:48:17Z</time>
      </trkpt>
      <trkpt lat="45.36794" lon="4.18943">
        <ele>590.4</ele>
        <time>2014-04-13T10:48:23Z</time>
      </trkpt>
      <trkpt lat="45.36757" lon="4.18989">
        <ele>584.7</ele>
        <time>2014-04-13T10:48:29Z</time>
      </trkpt>
      <trkpt lat="45.3674" lon="4.19021">
        <ele>577.7</ele>
        <time>2014-04-13T10:48:37Z</time>
      </trkpt>
      <trkpt lat="45.36769" lon="4.19039">
        <ele>570.8</ele>
        <time>2014-04-13T10:48:43Z</time>
      </trkpt>
      <trkpt lat="45.36772" lon="4.19078">
        <ele>565.1</ele>
        <time>2014-04-13T10:48:49Z</time>
      </trkpt>
      <trkpt lat="45.36771" lon="4.19152">
        <ele>558.1</ele>
        <time>2014-04-13T10:48:55Z</time>
      </trkpt>
      <trkpt lat="45.36766" lon="4.19192">
        <ele>552.8</ele>
        <time>2014-04-13T10:49:01Z</time>
      </trkpt>
      <trkpt lat="45.3677" lon="4.19216">
        <ele>545.7</ele>
        <time>2014-04-13T10:49:07Z</time>
      </trkpt>
      <trkpt lat="45.36769" lon="4.19255">
        <ele>536.4</ele>
        <time>2014-04-13T10:49:15Z</time>
      </trkpt>
      <trkpt lat="45.36768" lon="4.19294">
        <ele>529.3</ele>
        <time>2014-04-13T10:49:21Z</time>
      </trkpt>
      <trkpt lat="45.36762" lon="4.1932">
        <ele>520.1</ele>
        <time>2014-04-13T10:49:29Z</time>
      </trkpt>
      <trkpt lat="45.36795" lon="4.19334">
        <ele>510.5</ele>
        <time>2014-04-13T10:49:41Z</time>
      </trkpt>
      <trkpt lat="45.3682" lon="4.19343">
        <ele>506.4</ele>
        <time>2014-04-13T10:49:49Z</time>
      </trkpt>
      <trkpt lat="45.3685" lon="4.19352">
        <ele>502.4</ele>
        <time>2014-04-13T10:49:57Z</time>
      </trkpt>
      <trkpt lat="45.36886" lon="4.19363">
        <ele>498.6</ele>
        <time>2014-04-13T10:50:05Z</time>
      </trkpt>
      <trkpt lat="45.36918" lon="4.19376">
        <ele>495.3</ele>
        <time>2014-04-13T10:50:13Z</time>
      </trkpt>
      <trkpt lat="45.36933" lon="4.194">
        <ele>490.3</ele>
        <time>2014-04-13T10:50:19Z</time>
      </trkpt>
      <trkpt lat="45.36926" lon="4.19447">
        <ele>472.8</ele>
        <time>2014-04-13T10:50:25Z</time>
      </trkpt>
      <trkpt lat="45.36915" lon="4.19478">
        <ele>458.3</ele>
        <time>2014-04-13T10:50:30Z</time>
      </trkpt>
      <trkpt lat="45.36919" lon="4.1953">
        <ele>450.9</ele>
        <time>2014-04-13T10:50:37Z</time>
      </trkpt>
      <trkpt lat="45.36926" lon="4.19582">
        <ele>445.2</ele>
        <time>2014-04-13T10:50:45Z</time>
      </trkpt>
      <trkpt lat="45.36931" lon="4.19616">
        <ele>442.6</ele>
        <time>2014-04-13T10:50:51Z</time>
      </trkpt>
      <trkpt lat="45.36937" lon="4.19652">
        <ele>440.6</ele>
        <time>2014-04-13T10:50:57Z</time>
      </trkpt>
      <trkpt lat="45.36942" lon="4.19689">
        <ele>438.8</ele>
        <time>2014-04-13T10:51:03Z</time>
      </trkpt>
      <trkpt lat="45.36948" lon="4.19722">
        <ele>437.6</ele>
        <time>2014-04-13T10:51:09Z</time>
      </trkpt>
      <trkpt lat="45.36955" lon="4.19769">
        <ele>436.8</ele>
        <time>2014-04-13T10:51:17Z</time>
      </trkpt>
      <trkpt lat="45.36959" lon="4.19792">
        <ele>436.8</ele>
        <time>2014-04-13T10:51:23Z</time>
      </trkpt>
      <trkpt lat="45.36946" lon="4.19801">
        <ele>437.2</ele>
        <time>2014-04-13T10:51:31Z</time>
      </trkpt>
      <trkpt lat="45.36932" lon="4.19827">
        <ele>437.1</ele>
        <time>2014-04-13T10:51:42Z</time>
      </trkpt>
      <trkpt lat="45.36932" lon="4.19827">
        <ele>437.1</ele>
        <time>2014-04-13T10:51:48Z</time>
      </trkpt>
      <trkpt lat="45.36932" lon="4.19827">
        <ele>438.8</ele>
        <time>2014-04-13T10:51:48Z</time>
      </trkpt>
      <trkpt lat="45.36932" lon="4.19827">
        <ele>438.8</ele>
        <time>2014-04-13T10:51:57Z</time>
      </trkpt>
      <trkpt lat="45.36952" lon="4.1981">
        <ele>439.1</ele>
        <time>2014-04-13T10:51:57Z</time>
      </trkpt>
      <trkpt lat="45.36963" lon="4.19818">
        <ele>439.5</ele>
        <time>2014-04-13T10:52:05Z</time>
      </trkpt>
      <trkpt lat="45.36975" lon="4.19846">
        <ele>442.2</ele>
        <time>2014-04-13T10:52:19Z</time>
      </trkpt>
      <trkpt lat="45.3698" lon="4.19879">
        <ele>445.7</ele>
        <time>2014-04-13T10:52:37Z</time>
      </trkpt>
      <trkpt lat="45.3698" lon="4.19879">
        <ele>445.7</ele>
        <time>2014-04-13T11:03:39Z</time>
      </trkpt>
      <trkpt lat="45.36977" lon="4.19847">
        <ele>442.5</ele>
        <time>2014-04-13T11:07:57Z</time>
      </trkpt>
      <trkpt lat="45.36978" lon="4.1981">
        <ele>443.2</ele>
        <time>2014-04-13T11:08:04Z</time>
      </trkpt>
      <trkpt lat="45.36981" lon="4.19761">
        <ele>442.6</ele>
        <time>2014-04-13T11:08:11Z</time>
      </trkpt>
      <trkpt lat="45.36985" lon="4.19702">
        <ele>442</ele>
        <time>2014-04-13T11:08:19Z</time>
      </trkpt>
      <trkpt lat="45.36988" lon="4.19657">
        <ele>440.4</ele>
        <time>2014-04-13T11:08:25Z</time>
      </trkpt>
      <trkpt lat="45.36992" lon="4.19613">
        <ele>439.1</ele>
        <time>2014-04-13T11:08:31Z</time>
      </trkpt>
      <trkpt lat="45.36996" lon="4.19568">
        <ele>438</ele>
        <time>2014-04-13T11:08:37Z</time>
      </trkpt>
      <trkpt lat="45.37" lon="4.19508">
        <ele>437.1</ele>
        <time>2014-04-13T11:08:45Z</time>
      </trkpt>
      <trkpt lat="45.37003" lon="4.19457">
        <ele>436.7</ele>
        <time>2014-04-13T11:08:52Z</time>
      </trkpt>
      <trkpt lat="45.37009" lon="4.19409">
        <ele>436.5</ele>
        <time>2014-04-13T11:08:59Z</time>
      </trkpt>
      <trkpt lat="45.36991" lon="4.1938">
        <ele>436.3</ele>
        <time>2014-04-13T11:09:05Z</time>
      </trkpt>
      <trkpt lat="45.3697" lon="4.19351">
        <ele>436.3</ele>
        <time>2014-04-13T11:09:11Z</time>
      </trkpt>
      <trkpt lat="45.36946" lon="4.19329">
        <ele>436.9</ele>
        <time>2014-04-13T11:09:18Z</time>
      </trkpt>
      <trkpt lat="45.36924" lon="4.19316">
        <ele>437.1</ele>
        <time>2014-04-13T11:09:25Z</time>
      </trkpt>
      <trkpt lat="45.36907" lon="4.19307">
        <ele>437.7</ele>
        <time>2014-04-13T11:09:31Z</time>
      </trkpt>
      <trkpt lat="45.36887" lon="4.19294">
        <ele>437.9</ele>
        <time>2014-04-13T11:09:43Z</time>
      </trkpt>
      <trkpt lat="45.36881" lon="4.19251">
        <ele>439.3</ele>
        <time>2014-04-13T11:11:03Z</time>
      </trkpt>
      <trkpt lat="45.36884" lon="4.19234">
        <ele>440.4</ele>
        <time>2014-04-13T11:11:09Z</time>
      </trkpt>
      <trkpt lat="45.36883" lon="4.19216">
        <ele>441.5</ele>
        <time>2014-04-13T11:11:17Z</time>
      </trkpt>
      <trkpt lat="45.36881" lon="4.1919">
        <ele>442.5</ele>
        <time>2014-04-13T11:11:29Z</time>
      </trkpt>
      <trkpt lat="45.3688" lon="4.19168">
        <ele>444.1</ele>
        <time>2014-04-13T11:11:39Z</time>
      </trkpt>
      <trkpt lat="45.36865" lon="4.19147">
        <ele>445.8</ele>
        <time>2014-04-13T11:11:53Z</time>
      </trkpt>
      <trkpt lat="45.3685" lon="4.1913">
        <ele>446.1</ele>
        <time>2014-04-13T11:12:05Z</time>
      </trkpt>
      <trkpt lat="45.36841" lon="4.19118">
        <ele>446.5</ele>
        <time>2014-04-13T11:12:13Z</time>
      </trkpt>
      <trkpt lat="45.36823" lon="4.19097">
        <ele>448.5</ele>
        <time>2014-04-13T11:12:27Z</time>
      </trkpt>
      <trkpt lat="45.36801" lon="4.19081">
        <ele>449.9</ele>
        <time>2014-04-13T11:12:39Z</time>
      </trkpt>
      <trkpt lat="45.36785" lon="4.19061">
        <ele>451.9</ele>
        <time>2014-04-13T11:12:51Z</time>
      </trkpt>
      <trkpt lat="45.36762" lon="4.19047">
        <ele>454.3</ele>
        <time>2014-04-13T11:13:03Z</time>
      </trkpt>
      <trkpt lat="45.36748" lon="4.19022">
        <ele>458.3</ele>
        <time>2014-04-13T11:13:14Z</time>
      </trkpt>
      <trkpt lat="45.36743" lon="4.19001">
        <ele>460.9</ele>
        <time>2014-04-13T11:13:23Z</time>
      </trkpt>
      <trkpt lat="45.3674" lon="4.1898">
        <ele>462.9</ele>
        <time>2014-04-13T11:13:31Z</time>
      </trkpt>
      <trkpt lat="45.36743" lon="4.18947">
        <ele>468.4</ele>
        <time>2014-04-13T11:13:43Z</time>
      </trkpt>
      <trkpt lat="45.36743" lon="4.18912">
        <ele>472.8</ele>
        <time>2014-04-13T11:13:55Z</time>
      </trkpt>
      <trkpt lat="45.36747" lon="4.18877">
        <ele>477.7</ele>
        <time>2014-04-13T11:14:06Z</time>
      </trkpt>
      <trkpt lat="45.36745" lon="4.18863">
        <ele>479.5</ele>
        <time>2014-04-13T11:14:11Z</time>
      </trkpt>
      <trkpt lat="45.36742" lon="4.18838">
        <ele>482</ele>
        <time>2014-04-13T11:14:19Z</time>
      </trkpt>
      <trkpt lat="45.36731" lon="4.1881">
        <ele>484.9</ele>
        <time>2014-04-13T11:14:30Z</time>
      </trkpt>
      <trkpt lat="45.36715" lon="4.18786">
        <ele>487.3</ele>
        <time>2014-04-13T11:14:43Z</time>
      </trkpt>
      <trkpt lat="45.36705" lon="4.18761">
        <ele>490.9</ele>
        <time>2014-04-13T11:14:55Z</time>
      </trkpt>
      <trkpt lat="45.36707" lon="4.18737">
        <ele>495.7</ele>
        <time>2014-04-13T11:15:07Z</time>
      </trkpt>
      <trkpt lat="45.36718" lon="4.18703">
        <ele>500.4</ele>
        <time>2014-04-13T11:15:21Z</time>
      </trkpt>
      <trkpt lat="45.36738" lon="4.18679">
        <ele>501.5</ele>
        <time>2014-04-13T11:15:29Z</time>
      </trkpt>
      <trkpt lat="45.36782" lon="4.18649">
        <ele>503.4</ele>
        <time>2014-04-13T11:15:39Z</time>
      </trkpt>
      <trkpt lat="45.36816" lon="4.18634">
        <ele>504.6</ele>
        <time>2014-04-13T11:15:45Z</time>
      </trkpt>
      <trkpt lat="45.36852" lon="4.18617">
        <ele>506.6</ele>
        <time>2014-04-13T11:15:51Z</time>
      </trkpt>
      <trkpt lat="45.36897" lon="4.18598">
        <ele>510.5</ele>
        <time>2014-04-13T11:16:01Z</time>
      </trkpt>
      <trkpt lat="45.36913" lon="4.18576">
        <ele>511.8</ele>
        <time>2014-04-13T11:16:07Z</time>
      </trkpt>
      <trkpt lat="45.36926" lon="4.18543">
        <ele>512.7</ele>
        <time>2014-04-13T11:16:13Z</time>
      </trkpt>
      <trkpt lat="45.36937" lon="4.18511">
        <ele>513.9</ele>
        <time>2014-04-13T11:16:19Z</time>
      </trkpt>
      <trkpt lat="45.36949" lon="4.18483">
        <ele>515.4</ele>
        <time>2014-04-13T11:16:25Z</time>
      </trkpt>
      <trkpt lat="45.36972" lon="4.18437">
        <ele>516.9</ele>
        <time>2014-04-13T11:16:35Z</time>
      </trkpt>
      <trkpt lat="45.36994" lon="4.18414">
        <ele>518.1</ele>
        <time>2014-04-13T11:16:43Z</time>
      </trkpt>
      <trkpt lat="45.37002" lon="4.18393">
        <ele>519.2</ele>
        <time>2014-04-13T11:16:49Z</time>
      </trkpt>
      <trkpt lat="45.37019" lon="4.18382">
        <ele>519.8</ele>
        <time>2014-04-13T11:16:57Z</time>
      </trkpt>
      <trkpt lat="45.3703" lon="4.18373">
        <ele>520.4</ele>
        <time>2014-04-13T11:17:03Z</time>
      </trkpt>
      <trkpt lat="45.3703" lon="4.18373">
        <ele>520.4</ele>
        <time>2014-04-13T11:17:11Z</time>
      </trkpt>
      <trkpt lat="45.3703" lon="4.18373">
        <ele>496.8</ele>
        <time>2014-04-13T11:17:11Z</time>
      </trkpt>
      <trkpt lat="45.3703" lon="4.18373">
        <ele>496.8</ele>
        <time>2014-04-13T11:17:37Z</time>
      </trkpt>
      <trkpt lat="45.37008" lon="4.18366">
        <ele>515.1</ele>
        <time>2014-04-13T11:17:37Z</time>
      </trkpt>
      <trkpt lat="45.36981" lon="4.18378">
        <ele>519.3</ele>
        <time>2014-04-13T11:18:11Z</time>
      </trkpt>
      <trkpt lat="45.36965" lon="4.18388">
        <ele>520.8</ele>
        <time>2014-04-13T11:18:23Z</time>
      </trkpt>
      <trkpt lat="45.36951" lon="4.18395">
        <ele>521.8</ele>
        <time>2014-04-13T11:18:33Z</time>
      </trkpt>
      <trkpt lat="45.36928" lon="4.18397">
        <ele>522.8</ele>
        <time>2014-04-13T11:18:45Z</time>
      </trkpt>
      <trkpt lat="45.36901" lon="4.18386">
        <ele>523.4</ele>
        <time>2014-04-13T11:18:57Z</time>
      </trkpt>
      <trkpt lat="45.36883" lon="4.18382">
        <ele>523.5</ele>
        <time>2014-04-13T11:19:07Z</time>
      </trkpt>
      <trkpt lat="45.36873" lon="4.18389">
        <ele>525.8</ele>
        <time>2014-04-13T11:19:17Z</time>
      </trkpt>
      <trkpt lat="45.36849" lon="4.18411">
        <ele>529.1</ele>
        <time>2014-04-13T11:19:29Z</time>
      </trkpt>
      <trkpt lat="45.36835" lon="4.18425">
        <ele>530.6</ele>
        <time>2014-04-13T11:19:35Z</time>
      </trkpt>
      <trkpt lat="45.36823" lon="4.18448">
        <ele>530.8</ele>
        <time>2014-04-13T11:19:41Z</time>
      </trkpt>
      <trkpt lat="45.36799" lon="4.18467">
        <ele>531.2</ele>
        <time>2014-04-13T11:19:49Z</time>
      </trkpt>
      <trkpt lat="45.36774" lon="4.18484">
        <ele>533.4</ele>
        <time>2014-04-13T11:20:01Z</time>
      </trkpt>
      <trkpt lat="45.36749" lon="4.18481">
        <ele>534.2</ele>
        <time>2014-04-13T11:20:11Z</time>
      </trkpt>
      <trkpt lat="45.36749" lon="4.18481">
        <ele>527</ele>
        <time>2014-04-13T11:20:19Z</time>
      </trkpt>
      <trkpt lat="45.36749" lon="4.18481">
        <ele>527</ele>
        <time>2014-04-13T11:20:41Z</time>
      </trkpt>
      <trkpt lat="45.36773" lon="4.18451">
        <ele>539.4</ele>
        <time>2014-04-13T11:20:41Z</time>
      </trkpt>
      <trkpt lat="45.36785" lon="4.18435">
        <ele>541.6</ele>
        <time>2014-04-13T11:20:51Z</time>
      </trkpt>
      <trkpt lat="45.36793" lon="4.18414">
        <ele>543.7</ele>
        <time>2014-04-13T11:21:01Z</time>
      </trkpt>
      <trkpt lat="45.36797" lon="4.18391">
        <ele>545.3</ele>
        <time>2014-04-13T11:21:15Z</time>
      </trkpt>
      <trkpt lat="45.36792" lon="4.18363">
        <ele>549.7</ele>
        <time>2014-04-13T11:21:31Z</time>
      </trkpt>
      <trkpt lat="45.36788" lon="4.18339">
        <ele>551.7</ele>
        <time>2014-04-13T11:21:43Z</time>
      </trkpt>
      <trkpt lat="45.36793" lon="4.18296">
        <ele>555.4</ele>
        <time>2014-04-13T11:22:01Z</time>
      </trkpt>
      <trkpt lat="45.36807" lon="4.18279">
        <ele>559.9</ele>
        <time>2014-04-13T11:22:17Z</time>
      </trkpt>
      <trkpt lat="45.36831" lon="4.18269">
        <ele>565.5</ele>
        <time>2014-04-13T11:22:35Z</time>
      </trkpt>
      <trkpt lat="45.36848" lon="4.18269">
        <ele>571.3</ele>
        <time>2014-04-13T11:22:49Z</time>
      </trkpt>
      <trkpt lat="45.36866" lon="4.18263">
        <ele>574.6</ele>
        <time>2014-04-13T11:23:03Z</time>
      </trkpt>
      <trkpt lat="45.36887" lon="4.18251">
        <ele>580.4</ele>
        <time>2014-04-13T11:23:19Z</time>
      </trkpt>
      <trkpt lat="45.36903" lon="4.18234">
        <ele>583.5</ele>
        <time>2014-04-13T11:23:33Z</time>
      </trkpt>
      <trkpt lat="45.36919" lon="4.1822">
        <ele>586.5</ele>
        <time>2014-04-13T11:23:45Z</time>
      </trkpt>
      <trkpt lat="45.36935" lon="4.18195">
        <ele>591.3</ele>
        <time>2014-04-13T11:24:01Z</time>
      </trkpt>
      <trkpt lat="45.36945" lon="4.18169">
        <ele>595.6</ele>
        <time>2014-04-13T11:24:15Z</time>
      </trkpt>
      <trkpt lat="45.36955" lon="4.18149">
        <ele>598.7</ele>
        <time>2014-04-13T11:24:27Z</time>
      </trkpt>
      <trkpt lat="45.3696" lon="4.18135">
        <ele>600.3</ele>
        <time>2014-04-13T11:24:39Z</time>
      </trkpt>
      <trkpt lat="45.36951" lon="4.18118">
        <ele>602.8</ele>
        <time>2014-04-13T11:24:51Z</time>
      </trkpt>
      <trkpt lat="45.36942" lon="4.18102">
        <ele>605.5</ele>
        <time>2014-04-13T11:25:01Z</time>
      </trkpt>
      <trkpt lat="45.36924" lon="4.18082">
        <ele>610.5</ele>
        <time>2014-04-13T11:25:13Z</time>
      </trkpt>
      <trkpt lat="45.36912" lon="4.18065">
        <ele>614.1</ele>
        <time>2014-04-13T11:25:23Z</time>
      </trkpt>
      <trkpt lat="45.36915" lon="4.18043">
        <ele>617.4</ele>
        <time>2014-04-13T11:25:33Z</time>
      </trkpt>
      <trkpt lat="45.36926" lon="4.18009">
        <ele>620.6</ele>
        <time>2014-04-13T11:25:45Z</time>
      </trkpt>
      <trkpt lat="45.36942" lon="4.17986">
        <ele>624.1</ele>
        <time>2014-04-13T11:25:55Z</time>
      </trkpt>
      <trkpt lat="45.36952" lon="4.17964">
        <ele>627.1</ele>
        <time>2014-04-13T11:26:05Z</time>
      </trkpt>
      <trkpt lat="45.36958" lon="4.17946">
        <ele>629.2</ele>
        <time>2014-04-13T11:26:15Z</time>
      </trkpt>
      <trkpt lat="45.36967" lon="4.17913">
        <ele>632.1</ele>
        <time>2014-04-13T11:26:27Z</time>
      </trkpt>
      <trkpt lat="45.36972" lon="4.17892">
        <ele>632.6</ele>
        <time>2014-04-13T11:26:35Z</time>
      </trkpt>
      <trkpt lat="45.36972" lon="4.17873">
        <ele>632.5</ele>
        <time>2014-04-13T11:26:43Z</time>
      </trkpt>
      <trkpt lat="45.36973" lon="4.17839">
        <ele>633.8</ele>
        <time>2014-04-13T11:26:55Z</time>
      </trkpt>
      <trkpt lat="45.36978" lon="4.17819">
        <ele>636.4</ele>
        <time>2014-04-13T11:27:05Z</time>
      </trkpt>
      <trkpt lat="45.36983" lon="4.1779">
        <ele>637.7</ele>
        <time>2014-04-13T11:27:15Z</time>
      </trkpt>
      <trkpt lat="45.36982" lon="4.17757">
        <ele>639.6</ele>
        <time>2014-04-13T11:27:27Z</time>
      </trkpt>
      <trkpt lat="45.36982" lon="4.17722">
        <ele>642</ele>
        <time>2014-04-13T11:27:41Z</time>
      </trkpt>
      <trkpt lat="45.36987" lon="4.17699">
        <ele>642.6</ele>
        <time>2014-04-13T11:27:51Z</time>
      </trkpt>
      <trkpt lat="45.36992" lon="4.1767">
        <ele>643.7</ele>
        <time>2014-04-13T11:28:03Z</time>
      </trkpt>
      <trkpt lat="45.36995" lon="4.1764">
        <ele>645.5</ele>
        <time>2014-04-13T11:28:17Z</time>
      </trkpt>
      <trkpt lat="45.37006" lon="4.17617">
        <ele>647.8</ele>
        <time>2014-04-13T11:28:31Z</time>
      </trkpt>
      <trkpt lat="45.37009" lon="4.17581">
        <ele>648.2</ele>
        <time>2014-04-13T11:28:47Z</time>
      </trkpt>
      <trkpt lat="45.37014" lon="4.17561">
        <ele>649.1</ele>
        <time>2014-04-13T11:28:59Z</time>
      </trkpt>
      <trkpt lat="45.37016" lon="4.17533">
        <ele>651.6</ele>
        <time>2014-04-13T11:29:18Z</time>
      </trkpt>
      <trkpt lat="45.37017" lon="4.17505">
        <ele>653.9</ele>
        <time>2014-04-13T11:29:32Z</time>
      </trkpt>
      <trkpt lat="45.37025" lon="4.1749">
        <ele>656.5</ele>
        <time>2014-04-13T11:29:45Z</time>
      </trkpt>
      <trkpt lat="45.37042" lon="4.1748">
        <ele>661.5</ele>
        <time>2014-04-13T11:30:01Z</time>
      </trkpt>
      <trkpt lat="45.37032" lon="4.17453">
        <ele>666.6</ele>
        <time>2014-04-13T11:30:21Z</time>
      </trkpt>
      <trkpt lat="45.37026" lon="4.17429">
        <ele>670.2</ele>
        <time>2014-04-13T11:30:35Z</time>
      </trkpt>
      <trkpt lat="45.37036" lon="4.17394">
        <ele>676.5</ele>
        <time>2014-04-13T11:30:53Z</time>
      </trkpt>
      <trkpt lat="45.37041" lon="4.17372">
        <ele>681.1</ele>
        <time>2014-04-13T11:31:05Z</time>
      </trkpt>
      <trkpt lat="45.37043" lon="4.17353">
        <ele>685.6</ele>
        <time>2014-04-13T11:31:17Z</time>
      </trkpt>
      <trkpt lat="45.37049" lon="4.17327">
        <ele>689.6</ele>
        <time>2014-04-13T11:31:29Z</time>
      </trkpt>
      <trkpt lat="45.37053" lon="4.17291">
        <ele>692.4</ele>
        <time>2014-04-13T11:31:42Z</time>
      </trkpt>
      <trkpt lat="45.37048" lon="4.17258">
        <ele>694.7</ele>
        <time>2014-04-13T11:31:53Z</time>
      </trkpt>
      <trkpt lat="45.37041" lon="4.17218">
        <ele>696.3</ele>
        <time>2014-04-13T11:32:01Z</time>
      </trkpt>
      <trkpt lat="45.37029" lon="4.17181">
        <ele>698.1</ele>
        <time>2014-04-13T11:32:09Z</time>
      </trkpt>
      <trkpt lat="45.37028" lon="4.17153">
        <ele>699.8</ele>
        <time>2014-04-13T11:32:15Z</time>
      </trkpt>
      <trkpt lat="45.37024" lon="4.17122">
        <ele>702.3</ele>
        <time>2014-04-13T11:32:25Z</time>
      </trkpt>
      <trkpt lat="45.37018" lon="4.17102">
        <ele>704.6</ele>
        <time>2014-04-13T11:32:33Z</time>
      </trkpt>
      <trkpt lat="45.37014" lon="4.17073">
        <ele>706.5</ele>
        <time>2014-04-13T11:32:41Z</time>
      </trkpt>
      <trkpt lat="45.3702" lon="4.17051">
        <ele>707.5</ele>
        <time>2014-04-13T11:32:47Z</time>
      </trkpt>
      <trkpt lat="45.37038" lon="4.17023">
        <ele>708.1</ele>
        <time>2014-04-13T11:32:57Z</time>
      </trkpt>
      <trkpt lat="45.37048" lon="4.16997">
        <ele>706.6</ele>
        <time>2014-04-13T11:33:06Z</time>
      </trkpt>
      <trkpt lat="45.37052" lon="4.16977">
        <ele>706</ele>
        <time>2014-04-13T11:33:12Z</time>
      </trkpt>
      <trkpt lat="45.37051" lon="4.1695">
        <ele>707.2</ele>
        <time>2014-04-13T11:33:21Z</time>
      </trkpt>
      <trkpt lat="45.37041" lon="4.16927">
        <ele>707.3</ele>
        <time>2014-04-13T11:33:27Z</time>
      </trkpt>
      <trkpt lat="45.37029" lon="4.16899">
        <ele>707.1</ele>
        <time>2014-04-13T11:33:33Z</time>
      </trkpt>
      <trkpt lat="45.37016" lon="4.16873">
        <ele>706.3</ele>
        <time>2014-04-13T11:33:39Z</time>
      </trkpt>
      <trkpt lat="45.37002" lon="4.16835">
        <ele>705.2</ele>
        <time>2014-04-13T11:33:47Z</time>
      </trkpt>
      <trkpt lat="45.36995" lon="4.16808">
        <ele>704.5</ele>
        <time>2014-04-13T11:33:53Z</time>
      </trkpt>
      <trkpt lat="45.36996" lon="4.16771">
        <ele>704.7</ele>
        <time>2014-04-13T11:33:59Z</time>
      </trkpt>
      <trkpt lat="45.37001" lon="4.16739">
        <ele>704.9</ele>
        <time>2014-04-13T11:34:05Z</time>
      </trkpt>
      <trkpt lat="45.37011" lon="4.16707">
        <ele>704.7</ele>
        <time>2014-04-13T11:34:11Z</time>
      </trkpt>
      <trkpt lat="45.37023" lon="4.1668">
        <ele>705.1</ele>
        <time>2014-04-13T11:34:17Z</time>
      </trkpt>
      <trkpt lat="45.37034" lon="4.16656">
        <ele>706</ele>
        <time>2014-04-13T11:34:23Z</time>
      </trkpt>
      <trkpt lat="45.37048" lon="4.16626">
        <ele>708</ele>
        <time>2014-04-13T11:34:31Z</time>
      </trkpt>
      <trkpt lat="45.37058" lon="4.16612">
        <ele>709.1</ele>
        <time>2014-04-13T11:34:37Z</time>
      </trkpt>
      <trkpt lat="45.37073" lon="4.166">
        <ele>711.8</ele>
        <time>2014-04-13T11:34:47Z</time>
      </trkpt>
      <trkpt lat="45.37096" lon="4.16574">
        <ele>714.7</ele>
        <time>2014-04-13T11:34:59Z</time>
      </trkpt>
      <trkpt lat="45.3711" lon="4.16558">
        <ele>715.7</ele>
        <time>2014-04-13T11:35:07Z</time>
      </trkpt>
      <trkpt lat="45.37126" lon="4.16528">
        <ele>717.9</ele>
        <time>2014-04-13T11:35:19Z</time>
      </trkpt>
      <trkpt lat="45.37128" lon="4.16506">
        <ele>717.8</ele>
        <time>2014-04-13T11:35:27Z</time>
      </trkpt>
      <trkpt lat="45.37128" lon="4.16475">
        <ele>718.9</ele>
        <time>2014-04-13T11:35:37Z</time>
      </trkpt>
      <trkpt lat="45.37133" lon="4.16453">
        <ele>719.5</ele>
        <time>2014-04-13T11:35:43Z</time>
      </trkpt>
      <trkpt lat="45.37139" lon="4.16425">
        <ele>718.3</ele>
        <time>2014-04-13T11:35:51Z</time>
      </trkpt>
      <trkpt lat="45.37146" lon="4.16388">
        <ele>718.4</ele>
        <time>2014-04-13T11:36:01Z</time>
      </trkpt>
      <trkpt lat="45.3715" lon="4.16367">
        <ele>719.2</ele>
        <time>2014-04-13T11:36:07Z</time>
      </trkpt>
      <trkpt lat="45.37154" lon="4.16339">
        <ele>720.1</ele>
        <time>2014-04-13T11:36:15Z</time>
      </trkpt>
      <trkpt lat="45.37161" lon="4.16318">
        <ele>720.2</ele>
        <time>2014-04-13T11:36:21Z</time>
      </trkpt>
      <trkpt lat="45.37168" lon="4.16287">
        <ele>719.9</ele>
        <time>2014-04-13T11:36:29Z</time>
      </trkpt>
      <trkpt lat="45.3718" lon="4.16255">
        <ele>719.6</ele>
        <time>2014-04-13T11:36:37Z</time>
      </trkpt>
      <trkpt lat="45.37186" lon="4.16244">
        <ele>719.6</ele>
        <time>2014-04-13T11:36:41Z</time>
      </trkpt>
      <trkpt lat="45.37186" lon="4.16244">
        <ele>716.9</ele>
        <time>2014-04-13T11:36:49Z</time>
      </trkpt>
      <trkpt lat="45.37186" lon="4.16244">
        <ele>716.9</ele>
        <time>2014-04-13T11:36:57Z</time>
      </trkpt>
      <trkpt lat="45.37194" lon="4.1623">
        <ele>719.9</ele>
        <time>2014-04-13T11:36:57Z</time>
      </trkpt>
      <trkpt lat="45.3721" lon="4.16187">
        <ele>718.7</ele>
        <time>2014-04-13T11:37:07Z</time>
      </trkpt>
      <trkpt lat="45.37217" lon="4.16158">
        <ele>718.7</ele>
        <time>2014-04-13T11:37:13Z</time>
      </trkpt>
      <trkpt lat="45.37228" lon="4.16114">
        <ele>718.5</ele>
        <time>2014-04-13T11:37:21Z</time>
      </trkpt>
      <trkpt lat="45.37234" lon="4.16083">
        <ele>717</ele>
        <time>2014-04-13T11:37:26Z</time>
      </trkpt>
      <trkpt lat="45.37252" lon="4.16035">
        <ele>715.4</ele>
        <time>2014-04-13T11:37:35Z</time>
      </trkpt>
      <trkpt lat="45.37265" lon="4.16005">
        <ele>714.9</ele>
        <time>2014-04-13T11:37:41Z</time>
      </trkpt>
      <trkpt lat="45.37283" lon="4.15981">
        <ele>714.8</ele>
        <time>2014-04-13T11:37:47Z</time>
      </trkpt>
      <trkpt lat="45.37301" lon="4.15973">
        <ele>714.3</ele>
        <time>2014-04-13T11:37:53Z</time>
      </trkpt>
      <trkpt lat="45.37324" lon="4.15965">
        <ele>713.8</ele>
        <time>2014-04-13T11:38:01Z</time>
      </trkpt>
      <trkpt lat="45.37345" lon="4.15958">
        <ele>714.3</ele>
        <time>2014-04-13T11:38:09Z</time>
      </trkpt>
      <trkpt lat="45.37361" lon="4.15953">
        <ele>714.7</ele>
        <time>2014-04-13T11:38:15Z</time>
      </trkpt>
      <trkpt lat="45.37377" lon="4.15949">
        <ele>714.6</ele>
        <time>2014-04-13T11:38:21Z</time>
      </trkpt>
      <trkpt lat="45.37398" lon="4.15943">
        <ele>714.5</ele>
        <time>2014-04-13T11:38:29Z</time>
      </trkpt>
      <trkpt lat="45.37415" lon="4.15939">
        <ele>714.3</ele>
        <time>2014-04-13T11:38:37Z</time>
      </trkpt>
      <trkpt lat="45.37434" lon="4.15935">
        <ele>716</ele>
        <time>2014-04-13T11:38:47Z</time>
      </trkpt>
      <trkpt lat="45.37447" lon="4.15929">
        <ele>717.2</ele>
        <time>2014-04-13T11:38:55Z</time>
      </trkpt>
      <trkpt lat="45.37464" lon="4.15936">
        <ele>724.1</ele>
        <time>2014-04-13T11:39:07Z</time>
      </trkpt>
      <trkpt lat="45.37488" lon="4.15928">
        <ele>728.6</ele>
        <time>2014-04-13T11:39:21Z</time>
      </trkpt>
      <trkpt lat="45.37509" lon="4.15925">
        <ele>732.6</ele>
        <time>2014-04-13T11:39:33Z</time>
      </trkpt>
      <trkpt lat="45.37531" lon="4.15917">
        <ele>737.5</ele>
        <time>2014-04-13T11:39:47Z</time>
      </trkpt>
      <trkpt lat="45.37546" lon="4.15904">
        <ele>741.6</ele>
        <time>2014-04-13T11:39:57Z</time>
      </trkpt>
      <trkpt lat="45.37566" lon="4.15884">
        <ele>744.2</ele>
        <time>2014-04-13T11:40:09Z</time>
      </trkpt>
      <trkpt lat="45.37587" lon="4.15862">
        <ele>745.2</ele>
        <time>2014-04-13T11:40:21Z</time>
      </trkpt>
      <trkpt lat="45.37602" lon="4.15835">
        <ele>746.1</ele>
        <time>2014-04-13T11:40:31Z</time>
      </trkpt>
      <trkpt lat="45.37619" lon="4.15803">
        <ele>749.6</ele>
        <time>2014-04-13T11:40:43Z</time>
      </trkpt>
      <trkpt lat="45.37637" lon="4.15778">
        <ele>752.8</ele>
        <time>2014-04-13T11:40:53Z</time>
      </trkpt>
      <trkpt lat="45.37658" lon="4.15761">
        <ele>754.6</ele>
        <time>2014-04-13T11:40:59Z</time>
      </trkpt>
      <trkpt lat="45.37682" lon="4.15743">
        <ele>755.9</ele>
        <time>2014-04-13T11:41:05Z</time>
      </trkpt>
      <trkpt lat="45.37703" lon="4.1572">
        <ele>756.2</ele>
        <time>2014-04-13T11:41:11Z</time>
      </trkpt>
      <trkpt lat="45.37727" lon="4.15698">
        <ele>756.5</ele>
        <time>2014-04-13T11:41:17Z</time>
      </trkpt>
      <trkpt lat="45.37742" lon="4.15679">
        <ele>757</ele>
        <time>2014-04-13T11:41:23Z</time>
      </trkpt>
      <trkpt lat="45.37761" lon="4.15667">
        <ele>756.6</ele>
        <time>2014-04-13T11:41:29Z</time>
      </trkpt>
      <trkpt lat="45.37784" lon="4.15661">
        <ele>756</ele>
        <time>2014-04-13T11:41:35Z</time>
      </trkpt>
      <trkpt lat="45.37803" lon="4.15661">
        <ele>750.8</ele>
        <time>2014-04-13T11:41:41Z</time>
      </trkpt>
      <trkpt lat="45.37819" lon="4.15669">
        <ele>749.7</ele>
        <time>2014-04-13T11:41:47Z</time>
      </trkpt>
      <trkpt lat="45.37832" lon="4.15679">
        <ele>749.8</ele>
        <time>2014-04-13T11:41:53Z</time>
      </trkpt>
      <trkpt lat="45.37848" lon="4.15679">
        <ele>748.7</ele>
        <time>2014-04-13T11:42:03Z</time>
      </trkpt>
      <trkpt lat="45.37852" lon="4.15661">
        <ele>746.9</ele>
        <time>2014-04-13T11:42:12Z</time>
      </trkpt>
      <trkpt lat="45.37844" lon="4.15637">
        <ele>746.9</ele>
        <time>2014-04-13T11:42:25Z</time>
      </trkpt>
      <trkpt lat="45.3784" lon="4.15609">
        <ele>748.9</ele>
        <time>2014-04-13T11:42:37Z</time>
      </trkpt>
      <trkpt lat="45.3783" lon="4.15588">
        <ele>750.1</ele>
        <time>2014-04-13T11:42:47Z</time>
      </trkpt>
      <trkpt lat="45.37824" lon="4.1557">
        <ele>751.9</ele>
        <time>2014-04-13T11:42:57Z</time>
      </trkpt>
      <trkpt lat="45.37819" lon="4.15542">
        <ele>756.3</ele>
        <time>2014-04-13T11:43:11Z</time>
      </trkpt>
      <trkpt lat="45.37818" lon="4.15525">
        <ele>759.3</ele>
        <time>2014-04-13T11:43:19Z</time>
      </trkpt>
      <trkpt lat="45.37816" lon="4.15502">
        <ele>763.3</ele>
        <time>2014-04-13T11:43:31Z</time>
      </trkpt>
      <trkpt lat="45.3782" lon="4.15472">
        <ele>767.5</ele>
        <time>2014-04-13T11:43:45Z</time>
      </trkpt>
      <trkpt lat="45.37818" lon="4.15448">
        <ele>769.9</ele>
        <time>2014-04-13T11:43:57Z</time>
      </trkpt>
      <trkpt lat="45.37806" lon="4.15425">
        <ele>772.7</ele>
        <time>2014-04-13T11:44:09Z</time>
      </trkpt>
      <trkpt lat="45.37798" lon="4.15401">
        <ele>775.9</ele>
        <time>2014-04-13T11:44:21Z</time>
      </trkpt>
      <trkpt lat="45.37789" lon="4.15369">
        <ele>779.9</ele>
        <time>2014-04-13T11:44:35Z</time>
      </trkpt>
      <trkpt lat="45.37773" lon="4.15351">
        <ele>782.4</ele>
        <time>2014-04-13T11:44:45Z</time>
      </trkpt>
      <trkpt lat="45.37751" lon="4.15335">
        <ele>783.9</ele>
        <time>2014-04-13T11:44:55Z</time>
      </trkpt>
      <trkpt lat="45.37727" lon="4.15333">
        <ele>784.8</ele>
        <time>2014-04-13T11:45:03Z</time>
      </trkpt>
      <trkpt lat="45.37707" lon="4.15343">
        <ele>785</ele>
        <time>2014-04-13T11:45:09Z</time>
      </trkpt>
      <trkpt lat="45.3769" lon="4.15326">
        <ele>785.5</ele>
        <time>2014-04-13T11:45:15Z</time>
      </trkpt>
      <trkpt lat="45.37665" lon="4.15307">
        <ele>784.3</ele>
        <time>2014-04-13T11:45:23Z</time>
      </trkpt>
      <trkpt lat="45.37652" lon="4.15288">
        <ele>783.6</ele>
        <time>2014-04-13T11:45:29Z</time>
      </trkpt>
      <trkpt lat="45.37645" lon="4.15254">
        <ele>782.5</ele>
        <time>2014-04-13T11:45:35Z</time>
      </trkpt>
      <trkpt lat="45.37642" lon="4.15204">
        <ele>779.7</ele>
        <time>2014-04-13T11:45:41Z</time>
      </trkpt>
      <trkpt lat="45.37657" lon="4.15148">
        <ele>775.4</ele>
        <time>2014-04-13T11:45:47Z</time>
      </trkpt>
      <trkpt lat="45.37658" lon="4.15101">
        <ele>773.5</ele>
        <time>2014-04-13T11:45:55Z</time>
      </trkpt>
      <trkpt lat="45.37657" lon="4.15062">
        <ele>773.5</ele>
        <time>2014-04-13T11:46:03Z</time>
      </trkpt>
      <trkpt lat="45.37655" lon="4.15038">
        <ele>773.4</ele>
        <time>2014-04-13T11:46:09Z</time>
      </trkpt>
      <trkpt lat="45.37654" lon="4.15012">
        <ele>772.9</ele>
        <time>2014-04-13T11:46:15Z</time>
      </trkpt>
      <trkpt lat="45.37655" lon="4.14982">
        <ele>772.4</ele>
        <time>2014-04-13T11:46:21Z</time>
      </trkpt>
      <trkpt lat="45.37657" lon="4.14944">
        <ele>772.9</ele>
        <time>2014-04-13T11:46:27Z</time>
      </trkpt>
      <trkpt lat="45.37659" lon="4.14911">
        <ele>773.2</ele>
        <time>2014-04-13T11:46:33Z</time>
      </trkpt>
      <trkpt lat="45.37666" lon="4.14881">
        <ele>772.5</ele>
        <time>2014-04-13T11:46:39Z</time>
      </trkpt>
      <trkpt lat="45.37674" lon="4.14852">
        <ele>772.3</ele>
        <time>2014-04-13T11:46:45Z</time>
      </trkpt>
      <trkpt lat="45.37687" lon="4.14801">
        <ele>771</ele>
        <time>2014-04-13T11:46:54Z</time>
      </trkpt>
      <trkpt lat="45.37697" lon="4.14774">
        <ele>770.7</ele>
        <time>2014-04-13T11:46:59Z</time>
      </trkpt>
      <trkpt lat="45.3771" lon="4.14745">
        <ele>769.9</ele>
        <time>2014-04-13T11:47:05Z</time>
      </trkpt>
      <trkpt lat="45.37721" lon="4.14714">
        <ele>769.4</ele>
        <time>2014-04-13T11:47:11Z</time>
      </trkpt>
      <trkpt lat="45.37727" lon="4.1468">
        <ele>769.7</ele>
        <time>2014-04-13T11:47:17Z</time>
      </trkpt>
      <trkpt lat="45.37734" lon="4.14645">
        <ele>770.2</ele>
        <time>2014-04-13T11:47:25Z</time>
      </trkpt>
      <trkpt lat="45.3774" lon="4.14613">
        <ele>771.2</ele>
        <time>2014-04-13T11:47:33Z</time>
      </trkpt>
      <trkpt lat="45.37751" lon="4.14594">
        <ele>771.2</ele>
        <time>2014-04-13T11:47:39Z</time>
      </trkpt>
      <trkpt lat="45.37757" lon="4.14573">
        <ele>771.5</ele>
        <time>2014-04-13T11:47:45Z</time>
      </trkpt>
      <trkpt lat="45.37758" lon="4.14541">
        <ele>773</ele>
        <time>2014-04-13T11:47:53Z</time>
      </trkpt>
      <trkpt lat="45.37759" lon="4.14518">
        <ele>774.2</ele>
        <time>2014-04-13T11:47:59Z</time>
      </trkpt>
      <trkpt lat="45.37765" lon="4.14492">
        <ele>777.2</ele>
        <time>2014-04-13T11:48:07Z</time>
      </trkpt>
      <trkpt lat="45.37796" lon="4.14479">
        <ele>780.3</ele>
        <time>2014-04-13T11:48:18Z</time>
      </trkpt>
      <trkpt lat="45.37815" lon="4.14473">
        <ele>781.7</ele>
        <time>2014-04-13T11:48:25Z</time>
      </trkpt>
      <trkpt lat="45.37836" lon="4.14466">
        <ele>783.2</ele>
        <time>2014-04-13T11:48:33Z</time>
      </trkpt>
      <trkpt lat="45.37861" lon="4.14463">
        <ele>787</ele>
        <time>2014-04-13T11:48:43Z</time>
      </trkpt>
      <trkpt lat="45.3789" lon="4.14457">
        <ele>793.4</ele>
        <time>2014-04-13T11:48:55Z</time>
      </trkpt>
      <trkpt lat="45.37916" lon="4.14447">
        <ele>795.1</ele>
        <time>2014-04-13T11:49:05Z</time>
      </trkpt>
      <trkpt lat="45.3793" lon="4.14442">
        <ele>796.1</ele>
        <time>2014-04-13T11:49:11Z</time>
      </trkpt>
      <trkpt lat="45.37943" lon="4.14437">
        <ele>798.2</ele>
        <time>2014-04-13T11:49:16Z</time>
      </trkpt>
      <trkpt lat="45.37964" lon="4.14428">
        <ele>802.3</ele>
        <time>2014-04-13T11:49:25Z</time>
      </trkpt>
      <trkpt lat="45.37983" lon="4.14422">
        <ele>804.5</ele>
        <time>2014-04-13T11:49:33Z</time>
      </trkpt>
      <trkpt lat="45.38004" lon="4.14407">
        <ele>807.2</ele>
        <time>2014-04-13T11:49:42Z</time>
      </trkpt>
      <trkpt lat="45.38021" lon="4.1439">
        <ele>807.3</ele>
        <time>2014-04-13T11:49:49Z</time>
      </trkpt>
      <trkpt lat="45.38038" lon="4.14376">
        <ele>807.3</ele>
        <time>2014-04-13T11:49:55Z</time>
      </trkpt>
      <trkpt lat="45.38061" lon="4.14352">
        <ele>806.9</ele>
        <time>2014-04-13T11:50:03Z</time>
      </trkpt>
      <trkpt lat="45.38077" lon="4.14336">
        <ele>807.7</ele>
        <time>2014-04-13T11:50:09Z</time>
      </trkpt>
      <trkpt lat="45.38093" lon="4.14319">
        <ele>809.2</ele>
        <time>2014-04-13T11:50:15Z</time>
      </trkpt>
      <trkpt lat="45.38111" lon="4.14289">
        <ele>807.7</ele>
        <time>2014-04-13T11:50:23Z</time>
      </trkpt>
      <trkpt lat="45.38125" lon="4.14264">
        <ele>805.9</ele>
        <time>2014-04-13T11:50:29Z</time>
      </trkpt>
      <trkpt lat="45.38141" lon="4.1424">
        <ele>804.2</ele>
        <time>2014-04-13T11:50:36Z</time>
      </trkpt>
      <trkpt lat="45.3816" lon="4.14211">
        <ele>804.3</ele>
        <time>2014-04-13T11:50:43Z</time>
      </trkpt>
      <trkpt lat="45.38174" lon="4.14188">
        <ele>804</ele>
        <time>2014-04-13T11:50:49Z</time>
      </trkpt>
      <trkpt lat="45.38188" lon="4.14165">
        <ele>803.8</ele>
        <time>2014-04-13T11:50:55Z</time>
      </trkpt>
      <trkpt lat="45.38205" lon="4.14136">
        <ele>804.2</ele>
        <time>2014-04-13T11:51:03Z</time>
      </trkpt>
      <trkpt lat="45.38218" lon="4.14114">
        <ele>804.1</ele>
        <time>2014-04-13T11:51:09Z</time>
      </trkpt>
      <trkpt lat="45.38234" lon="4.14093">
        <ele>804.4</ele>
        <time>2014-04-13T11:51:15Z</time>
      </trkpt>
      <trkpt lat="45.38255" lon="4.1407">
        <ele>802.8</ele>
        <time>2014-04-13T11:51:23Z</time>
      </trkpt>
      <trkpt lat="45.38272" lon="4.14053">
        <ele>803.2</ele>
        <time>2014-04-13T11:51:29Z</time>
      </trkpt>
      <trkpt lat="45.38287" lon="4.14036">
        <ele>803.5</ele>
        <time>2014-04-13T11:51:35Z</time>
      </trkpt>
      <trkpt lat="45.38305" lon="4.14015">
        <ele>803.9</ele>
        <time>2014-04-13T11:51:41Z</time>
      </trkpt>
      <trkpt lat="45.38328" lon="4.1399">
        <ele>803.7</ele>
        <time>2014-04-13T11:51:47Z</time>
      </trkpt>
      <trkpt lat="45.38353" lon="4.1396">
        <ele>803.4</ele>
        <time>2014-04-13T11:51:53Z</time>
      </trkpt>
      <trkpt lat="45.38376" lon="4.13925">
        <ele>802.4</ele>
        <time>2014-04-13T11:51:59Z</time>
      </trkpt>
      <trkpt lat="45.38406" lon="4.13881">
        <ele>800.7</ele>
        <time>2014-04-13T11:52:07Z</time>
      </trkpt>
      <trkpt lat="45.38426" lon="4.13848">
        <ele>799.4</ele>
        <time>2014-04-13T11:52:13Z</time>
      </trkpt>
      <trkpt lat="45.38441" lon="4.13815">
        <ele>798.7</ele>
        <time>2014-04-13T11:52:19Z</time>
      </trkpt>
      <trkpt lat="45.38461" lon="4.13795">
        <ele>799</ele>
        <time>2014-04-13T11:52:27Z</time>
      </trkpt>
      <trkpt lat="45.38475" lon="4.13781">
        <ele>799</ele>
        <time>2014-04-13T11:52:33Z</time>
      </trkpt>
      <trkpt lat="45.38495" lon="4.13759">
        <ele>798.4</ele>
        <time>2014-04-13T11:52:39Z</time>
      </trkpt>
      <trkpt lat="45.38522" lon="4.13742">
        <ele>797.1</ele>
        <time>2014-04-13T11:52:45Z</time>
      </trkpt>
      <trkpt lat="45.38552" lon="4.13724">
        <ele>795.5</ele>
        <time>2014-04-13T11:52:51Z</time>
      </trkpt>
      <trkpt lat="45.3859" lon="4.13707">
        <ele>794.1</ele>
        <time>2014-04-13T11:52:57Z</time>
      </trkpt>
      <trkpt lat="45.3864" lon="4.13689">
        <ele>793.2</ele>
        <time>2014-04-13T11:53:05Z</time>
      </trkpt>
      <trkpt lat="45.38681" lon="4.13667">
        <ele>793.5</ele>
        <time>2014-04-13T11:53:13Z</time>
      </trkpt>
      <trkpt lat="45.3871" lon="4.13648">
        <ele>793.6</ele>
        <time>2014-04-13T11:53:19Z</time>
      </trkpt>
      <trkpt lat="45.38736" lon="4.1363">
        <ele>793.2</ele>
        <time>2014-04-13T11:53:25Z</time>
      </trkpt>
      <trkpt lat="45.38759" lon="4.13616">
        <ele>793.9</ele>
        <time>2014-04-13T11:53:31Z</time>
      </trkpt>
      <trkpt lat="45.38797" lon="4.13594">
        <ele>793.8</ele>
        <time>2014-04-13T11:53:41Z</time>
      </trkpt>
      <trkpt lat="45.38823" lon="4.13571">
        <ele>794</ele>
        <time>2014-04-13T11:53:47Z</time>
      </trkpt>
      <trkpt lat="45.38855" lon="4.13552">
        <ele>794.1</ele>
        <time>2014-04-13T11:53:53Z</time>
      </trkpt>
      <trkpt lat="45.38912" lon="4.13546">
        <ele>793.7</ele>
        <time>2014-04-13T11:53:59Z</time>
      </trkpt>
      <trkpt lat="45.3897" lon="4.13543">
        <ele>791.7</ele>
        <time>2014-04-13T11:54:05Z</time>
      </trkpt>
      <trkpt lat="45.39034" lon="4.13546">
        <ele>787.3</ele>
        <time>2014-04-13T11:54:13Z</time>
      </trkpt>
      <trkpt lat="45.39077" lon="4.13534">
        <ele>784.4</ele>
        <time>2014-04-13T11:54:19Z</time>
      </trkpt>
      <trkpt lat="45.39126" lon="4.13522">
        <ele>781.4</ele>
        <time>2014-04-13T11:54:27Z</time>
      </trkpt>
      <trkpt lat="45.39163" lon="4.13508">
        <ele>778.3</ele>
        <time>2014-04-13T11:54:33Z</time>
      </trkpt>
      <trkpt lat="45.39183" lon="4.13482">
        <ele>775.5</ele>
        <time>2014-04-13T11:54:39Z</time>
      </trkpt>
      <trkpt lat="45.3918" lon="4.13457">
        <ele>773.4</ele>
        <time>2014-04-13T11:54:45Z</time>
      </trkpt>
      <trkpt lat="45.39173" lon="4.13422">
        <ele>771.9</ele>
        <time>2014-04-13T11:54:53Z</time>
      </trkpt>
      <trkpt lat="45.39171" lon="4.134">
        <ele>769.9</ele>
        <time>2014-04-13T11:54:59Z</time>
      </trkpt>
      <trkpt lat="45.39167" lon="4.13376">
        <ele>769.8</ele>
        <time>2014-04-13T11:55:05Z</time>
      </trkpt>
      <trkpt lat="45.39168" lon="4.13354">
        <ele>770.5</ele>
        <time>2014-04-13T11:55:11Z</time>
      </trkpt>
      <trkpt lat="45.39171" lon="4.13328">
        <ele>770.8</ele>
        <time>2014-04-13T11:55:17Z</time>
      </trkpt>
      <trkpt lat="45.39173" lon="4.13305">
        <ele>771.6</ele>
        <time>2014-04-13T11:55:22Z</time>
      </trkpt>
      <trkpt lat="45.39175" lon="4.13283">
        <ele>771.8</ele>
        <time>2014-04-13T11:55:27Z</time>
      </trkpt>
      <trkpt lat="45.39174" lon="4.13255">
        <ele>772.5</ele>
        <time>2014-04-13T11:55:33Z</time>
      </trkpt>
      <trkpt lat="45.39173" lon="4.13208">
        <ele>772.7</ele>
        <time>2014-04-13T11:55:41Z</time>
      </trkpt>
      <trkpt lat="45.39168" lon="4.13157">
        <ele>770.5</ele>
        <time>2014-04-13T11:55:47Z</time>
      </trkpt>
      <trkpt lat="45.39166" lon="4.13107">
        <ele>768.9</ele>
        <time>2014-04-13T11:55:53Z</time>
      </trkpt>
      <trkpt lat="45.39154" lon="4.13055">
        <ele>767</ele>
        <time>2014-04-13T11:55:59Z</time>
      </trkpt>
      <trkpt lat="45.39158" lon="4.12991">
        <ele>761.9</ele>
        <time>2014-04-13T11:56:05Z</time>
      </trkpt>
      <trkpt lat="45.39158" lon="4.1294">
        <ele>759.6</ele>
        <time>2014-04-13T11:56:11Z</time>
      </trkpt>
      <trkpt lat="45.39131" lon="4.12909">
        <ele>756.8</ele>
        <time>2014-04-13T11:56:17Z</time>
      </trkpt>
      <trkpt lat="45.39132" lon="4.12875">
        <ele>753.5</ele>
        <time>2014-04-13T11:56:23Z</time>
      </trkpt>
      <trkpt lat="45.39148" lon="4.12835">
        <ele>752.1</ele>
        <time>2014-04-13T11:56:29Z</time>
      </trkpt>
      <trkpt lat="45.39195" lon="4.12824">
        <ele>749.6</ele>
        <time>2014-04-13T11:56:37Z</time>
      </trkpt>
      <trkpt lat="45.39223" lon="4.12799">
        <ele>747</ele>
        <time>2014-04-13T11:56:45Z</time>
      </trkpt>
      <trkpt lat="45.3923" lon="4.12774">
        <ele>747.1</ele>
        <time>2014-04-13T11:56:51Z</time>
      </trkpt>
      <trkpt lat="45.39234" lon="4.12751">
        <ele>747.2</ele>
        <time>2014-04-13T11:56:57Z</time>
      </trkpt>
      <trkpt lat="45.39238" lon="4.12727">
        <ele>748.5</ele>
        <time>2014-04-13T11:57:03Z</time>
      </trkpt>
      <trkpt lat="45.39242" lon="4.12706">
        <ele>750.6</ele>
        <time>2014-04-13T11:57:09Z</time>
      </trkpt>
      <trkpt lat="45.39247" lon="4.12677">
        <ele>754.7</ele>
        <time>2014-04-13T11:57:19Z</time>
      </trkpt>
      <trkpt lat="45.3925" lon="4.12651">
        <ele>757</ele>
        <time>2014-04-13T11:57:27Z</time>
      </trkpt>
      <trkpt lat="45.39251" lon="4.12634">
        <ele>758.3</ele>
        <time>2014-04-13T11:57:33Z</time>
      </trkpt>
      <trkpt lat="45.3925" lon="4.12617">
        <ele>760.3</ele>
        <time>2014-04-13T11:57:39Z</time>
      </trkpt>
      <trkpt lat="45.39243" lon="4.12575">
        <ele>762.8</ele>
        <time>2014-04-13T11:57:51Z</time>
      </trkpt>
      <trkpt lat="45.39224" lon="4.12548">
        <ele>764.5</ele>
        <time>2014-04-13T11:58:01Z</time>
      </trkpt>
      <trkpt lat="45.39203" lon="4.12545">
        <ele>764.9</ele>
        <time>2014-04-13T11:58:09Z</time>
      </trkpt>
      <trkpt lat="45.39178" lon="4.12543">
        <ele>765.2</ele>
        <time>2014-04-13T11:58:19Z</time>
      </trkpt>
      <trkpt lat="45.39162" lon="4.12545">
        <ele>766</ele>
        <time>2014-04-13T11:58:27Z</time>
      </trkpt>
      <trkpt lat="45.39129" lon="4.12556">
        <ele>768.3</ele>
        <time>2014-04-13T11:58:41Z</time>
      </trkpt>
      <trkpt lat="45.39113" lon="4.12562">
        <ele>768.8</ele>
        <time>2014-04-13T11:58:47Z</time>
      </trkpt>
      <trkpt lat="45.39097" lon="4.12566">
        <ele>768.5</ele>
        <time>2014-04-13T11:58:53Z</time>
      </trkpt>
      <trkpt lat="45.39076" lon="4.12562">
        <ele>767.9</ele>
        <time>2014-04-13T11:58:59Z</time>
      </trkpt>
      <trkpt lat="45.39056" lon="4.12556">
        <ele>768.2</ele>
        <time>2014-04-13T11:59:05Z</time>
      </trkpt>
      <trkpt lat="45.39035" lon="4.12551">
        <ele>769.3</ele>
        <time>2014-04-13T11:59:11Z</time>
      </trkpt>
      <trkpt lat="45.39011" lon="4.12544">
        <ele>770.4</ele>
        <time>2014-04-13T11:59:18Z</time>
      </trkpt>
      <trkpt lat="45.38987" lon="4.1253">
        <ele>770.8</ele>
        <time>2014-04-13T11:59:25Z</time>
      </trkpt>
      <trkpt lat="45.38965" lon="4.12518">
        <ele>770.9</ele>
        <time>2014-04-13T11:59:31Z</time>
      </trkpt>
      <trkpt lat="45.38943" lon="4.12509">
        <ele>770.8</ele>
        <time>2014-04-13T11:59:37Z</time>
      </trkpt>
      <trkpt lat="45.38922" lon="4.12503">
        <ele>771</ele>
        <time>2014-04-13T11:59:43Z</time>
      </trkpt>
      <trkpt lat="45.38899" lon="4.12485">
        <ele>770.9</ele>
        <time>2014-04-13T11:59:51Z</time>
      </trkpt>
      <trkpt lat="45.38881" lon="4.12472">
        <ele>771.5</ele>
        <time>2014-04-13T11:59:57Z</time>
      </trkpt>
      <trkpt lat="45.38866" lon="4.1247">
        <ele>772</ele>
        <time>2014-04-13T12:00:03Z</time>
      </trkpt>
      <trkpt lat="45.38848" lon="4.12467">
        <ele>771.1</ele>
        <time>2014-04-13T12:00:09Z</time>
      </trkpt>
      <trkpt lat="45.38827" lon="4.12453">
        <ele>770.6</ele>
        <time>2014-04-13T12:00:17Z</time>
      </trkpt>
      <trkpt lat="45.38817" lon="4.12441">
        <ele>771</ele>
        <time>2014-04-13T12:00:22Z</time>
      </trkpt>
      <trkpt lat="45.38797" lon="4.12417">
        <ele>772.4</ele>
        <time>2014-04-13T12:00:31Z</time>
      </trkpt>
      <trkpt lat="45.3878" lon="4.12394">
        <ele>773.9</ele>
        <time>2014-04-13T12:00:39Z</time>
      </trkpt>
      <trkpt lat="45.38769" lon="4.12375">
        <ele>775.2</ele>
        <time>2014-04-13T12:00:45Z</time>
      </trkpt>
      <trkpt lat="45.38749" lon="4.12341">
        <ele>777.4</ele>
        <time>2014-04-13T12:00:52Z</time>
      </trkpt>
      <trkpt lat="45.38731" lon="4.12327">
        <ele>778.1</ele>
        <time>2014-04-13T12:00:57Z</time>
      </trkpt>
      <trkpt lat="45.38705" lon="4.12314">
        <ele>778.9</ele>
        <time>2014-04-13T12:01:03Z</time>
      </trkpt>
      <trkpt lat="45.38681" lon="4.12307">
        <ele>779.6</ele>
        <time>2014-04-13T12:01:09Z</time>
      </trkpt>
      <trkpt lat="45.38661" lon="4.123">
        <ele>780</ele>
        <time>2014-04-13T12:01:15Z</time>
      </trkpt>
      <trkpt lat="45.38642" lon="4.12296">
        <ele>780.3</ele>
        <time>2014-04-13T12:01:21Z</time>
      </trkpt>
      <trkpt lat="45.38624" lon="4.1229">
        <ele>781.2</ele>
        <time>2014-04-13T12:01:27Z</time>
      </trkpt>
      <trkpt lat="45.38606" lon="4.12288">
        <ele>782.2</ele>
        <time>2014-04-13T12:01:33Z</time>
      </trkpt>
      <trkpt lat="45.38587" lon="4.12283">
        <ele>782</ele>
        <time>2014-04-13T12:01:39Z</time>
      </trkpt>
      <trkpt lat="45.38567" lon="4.12281">
        <ele>782.1</ele>
        <time>2014-04-13T12:01:47Z</time>
      </trkpt>
      <trkpt lat="45.38556" lon="4.12277">
        <ele>782.9</ele>
        <time>2014-04-13T12:01:53Z</time>
      </trkpt>
      <trkpt lat="45.38535" lon="4.12273">
        <ele>784</ele>
        <time>2014-04-13T12:02:02Z</time>
      </trkpt>
      <trkpt lat="45.38512" lon="4.12267">
        <ele>786.5</ele>
        <time>2014-04-13T12:02:11Z</time>
      </trkpt>
      <trkpt lat="45.38506" lon="4.12241">
        <ele>788</ele>
        <time>2014-04-13T12:02:21Z</time>
      </trkpt>
      <trkpt lat="45.38512" lon="4.12216">
        <ele>789.4</ele>
        <time>2014-04-13T12:02:27Z</time>
      </trkpt>
      <trkpt lat="45.38514" lon="4.12185">
        <ele>790.1</ele>
        <time>2014-04-13T12:02:33Z</time>
      </trkpt>
      <trkpt lat="45.38522" lon="4.12154">
        <ele>791.3</ele>
        <time>2014-04-13T12:02:39Z</time>
      </trkpt>
      <trkpt lat="45.38535" lon="4.12129">
        <ele>792.9</ele>
        <time>2014-04-13T12:02:45Z</time>
      </trkpt>
      <trkpt lat="45.38555" lon="4.12092">
        <ele>792.5</ele>
        <time>2014-04-13T12:02:53Z</time>
      </trkpt>
      <trkpt lat="45.38573" lon="4.12056">
        <ele>791.9</ele>
        <time>2014-04-13T12:02:59Z</time>
      </trkpt>
      <trkpt lat="45.38589" lon="4.12011">
        <ele>790.7</ele>
        <time>2014-04-13T12:03:05Z</time>
      </trkpt>
      <trkpt lat="45.38591" lon="4.11951">
        <ele>788.8</ele>
        <time>2014-04-13T12:03:12Z</time>
      </trkpt>
      <trkpt lat="45.38589" lon="4.11889">
        <ele>786.2</ele>
        <time>2014-04-13T12:03:19Z</time>
      </trkpt>
      <trkpt lat="45.38592" lon="4.11827">
        <ele>783.7</ele>
        <time>2014-04-13T12:03:25Z</time>
      </trkpt>
      <trkpt lat="45.38605" lon="4.11767">
        <ele>781.5</ele>
        <time>2014-04-13T12:03:31Z</time>
      </trkpt>
      <trkpt lat="45.38621" lon="4.11753">
        <ele>779.4</ele>
        <time>2014-04-13T12:03:37Z</time>
      </trkpt>
      <trkpt lat="45.38634" lon="4.11735">
        <ele>777</ele>
        <time>2014-04-13T12:03:46Z</time>
      </trkpt>
      <trkpt lat="45.38641" lon="4.11712">
        <ele>775.9</ele>
        <time>2014-04-13T12:03:57Z</time>
      </trkpt>
      <trkpt lat="45.38646" lon="4.11684">
        <ele>775.4</ele>
        <time>2014-04-13T12:04:07Z</time>
      </trkpt>
      <trkpt lat="45.38651" lon="4.11659">
        <ele>774.9</ele>
        <time>2014-04-13T12:04:17Z</time>
      </trkpt>
      <trkpt lat="45.38656" lon="4.11637">
        <ele>776</ele>
        <time>2014-04-13T12:04:25Z</time>
      </trkpt>
      <trkpt lat="45.38665" lon="4.11609">
        <ele>776.6</ele>
        <time>2014-04-13T12:04:35Z</time>
      </trkpt>
      <trkpt lat="45.38672" lon="4.11588">
        <ele>776.9</ele>
        <time>2014-04-13T12:04:42Z</time>
      </trkpt>
      <trkpt lat="45.38681" lon="4.1156">
        <ele>777.8</ele>
        <time>2014-04-13T12:04:51Z</time>
      </trkpt>
      <trkpt lat="45.38688" lon="4.11544">
        <ele>778.3</ele>
        <time>2014-04-13T12:04:57Z</time>
      </trkpt>
      <trkpt lat="45.38693" lon="4.11514">
        <ele>778.8</ele>
        <time>2014-04-13T12:05:07Z</time>
      </trkpt>
      <trkpt lat="45.38706" lon="4.11469">
        <ele>779.3</ele>
        <time>2014-04-13T12:05:17Z</time>
      </trkpt>
      <trkpt lat="45.38712" lon="4.11445">
        <ele>778.4</ele>
        <time>2014-04-13T12:05:23Z</time>
      </trkpt>
      <trkpt lat="45.38719" lon="4.11413">
        <ele>778.7</ele>
        <time>2014-04-13T12:05:29Z</time>
      </trkpt>
      <trkpt lat="45.3873" lon="4.11377">
        <ele>778.6</ele>
        <time>2014-04-13T12:05:35Z</time>
      </trkpt>
      <trkpt lat="45.38741" lon="4.11344">
        <ele>778.8</ele>
        <time>2014-04-13T12:05:41Z</time>
      </trkpt>
      <trkpt lat="45.38751" lon="4.11299">
        <ele>775.5</ele>
        <time>2014-04-13T12:05:48Z</time>
      </trkpt>
      <trkpt lat="45.38754" lon="4.11242">
        <ele>774</ele>
        <time>2014-04-13T12:05:55Z</time>
      </trkpt>
      <trkpt lat="45.38748" lon="4.11183">
        <ele>773.2</ele>
        <time>2014-04-13T12:06:01Z</time>
      </trkpt>
      <trkpt lat="45.38752" lon="4.11126">
        <ele>771.1</ele>
        <time>2014-04-13T12:06:08Z</time>
      </trkpt>
      <trkpt lat="45.38755" lon="4.11104">
        <ele>769.5</ele>
        <time>2014-04-13T12:06:13Z</time>
      </trkpt>
      <trkpt lat="45.38755" lon="4.11077">
        <ele>767</ele>
        <time>2014-04-13T12:06:21Z</time>
      </trkpt>
      <trkpt lat="45.38755" lon="4.11042">
        <ele>766.3</ele>
        <time>2014-04-13T12:06:32Z</time>
      </trkpt>
      <trkpt lat="45.38762" lon="4.11016">
        <ele>765.3</ele>
        <time>2014-04-13T12:06:41Z</time>
      </trkpt>
      <trkpt lat="45.38768" lon="4.10999">
        <ele>765.3</ele>
        <time>2014-04-13T12:06:47Z</time>
      </trkpt>
      <trkpt lat="45.38775" lon="4.10983">
        <ele>766.5</ele>
        <time>2014-04-13T12:06:53Z</time>
      </trkpt>
      <trkpt lat="45.38787" lon="4.10962">
        <ele>768.3</ele>
        <time>2014-04-13T12:07:01Z</time>
      </trkpt>
      <trkpt lat="45.38796" lon="4.10939">
        <ele>769.6</ele>
        <time>2014-04-13T12:07:11Z</time>
      </trkpt>
      <trkpt lat="45.38806" lon="4.1092">
        <ele>772.3</ele>
        <time>2014-04-13T12:07:19Z</time>
      </trkpt>
      <trkpt lat="45.3882" lon="4.10892">
        <ele>775.5</ele>
        <time>2014-04-13T12:07:31Z</time>
      </trkpt>
      <trkpt lat="45.3883" lon="4.10868">
        <ele>779.4</ele>
        <time>2014-04-13T12:07:41Z</time>
      </trkpt>
      <trkpt lat="45.38836" lon="4.10856">
        <ele>780.7</ele>
        <time>2014-04-13T12:07:47Z</time>
      </trkpt>
      <trkpt lat="45.38846" lon="4.10839">
        <ele>782.8</ele>
        <time>2014-04-13T12:07:55Z</time>
      </trkpt>
      <trkpt lat="45.38863" lon="4.10811">
        <ele>788.1</ele>
        <time>2014-04-13T12:08:09Z</time>
      </trkpt>
      <trkpt lat="45.38877" lon="4.10779">
        <ele>793.7</ele>
        <time>2014-04-13T12:08:23Z</time>
      </trkpt>
      <trkpt lat="45.38889" lon="4.1075">
        <ele>797.1</ele>
        <time>2014-04-13T12:08:33Z</time>
      </trkpt>
      <trkpt lat="45.38899" lon="4.10724">
        <ele>798.8</ele>
        <time>2014-04-13T12:08:41Z</time>
      </trkpt>
      <trkpt lat="45.38905" lon="4.10702">
        <ele>799.4</ele>
        <time>2014-04-13T12:08:47Z</time>
      </trkpt>
      <trkpt lat="45.38911" lon="4.1068">
        <ele>797.9</ele>
        <time>2014-04-13T12:08:53Z</time>
      </trkpt>
      <trkpt lat="45.38913" lon="4.10653">
        <ele>796.6</ele>
        <time>2014-04-13T12:09:01Z</time>
      </trkpt>
      <trkpt lat="45.38913" lon="4.10624">
        <ele>797.7</ele>
        <time>2014-04-13T12:09:11Z</time>
      </trkpt>
      <trkpt lat="45.38911" lon="4.10604">
        <ele>799.7</ele>
        <time>2014-04-13T12:09:17Z</time>
      </trkpt>
      <trkpt lat="45.38909" lon="4.10585">
        <ele>802</ele>
        <time>2014-04-13T12:09:23Z</time>
      </trkpt>
      <trkpt lat="45.38912" lon="4.10553">
        <ele>804.7</ele>
        <time>2014-04-13T12:09:31Z</time>
      </trkpt>
      <trkpt lat="45.38911" lon="4.10523">
        <ele>806.1</ele>
        <time>2014-04-13T12:09:39Z</time>
      </trkpt>
      <trkpt lat="45.38914" lon="4.10499">
        <ele>807.4</ele>
        <time>2014-04-13T12:09:45Z</time>
      </trkpt>
      <trkpt lat="45.38912" lon="4.10468">
        <ele>809.8</ele>
        <time>2014-04-13T12:09:53Z</time>
      </trkpt>
      <trkpt lat="45.38906" lon="4.1044">
        <ele>812.4</ele>
        <time>2014-04-13T12:10:01Z</time>
      </trkpt>
      <trkpt lat="45.38902" lon="4.10397">
        <ele>815.3</ele>
        <time>2014-04-13T12:10:09Z</time>
      </trkpt>
      <trkpt lat="45.38903" lon="4.10361">
        <ele>815.7</ele>
        <time>2014-04-13T12:10:15Z</time>
      </trkpt>
      <trkpt lat="45.38902" lon="4.10332">
        <ele>813.1</ele>
        <time>2014-04-13T12:10:21Z</time>
      </trkpt>
      <trkpt lat="45.38902" lon="4.103">
        <ele>809.6</ele>
        <time>2014-04-13T12:10:27Z</time>
      </trkpt>
      <trkpt lat="45.38904" lon="4.10272">
        <ele>806.5</ele>
        <time>2014-04-13T12:10:33Z</time>
      </trkpt>
      <trkpt lat="45.38904" lon="4.10243">
        <ele>804.5</ele>
        <time>2014-04-13T12:10:39Z</time>
      </trkpt>
      <trkpt lat="45.38909" lon="4.10217">
        <ele>804.2</ele>
        <time>2014-04-13T12:10:45Z</time>
      </trkpt>
      <trkpt lat="45.38915" lon="4.1019">
        <ele>804.1</ele>
        <time>2014-04-13T12:10:51Z</time>
      </trkpt>
      <trkpt lat="45.38927" lon="4.10162">
        <ele>803.2</ele>
        <time>2014-04-13T12:10:57Z</time>
      </trkpt>
      <trkpt lat="45.38945" lon="4.10126">
        <ele>802</ele>
        <time>2014-04-13T12:11:03Z</time>
      </trkpt>
      <trkpt lat="45.3898" lon="4.10065">
        <ele>797.4</ele>
        <time>2014-04-13T12:11:11Z</time>
      </trkpt>
      <trkpt lat="45.39005" lon="4.1003">
        <ele>793.5</ele>
        <time>2014-04-13T12:11:17Z</time>
      </trkpt>
      <trkpt lat="45.39038" lon="4.10014">
        <ele>791.5</ele>
        <time>2014-04-13T12:11:23Z</time>
      </trkpt>
      <trkpt lat="45.39096" lon="4.09993">
        <ele>789</ele>
        <time>2014-04-13T12:11:31Z</time>
      </trkpt>
      <trkpt lat="45.3913" lon="4.09967">
        <ele>786</ele>
        <time>2014-04-13T12:11:37Z</time>
      </trkpt>
      <trkpt lat="45.39169" lon="4.09935">
        <ele>783.4</ele>
        <time>2014-04-13T12:11:47Z</time>
      </trkpt>
      <trkpt lat="45.39184" lon="4.09926">
        <ele>782.5</ele>
        <time>2014-04-13T12:11:53Z</time>
      </trkpt>
      <trkpt lat="45.39198" lon="4.09918">
        <ele>781.5</ele>
        <time>2014-04-13T12:11:59Z</time>
      </trkpt>
      <trkpt lat="45.39216" lon="4.09903">
        <ele>781.2</ele>
        <time>2014-04-13T12:12:07Z</time>
      </trkpt>
      <trkpt lat="45.39237" lon="4.09887">
        <ele>782.4</ele>
        <time>2014-04-13T12:12:15Z</time>
      </trkpt>
      <trkpt lat="45.39251" lon="4.09878">
        <ele>783</ele>
        <time>2014-04-13T12:12:21Z</time>
      </trkpt>
      <trkpt lat="45.39263" lon="4.09872">
        <ele>783.4</ele>
        <time>2014-04-13T12:12:27Z</time>
      </trkpt>
      <trkpt lat="45.39273" lon="4.09865">
        <ele>784.2</ele>
        <time>2014-04-13T12:12:33Z</time>
      </trkpt>
      <trkpt lat="45.3928" lon="4.09859">
        <ele>784.7</ele>
        <time>2014-04-13T12:12:37Z</time>
      </trkpt>
      <trkpt lat="45.3928" lon="4.09859">
        <ele>801.4</ele>
        <time>2014-04-13T12:12:43Z</time>
      </trkpt>
      <trkpt lat="45.3928" lon="4.09859">
        <ele>801.4</ele>
        <time>2014-04-13T12:12:49Z</time>
      </trkpt>
      <trkpt lat="45.39294" lon="4.09854">
        <ele>791.3</ele>
        <time>2014-04-13T12:12:49Z</time>
      </trkpt>
      <trkpt lat="45.39315" lon="4.0983">
        <ele>795.4</ele>
        <time>2014-04-13T12:13:01Z</time>
      </trkpt>
      <trkpt lat="45.39338" lon="4.09808">
        <ele>796.8</ele>
        <time>2014-04-13T12:13:11Z</time>
      </trkpt>
      <trkpt lat="45.39359" lon="4.09779">
        <ele>796.4</ele>
        <time>2014-04-13T12:13:21Z</time>
      </trkpt>
      <trkpt lat="45.39357" lon="4.09759">
        <ele>796.8</ele>
        <time>2014-04-13T12:13:26Z</time>
      </trkpt>
      <trkpt lat="45.39352" lon="4.09736">
        <ele>797.9</ele>
        <time>2014-04-13T12:13:35Z</time>
      </trkpt>
      <trkpt lat="45.39341" lon="4.09722">
        <ele>799.6</ele>
        <time>2014-04-13T12:13:45Z</time>
      </trkpt>
      <trkpt lat="45.3931" lon="4.0975">
        <ele>803.1</ele>
        <time>2014-04-13T12:14:00Z</time>
      </trkpt>
      <trkpt lat="45.39304" lon="4.09759">
        <ele>802.5</ele>
        <time>2014-04-13T12:14:05Z</time>
      </trkpt>
      <trkpt lat="45.39304" lon="4.09759">
        <ele>802.5</ele>
        <time>2014-04-13T12:14:12Z</time>
      </trkpt>
      <trkpt lat="45.39304" lon="4.09759">
        <ele>806.5</ele>
        <time>2014-04-13T12:14:12Z</time>
      </trkpt>
      <trkpt lat="45.39304" lon="4.09759">
        <ele>806.5</ele>
        <time>2014-04-13T12:16:11Z</time>
      </trkpt>
      <trkpt lat="45.39282" lon="4.0975">
        <ele>801.8</ele>
        <time>2014-04-13T12:16:11Z</time>
      </trkpt>
      <trkpt lat="45.39267" lon="4.09739">
        <ele>802.4</ele>
        <time>2014-04-13T12:16:17Z</time>
      </trkpt>
      <trkpt lat="45.3925" lon="4.09721">
        <ele>802.9</ele>
        <time>2014-04-13T12:16:25Z</time>
      </trkpt>
      <trkpt lat="45.39227" lon="4.09693">
        <ele>804.1</ele>
        <time>2014-04-13T12:16:39Z</time>
      </trkpt>
      <trkpt lat="45.39218" lon="4.09676">
        <ele>806.1</ele>
        <time>2014-04-13T12:16:49Z</time>
      </trkpt>
      <trkpt lat="45.39216" lon="4.09648">
        <ele>809.1</ele>
        <time>2014-04-13T12:17:01Z</time>
      </trkpt>
      <trkpt lat="45.39223" lon="4.09622">
        <ele>811.5</ele>
        <time>2014-04-13T12:17:13Z</time>
      </trkpt>
      <trkpt lat="45.39232" lon="4.09594">
        <ele>814</ele>
        <time>2014-04-13T12:17:25Z</time>
      </trkpt>
      <trkpt lat="45.39241" lon="4.09566">
        <ele>816.5</ele>
        <time>2014-04-13T12:17:35Z</time>
      </trkpt>
      <trkpt lat="45.39248" lon="4.09533">
        <ele>818.6</ele>
        <time>2014-04-13T12:17:45Z</time>
      </trkpt>
      <trkpt lat="45.39251" lon="4.09513">
        <ele>820.5</ele>
        <time>2014-04-13T12:17:51Z</time>
      </trkpt>
      <trkpt lat="45.39253" lon="4.09485">
        <ele>823</ele>
        <time>2014-04-13T12:17:59Z</time>
      </trkpt>
      <trkpt lat="45.39256" lon="4.09456">
        <ele>826.5</ele>
        <time>2014-04-13T12:18:06Z</time>
      </trkpt>
      <trkpt lat="45.39259" lon="4.0943">
        <ele>828.9</ele>
        <time>2014-04-13T12:18:13Z</time>
      </trkpt>
      <trkpt lat="45.3925" lon="4.09398">
        <ele>832.5</ele>
        <time>2014-04-13T12:18:23Z</time>
      </trkpt>
      <trkpt lat="45.39242" lon="4.09371">
        <ele>835.3</ele>
        <time>2014-04-13T12:18:31Z</time>
      </trkpt>
      <trkpt lat="45.39223" lon="4.09349">
        <ele>836.9</ele>
        <time>2014-04-13T12:18:39Z</time>
      </trkpt>
      <trkpt lat="45.39207" lon="4.09337">
        <ele>837.3</ele>
        <time>2014-04-13T12:18:45Z</time>
      </trkpt>
      <trkpt lat="45.39183" lon="4.09332">
        <ele>838.5</ele>
        <time>2014-04-13T12:18:52Z</time>
      </trkpt>
      <trkpt lat="45.39158" lon="4.09333">
        <ele>839.5</ele>
        <time>2014-04-13T12:18:59Z</time>
      </trkpt>
      <trkpt lat="45.39134" lon="4.09328">
        <ele>840</ele>
        <time>2014-04-13T12:19:06Z</time>
      </trkpt>
      <trkpt lat="45.39114" lon="4.09331">
        <ele>839.4</ele>
        <time>2014-04-13T12:19:12Z</time>
      </trkpt>
      <trkpt lat="45.39088" lon="4.0934">
        <ele>838.3</ele>
        <time>2014-04-13T12:19:19Z</time>
      </trkpt>
      <trkpt lat="45.39065" lon="4.09339">
        <ele>837.8</ele>
        <time>2014-04-13T12:19:25Z</time>
      </trkpt>
      <trkpt lat="45.39034" lon="4.09337">
        <ele>837.4</ele>
        <time>2014-04-13T12:19:33Z</time>
      </trkpt>
      <trkpt lat="45.39009" lon="4.09336">
        <ele>836.7</ele>
        <time>2014-04-13T12:19:39Z</time>
      </trkpt>
      <trkpt lat="45.38987" lon="4.09332">
        <ele>836.5</ele>
        <time>2014-04-13T12:19:45Z</time>
      </trkpt>
      <trkpt lat="45.38951" lon="4.0933">
        <ele>836.4</ele>
        <time>2014-04-13T12:19:55Z</time>
      </trkpt>
      <trkpt lat="45.38915" lon="4.09329">
        <ele>836.3</ele>
        <time>2014-04-13T12:20:05Z</time>
      </trkpt>
      <trkpt lat="45.38893" lon="4.09327">
        <ele>836.9</ele>
        <time>2014-04-13T12:20:11Z</time>
      </trkpt>
      <trkpt lat="45.38873" lon="4.09331">
        <ele>837.2</ele>
        <time>2014-04-13T12:20:17Z</time>
      </trkpt>
      <trkpt lat="45.38858" lon="4.09331">
        <ele>837.2</ele>
        <time>2014-04-13T12:20:22Z</time>
      </trkpt>
      <trkpt lat="45.38842" lon="4.0933">
        <ele>837.9</ele>
        <time>2014-04-13T12:20:27Z</time>
      </trkpt>
      <trkpt lat="45.38827" lon="4.09331">
        <ele>838.7</ele>
        <time>2014-04-13T12:20:32Z</time>
      </trkpt>
      <trkpt lat="45.38803" lon="4.09337">
        <ele>841.7</ele>
        <time>2014-04-13T12:20:41Z</time>
      </trkpt>
      <trkpt lat="45.3879" lon="4.09344">
        <ele>842.8</ele>
        <time>2014-04-13T12:20:47Z</time>
      </trkpt>
      <trkpt lat="45.38776" lon="4.09345">
        <ele>844.4</ele>
        <time>2014-04-13T12:20:53Z</time>
      </trkpt>
      <trkpt lat="45.38756" lon="4.09347">
        <ele>846</ele>
        <time>2014-04-13T12:21:01Z</time>
      </trkpt>
      <trkpt lat="45.38743" lon="4.0935">
        <ele>847.5</ele>
        <time>2014-04-13T12:21:07Z</time>
      </trkpt>
      <trkpt lat="45.38718" lon="4.09352">
        <ele>848.6</ele>
        <time>2014-04-13T12:21:17Z</time>
      </trkpt>
      <trkpt lat="45.38702" lon="4.09356">
        <ele>849.3</ele>
        <time>2014-04-13T12:21:23Z</time>
      </trkpt>
      <trkpt lat="45.3868" lon="4.09366">
        <ele>850.1</ele>
        <time>2014-04-13T12:21:31Z</time>
      </trkpt>
      <trkpt lat="45.38658" lon="4.09381">
        <ele>850.9</ele>
        <time>2014-04-13T12:21:39Z</time>
      </trkpt>
      <trkpt lat="45.38641" lon="4.09393">
        <ele>851</ele>
        <time>2014-04-13T12:21:45Z</time>
      </trkpt>
      <trkpt lat="45.38627" lon="4.09406">
        <ele>851.1</ele>
        <time>2014-04-13T12:21:51Z</time>
      </trkpt>
      <trkpt lat="45.38604" lon="4.09427">
        <ele>852.2</ele>
        <time>2014-04-13T12:21:59Z</time>
      </trkpt>
      <trkpt lat="45.3857" lon="4.09467">
        <ele>853.8</ele>
        <time>2014-04-13T12:22:09Z</time>
      </trkpt>
      <trkpt lat="45.38549" lon="4.09493">
        <ele>855.2</ele>
        <time>2014-04-13T12:22:15Z</time>
      </trkpt>
      <trkpt lat="45.38513" lon="4.09527">
        <ele>855.6</ele>
        <time>2014-04-13T12:22:23Z</time>
      </trkpt>
      <trkpt lat="45.38498" lon="4.09555">
        <ele>856.6</ele>
        <time>2014-04-13T12:22:29Z</time>
      </trkpt>
      <trkpt lat="45.38482" lon="4.09583">
        <ele>858.7</ele>
        <time>2014-04-13T12:22:35Z</time>
      </trkpt>
      <trkpt lat="45.38461" lon="4.09624">
        <ele>859.9</ele>
        <time>2014-04-13T12:22:43Z</time>
      </trkpt>
      <trkpt lat="45.3844" lon="4.09652">
        <ele>860.3</ele>
        <time>2014-04-13T12:22:51Z</time>
      </trkpt>
      <trkpt lat="45.38416" lon="4.09666">
        <ele>860.2</ele>
        <time>2014-04-13T12:22:58Z</time>
      </trkpt>
      <trkpt lat="45.38392" lon="4.09668">
        <ele>861.9</ele>
        <time>2014-04-13T12:23:03Z</time>
      </trkpt>
      <trkpt lat="45.38356" lon="4.09676">
        <ele>862.9</ele>
        <time>2014-04-13T12:23:11Z</time>
      </trkpt>
      <trkpt lat="45.38329" lon="4.09676">
        <ele>861.7</ele>
        <time>2014-04-13T12:23:17Z</time>
      </trkpt>
      <trkpt lat="45.38306" lon="4.09675">
        <ele>860.6</ele>
        <time>2014-04-13T12:23:23Z</time>
      </trkpt>
      <trkpt lat="45.38279" lon="4.09674">
        <ele>860.3</ele>
        <time>2014-04-13T12:23:29Z</time>
      </trkpt>
      <trkpt lat="45.38243" lon="4.09672">
        <ele>860.5</ele>
        <time>2014-04-13T12:23:37Z</time>
      </trkpt>
      <trkpt lat="45.38207" lon="4.09669">
        <ele>861.6</ele>
        <time>2014-04-13T12:23:45Z</time>
      </trkpt>
      <trkpt lat="45.38175" lon="4.09669">
        <ele>861.8</ele>
        <time>2014-04-13T12:23:51Z</time>
      </trkpt>
      <trkpt lat="45.38147" lon="4.0967">
        <ele>861.9</ele>
        <time>2014-04-13T12:23:57Z</time>
      </trkpt>
      <trkpt lat="45.38122" lon="4.09685">
        <ele>861.1</ele>
        <time>2014-04-13T12:24:03Z</time>
      </trkpt>
      <trkpt lat="45.38128" lon="4.09773">
        <ele>859</ele>
        <time>2014-04-13T12:24:13Z</time>
      </trkpt>
      <trkpt lat="45.38133" lon="4.09831">
        <ele>856.8</ele>
        <time>2014-04-13T12:24:19Z</time>
      </trkpt>
      <trkpt lat="45.38136" lon="4.09884">
        <ele>854.7</ele>
        <time>2014-04-13T12:24:25Z</time>
      </trkpt>
      <trkpt lat="45.38132" lon="4.09932">
        <ele>853.3</ele>
        <time>2014-04-13T12:24:31Z</time>
      </trkpt>
      <trkpt lat="45.38126" lon="4.09969">
        <ele>852.4</ele>
        <time>2014-04-13T12:24:37Z</time>
      </trkpt>
      <trkpt lat="45.3809" lon="4.09968">
        <ele>847.3</ele>
        <time>2014-04-13T12:24:45Z</time>
      </trkpt>
      <trkpt lat="45.38059" lon="4.09957">
        <ele>844.1</ele>
        <time>2014-04-13T12:24:51Z</time>
      </trkpt>
      <trkpt lat="45.38029" lon="4.09957">
        <ele>843.9</ele>
        <time>2014-04-13T12:24:57Z</time>
      </trkpt>
      <trkpt lat="45.38001" lon="4.09964">
        <ele>841.8</ele>
        <time>2014-04-13T12:25:03Z</time>
      </trkpt>
      <trkpt lat="45.37969" lon="4.09992">
        <ele>840.4</ele>
        <time>2014-04-13T12:25:11Z</time>
      </trkpt>
      <trkpt lat="45.37938" lon="4.1001">
        <ele>838.9</ele>
        <time>2014-04-13T12:25:17Z</time>
      </trkpt>
      <trkpt lat="45.37901" lon="4.10021">
        <ele>836.8</ele>
        <time>2014-04-13T12:25:23Z</time>
      </trkpt>
      <trkpt lat="45.37863" lon="4.10014">
        <ele>835.4</ele>
        <time>2014-04-13T12:25:31Z</time>
      </trkpt>
      <trkpt lat="45.37841" lon="4.10006">
        <ele>834.6</ele>
        <time>2014-04-13T12:25:37Z</time>
      </trkpt>
      <trkpt lat="45.37819" lon="4.10004">
        <ele>834.8</ele>
        <time>2014-04-13T12:25:43Z</time>
      </trkpt>
      <trkpt lat="45.37798" lon="4.10006">
        <ele>834.8</ele>
        <time>2014-04-13T12:25:49Z</time>
      </trkpt>
      <trkpt lat="45.37772" lon="4.10012">
        <ele>835.2</ele>
        <time>2014-04-13T12:25:57Z</time>
      </trkpt>
      <trkpt lat="45.37752" lon="4.1002">
        <ele>836.5</ele>
        <time>2014-04-13T12:26:03Z</time>
      </trkpt>
      <trkpt lat="45.37728" lon="4.10026">
        <ele>837.1</ele>
        <time>2014-04-13T12:26:09Z</time>
      </trkpt>
      <trkpt lat="45.37704" lon="4.10031">
        <ele>837.7</ele>
        <time>2014-04-13T12:26:15Z</time>
      </trkpt>
      <trkpt lat="45.37668" lon="4.10045">
        <ele>839.7</ele>
        <time>2014-04-13T12:26:25Z</time>
      </trkpt>
      <trkpt lat="45.37639" lon="4.10059">
        <ele>840.4</ele>
        <time>2014-04-13T12:26:33Z</time>
      </trkpt>
      <trkpt lat="45.3762" lon="4.10069">
        <ele>839.9</ele>
        <time>2014-04-13T12:26:39Z</time>
      </trkpt>
      <trkpt lat="45.37601" lon="4.10067">
        <ele>840.6</ele>
        <time>2014-04-13T12:26:47Z</time>
      </trkpt>
      <trkpt lat="45.37578" lon="4.10099">
        <ele>841.6</ele>
        <time>2014-04-13T12:26:57Z</time>
      </trkpt>
      <trkpt lat="45.37558" lon="4.10128">
        <ele>842.2</ele>
        <time>2014-04-13T12:27:03Z</time>
      </trkpt>
      <trkpt lat="45.37534" lon="4.10148">
        <ele>843.4</ele>
        <time>2014-04-13T12:27:09Z</time>
      </trkpt>
      <trkpt lat="45.37506" lon="4.1016">
        <ele>843.8</ele>
        <time>2014-04-13T12:27:15Z</time>
      </trkpt>
      <trkpt lat="45.3748" lon="4.10168">
        <ele>844.1</ele>
        <time>2014-04-13T12:27:21Z</time>
      </trkpt>
      <trkpt lat="45.37451" lon="4.1018">
        <ele>845.3</ele>
        <time>2014-04-13T12:27:27Z</time>
      </trkpt>
      <trkpt lat="45.37425" lon="4.10196">
        <ele>846</ele>
        <time>2014-04-13T12:27:33Z</time>
      </trkpt>
      <trkpt lat="45.37402" lon="4.10216">
        <ele>847.1</ele>
        <time>2014-04-13T12:27:39Z</time>
      </trkpt>
      <trkpt lat="45.37381" lon="4.10234">
        <ele>848.7</ele>
        <time>2014-04-13T12:27:45Z</time>
      </trkpt>
      <trkpt lat="45.37359" lon="4.1024">
        <ele>850.5</ele>
        <time>2014-04-13T12:27:51Z</time>
      </trkpt>
      <trkpt lat="45.37334" lon="4.1024">
        <ele>852.3</ele>
        <time>2014-04-13T12:27:59Z</time>
      </trkpt>
      <trkpt lat="45.37308" lon="4.10245">
        <ele>854.6</ele>
        <time>2014-04-13T12:28:07Z</time>
      </trkpt>
      <trkpt lat="45.37277" lon="4.10262">
        <ele>857.5</ele>
        <time>2014-04-13T12:28:17Z</time>
      </trkpt>
      <trkpt lat="45.37263" lon="4.1029">
        <ele>859.6</ele>
        <time>2014-04-13T12:28:24Z</time>
      </trkpt>
      <trkpt lat="45.37234" lon="4.10306">
        <ele>862.7</ele>
        <time>2014-04-13T12:28:31Z</time>
      </trkpt>
      <trkpt lat="45.37199" lon="4.1033">
        <ele>864.8</ele>
        <time>2014-04-13T12:28:41Z</time>
      </trkpt>
      <trkpt lat="45.37181" lon="4.10337">
        <ele>866.8</ele>
        <time>2014-04-13T12:28:47Z</time>
      </trkpt>
      <trkpt lat="45.37151" lon="4.10358">
        <ele>868.5</ele>
        <time>2014-04-13T12:28:53Z</time>
      </trkpt>
      <trkpt lat="45.37129" lon="4.10378">
        <ele>868.7</ele>
        <time>2014-04-13T12:28:59Z</time>
      </trkpt>
      <trkpt lat="45.37074" lon="4.10376">
        <ele>869.6</ele>
        <time>2014-04-13T12:29:09Z</time>
      </trkpt>
      <trkpt lat="45.3704" lon="4.10384">
        <ele>870.6</ele>
        <time>2014-04-13T12:29:15Z</time>
      </trkpt>
      <trkpt lat="45.37007" lon="4.10391">
        <ele>870.4</ele>
        <time>2014-04-13T12:29:21Z</time>
      </trkpt>
      <trkpt lat="45.36967" lon="4.10406">
        <ele>866.1</ele>
        <time>2014-04-13T12:29:27Z</time>
      </trkpt>
      <trkpt lat="45.36932" lon="4.10439">
        <ele>862.9</ele>
        <time>2014-04-13T12:29:33Z</time>
      </trkpt>
      <trkpt lat="45.36898" lon="4.10484">
        <ele>859.8</ele>
        <time>2014-04-13T12:29:39Z</time>
      </trkpt>
      <trkpt lat="45.36868" lon="4.10525">
        <ele>858.3</ele>
        <time>2014-04-13T12:29:45Z</time>
      </trkpt>
      <trkpt lat="45.36832" lon="4.1057">
        <ele>856.7</ele>
        <time>2014-04-13T12:29:53Z</time>
      </trkpt>
      <trkpt lat="45.36805" lon="4.10603">
        <ele>855</ele>
        <time>2014-04-13T12:29:59Z</time>
      </trkpt>
      <trkpt lat="45.36772" lon="4.10656">
        <ele>853.2</ele>
        <time>2014-04-13T12:30:07Z</time>
      </trkpt>
      <trkpt lat="45.3674" lon="4.10699">
        <ele>851.1</ele>
        <time>2014-04-13T12:30:13Z</time>
      </trkpt>
      <trkpt lat="45.36705" lon="4.10742">
        <ele>848.6</ele>
        <time>2014-04-13T12:30:19Z</time>
      </trkpt>
      <trkpt lat="45.36672" lon="4.1078">
        <ele>846.8</ele>
        <time>2014-04-13T12:30:25Z</time>
      </trkpt>
      <trkpt lat="45.36648" lon="4.10824">
        <ele>846.2</ele>
        <time>2014-04-13T12:30:31Z</time>
      </trkpt>
      <trkpt lat="45.36625" lon="4.10883">
        <ele>845.2</ele>
        <time>2014-04-13T12:30:39Z</time>
      </trkpt>
      <trkpt lat="45.36613" lon="4.10927">
        <ele>844.2</ele>
        <time>2014-04-13T12:30:45Z</time>
      </trkpt>
      <trkpt lat="45.36608" lon="4.1097">
        <ele>843.9</ele>
        <time>2014-04-13T12:30:51Z</time>
      </trkpt>
      <trkpt lat="45.36606" lon="4.11027">
        <ele>842.9</ele>
        <time>2014-04-13T12:30:59Z</time>
      </trkpt>
      <trkpt lat="45.36589" lon="4.111">
        <ele>841.2</ele>
        <time>2014-04-13T12:31:09Z</time>
      </trkpt>
      <trkpt lat="45.36576" lon="4.11146">
        <ele>839.2</ele>
        <time>2014-04-13T12:31:15Z</time>
      </trkpt>
      <trkpt lat="45.36544" lon="4.11216">
        <ele>836.1</ele>
        <time>2014-04-13T12:31:23Z</time>
      </trkpt>
      <trkpt lat="45.36521" lon="4.11287">
        <ele>834.1</ele>
        <time>2014-04-13T12:31:31Z</time>
      </trkpt>
      <trkpt lat="45.36509" lon="4.11337">
        <ele>833.2</ele>
        <time>2014-04-13T12:31:37Z</time>
      </trkpt>
      <trkpt lat="45.36503" lon="4.11383">
        <ele>832.5</ele>
        <time>2014-04-13T12:31:43Z</time>
      </trkpt>
      <trkpt lat="45.36499" lon="4.11432">
        <ele>831.4</ele>
        <time>2014-04-13T12:31:49Z</time>
      </trkpt>
      <trkpt lat="45.36498" lon="4.11486">
        <ele>829.7</ele>
        <time>2014-04-13T12:31:55Z</time>
      </trkpt>
      <trkpt lat="45.36489" lon="4.11544">
        <ele>827.6</ele>
        <time>2014-04-13T12:32:01Z</time>
      </trkpt>
      <trkpt lat="45.36493" lon="4.11619">
        <ele>822.3</ele>
        <time>2014-04-13T12:32:07Z</time>
      </trkpt>
      <trkpt lat="45.36497" lon="4.11694">
        <ele>816.9</ele>
        <time>2014-04-13T12:32:13Z</time>
      </trkpt>
      <trkpt lat="45.36476" lon="4.11762">
        <ele>811.1</ele>
        <time>2014-04-13T12:32:19Z</time>
      </trkpt>
      <trkpt lat="45.3645" lon="4.11837">
        <ele>804.9</ele>
        <time>2014-04-13T12:32:25Z</time>
      </trkpt>
      <trkpt lat="45.36434" lon="4.11939">
        <ele>796.5</ele>
        <time>2014-04-13T12:32:33Z</time>
      </trkpt>
      <trkpt lat="45.36433" lon="4.12015">
        <ele>789.6</ele>
        <time>2014-04-13T12:32:41Z</time>
      </trkpt>
      <trkpt lat="45.36429" lon="4.12054">
        <ele>784.5</ele>
        <time>2014-04-13T12:32:47Z</time>
      </trkpt>
      <trkpt lat="45.36421" lon="4.12105">
        <ele>781.1</ele>
        <time>2014-04-13T12:32:53Z</time>
      </trkpt>
      <trkpt lat="45.36412" lon="4.12184">
        <ele>777</ele>
        <time>2014-04-13T12:33:01Z</time>
      </trkpt>
      <trkpt lat="45.36391" lon="4.12251">
        <ele>774</ele>
        <time>2014-04-13T12:33:07Z</time>
      </trkpt>
      <trkpt lat="45.36378" lon="4.12312">
        <ele>770.9</ele>
        <time>2014-04-13T12:33:13Z</time>
      </trkpt>
      <trkpt lat="45.36363" lon="4.12358">
        <ele>769.4</ele>
        <time>2014-04-13T12:33:19Z</time>
      </trkpt>
      <trkpt lat="45.3635" lon="4.12403">
        <ele>769.1</ele>
        <time>2014-04-13T12:33:25Z</time>
      </trkpt>
      <trkpt lat="45.36335" lon="4.12447">
        <ele>768.4</ele>
        <time>2014-04-13T12:33:31Z</time>
      </trkpt>
      <trkpt lat="45.36322" lon="4.12488">
        <ele>767.8</ele>
        <time>2014-04-13T12:33:37Z</time>
      </trkpt>
      <trkpt lat="45.36307" lon="4.12535">
        <ele>769.5</ele>
        <time>2014-04-13T12:33:45Z</time>
      </trkpt>
      <trkpt lat="45.36297" lon="4.12564">
        <ele>770.7</ele>
        <time>2014-04-13T12:33:51Z</time>
      </trkpt>
      <trkpt lat="45.36285" lon="4.12603">
        <ele>770.1</ele>
        <time>2014-04-13T12:33:57Z</time>
      </trkpt>
      <trkpt lat="45.36289" lon="4.12673">
        <ele>766.9</ele>
        <time>2014-04-13T12:34:03Z</time>
      </trkpt>
      <trkpt lat="45.36291" lon="4.12748">
        <ele>762.6</ele>
        <time>2014-04-13T12:34:09Z</time>
      </trkpt>
      <trkpt lat="45.36313" lon="4.12835">
        <ele>755</ele>
        <time>2014-04-13T12:34:17Z</time>
      </trkpt>
      <trkpt lat="45.36323" lon="4.12888">
        <ele>748.7</ele>
        <time>2014-04-13T12:34:23Z</time>
      </trkpt>
      <trkpt lat="45.3634" lon="4.12926">
        <ele>742.3</ele>
        <time>2014-04-13T12:34:29Z</time>
      </trkpt>
      <trkpt lat="45.36368" lon="4.12984">
        <ele>734.9</ele>
        <time>2014-04-13T12:34:37Z</time>
      </trkpt>
      <trkpt lat="45.36385" lon="4.13068">
        <ele>729.4</ele>
        <time>2014-04-13T12:34:47Z</time>
      </trkpt>
      <trkpt lat="45.36388" lon="4.13123">
        <ele>726.6</ele>
        <time>2014-04-13T12:34:53Z</time>
      </trkpt>
      <trkpt lat="45.36391" lon="4.13183">
        <ele>724.3</ele>
        <time>2014-04-13T12:34:59Z</time>
      </trkpt>
      <trkpt lat="45.36396" lon="4.13273">
        <ele>721</ele>
        <time>2014-04-13T12:35:07Z</time>
      </trkpt>
      <trkpt lat="45.36399" lon="4.13336">
        <ele>718.8</ele>
        <time>2014-04-13T12:35:13Z</time>
      </trkpt>
      <trkpt lat="45.36398" lon="4.13379">
        <ele>718</ele>
        <time>2014-04-13T12:35:18Z</time>
      </trkpt>
      <trkpt lat="45.36395" lon="4.13434">
        <ele>718.6</ele>
        <time>2014-04-13T12:35:25Z</time>
      </trkpt>
      <trkpt lat="45.36411" lon="4.13471">
        <ele>719.1</ele>
        <time>2014-04-13T12:35:31Z</time>
      </trkpt>
      <trkpt lat="45.36424" lon="4.13498">
        <ele>720.5</ele>
        <time>2014-04-13T12:35:37Z</time>
      </trkpt>
      <trkpt lat="45.36452" lon="4.13482">
        <ele>722.9</ele>
        <time>2014-04-13T12:35:45Z</time>
      </trkpt>
      <trkpt lat="45.36482" lon="4.13486">
        <ele>724.4</ele>
        <time>2014-04-13T12:35:53Z</time>
      </trkpt>
      <trkpt lat="45.36486" lon="4.135">
        <ele>723.7</ele>
        <time>2014-04-13T12:36:00Z</time>
      </trkpt>
      <trkpt lat="45.36486" lon="4.135">
        <ele>723.7</ele>
        <time>2014-04-13T12:36:07Z</time>
      </trkpt>
      <trkpt lat="45.36486" lon="4.135">
        <ele>723.1</ele>
        <time>2014-04-13T12:36:07Z</time>
      </trkpt>
      <trkpt lat="45.36486" lon="4.135">
        <ele>723.1</ele>
        <time>2014-04-13T12:37:21Z</time>
      </trkpt>
      <trkpt lat="45.36486" lon="4.135">
        <ele>723.1</ele>
        <time>2014-04-13T12:37:49Z</time>
      </trkpt>
      <trkpt lat="45.36486" lon="4.135">
        <ele>723.1</ele>
        <time>2014-04-13T12:37:50Z</time>
      </trkpt>
    </trkseg>
  </trk>
</gpx>